[[{"header":{"parameterUnit":"m.s-1","parameterCategory":1,"la1":31.0,"la2":29.5877,"lo1":-88.7671,"lo2":-86.6584,"dy":0.0162,"dx":0.0185,"nx":115,"ny":88,"refTime":"2024-07-10T06:00:00:Z","depth":0,"parameterNumber":2,"parameterNumberName":"U-component_of_WINDS"},"data":[0.0,0.0,0.0,0.0,0.0,0.0,0.0,0.0,0.0,0.0,0.0,0.0,0.0,0.0,0.0,0.0,0.0,0.0,0.0,0.0,0.0,0.0,0.0,0.0,0.0,0.0,0.0,0.0,0.0,0.0,0.0,0.0,0.0,0.0,0.0,0.0,0.0,0.0,0.0,0.0,0.0,0.0,0.0,0.0,0.0,0.0,0.0,0.0,0.0,0.0,0.0,0.0,0.0,0.0,0.0,0.0,0.0,0.0,0.0,0.0,0.0,0.0,0.0,0.0,0.0,0.0,0.0,0.0,0.0,0.0,0.0,0.0,0.0,0.0,0.0,0.0,0.0,0.0,0.0,0.0,0.0,0.0,0.0,0.0,0.0,0.0,0.0,0.0,0.0,0.0,0.0,0.0,0.0,0.0,0.0,0.0,0.0,0.0,0.0,0.0,0.0,0.0,0.0,0.0,0.0,0.0,0.0,0.0,0.0,0.0,0.0,0.0,0.0,0.0,0.0,0.0,0.0,0.0,0.0,0.0,0.0,0.0,0.0,0.0,0.0,0.0,0.0,0.0,0.0,0.0,0.0,0.0,0.0,0.0,0.0,0.0,0.0,0.0,0.0,0.0,0.0,0.0,0.0,0.0,0.0,0.0,0.0,0.0,0.0,0.0,0.0,0.0,0.0,0.0,0.0,0.0,0.0,0.0,0.0,0.0,0.0,0.0,0.0,0.0,0.0,0.0,0.0,0.0,0.0,0.0,0.0,0.0,0.0,0.0,0.0,0.0,0.0,0.0,0.0,0.0,0.0,0.0,0.0,0.0,0.0,0.0,0.0,0.0,0.0,0.0,0.0,0.0,0.0,0.0,0.0,0.0,0.0,0.0,0.0,0.0,0.0,0.0,0.0,0.0,0.0,0.0,0.0,0.0,0.0,0.0,0.0,0.0,0.0,0.0,0.0,0.0,0.0,0.0,0.0,0.0,0.0,0.0,0.0,0.0,0.0,0.0,0.0,0.0,0.0,0.0,0.0,0.0,0.0,0.0,0.0,0.0,0.0,0.0,0.0,0.0,0.0,0.0,0.0,0.0,0.0,0.0,0.0,0.0,0.0,0.0,0.0,0.0,0.0,0.0,0.0,0.0,0.0,0.0,0.0,0.0,0.0,0.0,0.0,0.0,0.0,0.0,0.0,0.0,0.0,0.0,0.0,0.0,0.0,0.0,0.0,0.0,0.0,0.0,0.0,0.0,0.0,0.0,0.0,0.0,0.0,0.0,0.0,0.0,0.0,0.0,0.0,0.0,0.0,0.0,0.0,0.0,0.0,0.0,0.0,0.0,0.0,0.0,0.0,0.0,0.0,0.0,0.0,0.0,0.0,0.0,0.0,0.0,0.0,0.0,0.0,0.0,0.0,0.0,0.0,0.0,0.0,0.0,0.0,0.0,0.0,0.0,0.0,0.0,0.0,0.0,0.0,0.0,0.0,0.0,0.0,0.0,0.0,0.0,0.0,0.0,0.0,0.0,0.0,0.0,0.0,0.0,0.0,0.0,0.0,0.0,0.0,0.0,0.0,0.0,0.0,0.0,0.0,0.0,0.0,0.0,0.0,0.0,0.0,0.0,0.0,0.0,0.0,0.0,0.0,0.0,0.0,0.0,0.0,0.0,0.0,0.0,0.0,0.0,0.0,0.0,0.0,0.0,0.0,0.0,0.0,0.0,0.0,0.0,0.0,0.0,0.0,0.0,0.0,0.0,0.0,0.0,0.0,0.0,0.0,0.0,0.0,0.0,0.0,0.0,0.0,0.0,0.0,0.0,0.0,0.0,0.0,0.0,0.0,0.0,0.0,0.0,0.0,0.0,0.0,0.0,0.0,0.0,0.0,0.0,0.0,0.0,0.0,0.0,0.0,0.0,0.0,0.0,0.0,0.0,0.0,0.0,0.0,0.0,0.0,0.0,0.0,0.0,0.0,0.0,0.0,0.0,0.0,0.0,0.0,0.0,0.0,0.0,0.0,0.0,0.0,0.0,0.0,0.0,0.0,0.0,0.0,0.0,0.0,0.0,0.0,0.0,0.0,0.0,0.0,0.0,0.0,0.0,0.0,0.0,0.0,0.0,0.0,0.0,0.0,0.0,0.0,0.0,0.0,0.0,0.0,0.0,0.0,0.0,0.0,0.0,0.0,0.0,0.0,0.0,0.0,0.0,0.0,0.0,0.0,0.0,0.0,0.0,0.0,0.0,0.0,0.0,0.0,0.0,0.0,0.0,0.0,0.0,0.0,0.0,0.0,0.0,0.0,0.0,0.0,0.0,0.0,0.0,0.0,0.0,0.0,0.0,0.0,0.0,0.0,0.0,0.0,0.0,0.0,0.0,0.0,0.0,0.0,0.0,0.0,0.0,0.0,0.0,0.0,0.0,0.0,0.0,0.0,0.0,0.0,0.0,0.0,0.0,0.0,0.0,0.0,0.0,0.0,0.0,0.0,0.0,0.0,0.0,0.0,0.0,0.0,0.0,0.0,0.0,0.0,0.0,0.0,0.0,0.0,0.0,0.0,0.0,0.0,0.0,0.0,0.0,0.0,0.0,0.0,0.0,0.0,0.0,0.0,0.0,0.0,0.0,0.0,0.0,0.0,0.0,0.0,0.0,0.0,0.0,0.0,0.0,0.0,0.0,0.0,0.0,0.0,0.0,0.0,0.0,0.0,0.0,0.0,0.0,0.0,0.0,0.0,0.0,0.0,0.0,0.0,0.0,0.0,0.0,0.0,0.0,0.0,0.0,0.0,0.0,0.0,0.0,0.0,0.0,0.0,0.0,0.0,0.0,0.0,0.0,0.0,0.0,0.0,0.0,0.0,0.0,0.0,0.0,0.0,0.0,0.0,0.0,0.0,0.0,0.0,0.0,0.0,0.0,0.0,0.0,0.0,0.0,0.0,0.0,0.0,0.0,0.0,0.0,0.0,0.0,0.0,0.0,0.0,0.0,0.0,0.0,0.0,0.0,0.0,0.0,0.0,0.0,0.0,0.0,0.0,0.0,0.0,0.0,0.0,0.0,0.0,0.0,0.0,0.0,0.0,0.0,0.0,0.0,0.0,0.0,0.0,0.0,0.0,0.0,0.0,0.0,0.0,0.0,0.0,0.0,0.0,0.0,0.0,0.0,0.0,0.0,0.0,0.0,0.0,0.0,0.0,0.0,0.0,0.0,0.0,0.0,0.0,0.0,0.0,0.0,0.0,0.0,0.0,0.0,0.0,0.0,0.0,0.0,0.0,0.0,0.0,0.0,0.0,0.0,0.0,0.0,0.0,0.0,0.0,0.0,0.0,0.0,0.0,0.0,0.0,0.0,0.0,0.0,0.0,0.0,0.0,0.0,0.0,0.0,0.0,0.0,0.0,0.0,0.0,0.0,0.0,0.0,0.0,0.0,0.0,0.0,0.0,0.0,0.0,0.0,0.0,0.0,0.0,0.0,0.0,0.0,0.0,0.0,0.0,0.0,0.0,0.0,0.0,0.0,0.0,0.0,0.0,0.0,0.0,0.0,0.0,0.0,0.0,0.0,0.0,0.0,0.0,0.0,0.0,0.0,0.0,0.0,0.0,0.0,0.0,0.0,0.0,0.0,0.0,0.0,0.0,0.0,0.0,0.0,0.0,0.0,0.0,0.0,0.0,0.0,0.0,0.0,0.0,0.0,0.0,0.0,0.0,0.0,0.0,0.0,0.0,0.0,0.0,0.0,0.0,0.0,0.0,0.0,0.0,0.0,0.0,0.0,0.0,0.0,0.0,0.0,0.0,0.0,0.0,0.0,0.0,0.0,0.0,0.0,0.0,0.0,0.0,0.0,0.0,0.0,0.0,0.0,0.0,0.0,0.0,0.0,0.0,0.0,0.0,0.0,0.0,0.0,0.0,0.0,0.0,0.0,0.0,0.0,0.0,0.0,0.0,0.0,0.0,0.0,0.0,0.0,0.0,0.0,0.0,0.0,0.0,0.0,0.0,0.0,0.0,0.0,0.0,0.0,0.0,0.0,0.0,0.0,0.0,0.0,0.0,0.0,0.0,0.0,0.0,0.0,0.0,0.0,0.0,0.0,0.0,0.0,0.0,0.0,0.0,0.0,0.0,0.0,0.0,0.0,0.0,0.0,0.0,0.0,0.0,0.0,0.0,0.0,0.0,0.0,0.0,0.0,0.0,0.0,0.0,0.0,0.0,0.0,0.0,0.0,0.0,0.0,0.0,0.0,0.0,0.0,0.0,0.0,0.0,0.0,0.0,0.0,0.0,0.0,-0.6911,0.0,0.0,0.0,0.0,0.0,0.0,0.0,0.0,0.0,0.0,0.0,0.0,0.0,0.0,0.0,0.0,0.0,0.0,0.0,0.0,0.0,0.0,0.0,0.0,0.0,0.0,0.0,0.0,0.0,0.0,0.0,0.0,0.0,0.0,0.0,0.0,0.0,0.0,0.0,0.0,0.0,0.0,0.0,0.0,0.0,0.0,0.0,0.0,0.0,0.0,0.0,0.0,0.0,0.0,0.0,0.0,0.0,0.0,0.0,0.0,0.0,0.0,0.0,0.0,0.0,0.0,0.0,0.0,0.0,0.0,0.0,0.0,0.0,0.0,0.0,0.0,0.0,0.0,0.0,0.0,0.0,0.0,0.0,0.0,0.0,0.0,0.0,0.0,0.0,0.0,0.0,0.0,0.0,0.0,0.0,0.0,0.0,0.0,0.0,0.0,0.0,0.0,0.0,0.0,0.0,0.0,0.0,0.0,0.0,0.0,-0.7411,-0.7209,-0.7096,-0.698,-0.6894,0.0,0.0,0.0,0.0,0.0,0.0,0.0,0.0,0.0,0.0,0.0,0.0,0.0,0.0,0.0,0.0,0.0,0.0,0.0,0.0,0.0,0.0,0.0,0.0,0.0,0.0,0.0,0.0,0.0,0.0,0.0,0.0,0.0,0.0,0.0,0.0,0.0,0.0,0.0,0.0,0.0,0.0,0.0,0.0,0.0,0.0,0.0,0.0,0.0,0.0,0.0,0.0,0.0,0.0,0.0,0.0,0.0,0.0,0.0,0.0,0.0,0.0,0.0,0.0,0.0,0.0,0.0,0.0,0.0,0.0,0.0,0.0,0.0,0.0,0.0,0.0,0.0,0.0,0.0,0.0,0.0,0.0,0.0,0.0,0.0,0.0,0.0,0.0,0.0,0.0,0.0,0.0,0.0,0.0,0.0,0.0,0.0,0.0,0.0,0.0,0.0,0.0,0.0,0.0,0.0,0.0,0.0,0.0,0.0,0.0,0.0,0.0,-0.7548,-0.7449,-0.7395,0.0,0.0,0.0,0.0,0.0,0.0,0.0,0.0,0.0,0.0,0.0,0.0,0.0,0.0,0.0,0.0,0.0,0.0,0.0,0.0,0.0,0.0,0.0,0.0,0.0,0.0,0.0,0.0,0.0,0.0,0.0,0.0,0.0,0.0,0.0,0.0,0.0,0.0,0.0,0.0,0.0,0.0,0.0,0.0,0.0,0.0,0.0,0.0,0.0,0.0,0.0,0.0,0.0,0.0,0.0,0.0,0.0,0.0,0.0,0.0,0.0,0.0,0.0,0.0,0.0,0.0,0.0,0.0,0.0,0.0,0.0,0.0,0.0,0.0,0.0,0.0,0.0,0.0,0.0,0.0,0.0,0.0,0.0,0.0,0.0,0.0,0.0,0.0,0.0,0.0,0.0,0.0,0.0,0.0,0.0,0.0,0.0,0.0,0.0,0.0,0.0,0.0,0.0,0.0,0.0,0.0,0.0,0.0,0.0,0.0,-0.8076,-0.9157,-0.9187,0.0,-0.8917,0.0,0.0,0.0,0.0,0.0,0.0,0.0,0.0,0.0,0.0,0.0,0.0,0.0,0.0,0.0,0.0,0.0,0.0,0.0,0.0,0.0,0.0,0.0,0.0,0.0,0.0,0.0,0.0,0.0,0.0,0.0,0.0,0.0,0.0,0.0,0.0,0.0,0.0,0.0,0.0,0.0,0.0,0.0,0.0,0.0,0.0,0.0,0.0,0.0,0.0,0.0,0.0,0.0,0.0,0.0,0.0,0.0,0.0,0.0,0.0,0.0,0.0,0.0,0.0,0.0,0.0,0.0,0.0,0.0,0.0,0.0,0.0,0.0,0.0,0.0,0.0,0.0,0.0,0.0,0.0,0.0,0.0,0.0,0.0,0.0,0.0,0.0,0.0,0.0,0.0,0.0,0.0,0.0,0.0,0.0,0.0,0.0,0.0,0.0,0.0,0.0,0.0,0.0,0.0,0.0,0.0,0.0,0.0,0.0,0.0,0.0,-0.9215,-0.9228,-0.9194,0.0,0.0,0.0,0.0,0.0,0.0,0.0,0.0,0.0,0.0,0.0,0.0,0.0,0.0,0.0,0.0,0.0,0.0,0.0,0.0,0.0,0.0,0.0,0.0,0.0,0.0,0.0,0.0,0.0,0.0,0.0,0.0,0.0,0.0,0.0,0.0,0.0,0.0,0.0,0.0,0.0,0.0,0.0,0.0,0.0,0.0,0.0,0.0,0.0,0.0,0.0,0.0,0.0,0.0,0.0,0.0,0.0,0.0,0.0,0.0,0.0,0.0,0.0,0.0,0.0,0.0,0.0,0.0,0.0,0.0,0.0,0.0,0.0,0.0,0.0,0.0,0.0,0.0,0.0,0.0,0.0,0.0,0.0,0.0,0.0,0.0,0.0,0.0,0.0,0.0,0.0,0.0,0.0,0.0,0.0,0.0,0.0,0.0,0.0,0.0,0.0,0.0,0.0,0.0,0.0,0.0,0.0,0.0,0.0,0.0,-0.8886,0.0,-0.9755,-0.9491,-0.9264,-0.91,0.0,0.0,0.0,0.0,0.0,0.0,0.0,0.0,0.0,0.0,0.0,0.0,0.0,0.0,0.0,0.0,0.0,0.0,0.0,0.0,0.0,0.0,0.0,0.0,0.0,0.0,0.0,0.0,0.0,0.0,0.0,0.0,0.0,0.0,0.0,0.0,0.0,0.0,0.0,0.0,0.0,0.0,0.0,0.0,0.0,0.0,0.0,0.0,0.0,0.0,0.0,0.0,0.0,0.0,0.0,0.0,0.0,0.0,0.0,0.0,0.0,0.0,0.0,0.0,0.0,0.0,0.0,0.0,0.0,0.0,0.0,0.0,0.0,0.0,0.0,0.0,0.0,0.0,0.0,0.0,0.0,0.0,0.0,0.0,0.0,0.0,0.0,0.0,0.0,0.0,0.0,0.0,0.0,0.0,0.0,0.0,0.0,0.0,0.0,0.0,0.0,0.0,0.0,0.0,0.0,0.0,0.0,0.0,0.0,-1.0045,-1.0058,-1.1416,-1.042,-0.9617,0.0,0.0,0.0,0.0,0.0,0.0,0.0,0.0,0.0,0.0,0.0,0.0,0.0,0.0,0.0,0.0,0.0,0.0,0.0,0.0,0.0,0.0,0.0,0.0,0.0,0.0,0.0,0.0,0.0,0.0,0.0,0.0,0.0,0.0,0.0,0.0,0.0,0.0,0.0,0.0,0.0,0.0,0.0,0.0,0.0,0.0,0.0,0.0,0.0,0.0,0.0,0.0,0.0,0.0,0.0,0.0,0.0,0.0,0.0,0.0,0.0,0.0,0.0,0.0,0.0,0.0,0.0,0.0,0.0,0.0,0.0,0.0,0.0,0.0,0.0,0.0,0.0,0.0,0.0,0.0,0.0,0.0,0.0,0.0,0.0,0.0,0.0,0.0,0.0,0.0,0.0,0.0,0.0,0.0,0.0,0.0,0.0,0.0,0.0,0.0,0.0,0.0,0.0,0.0,0.0,0.0,0.0,0.0,0.0,-0.8349,-0.8917,-1.0286,-1.2422,-1.0533,-0.9629,0.0,0.0,0.0,0.0,0.0,0.0,0.0,0.0,0.0,0.0,0.0,0.0,0.0,0.0,0.0,0.0,0.0,0.0,0.0,0.0,0.0,0.0,0.0,0.0,0.0,0.0,0.0,0.0,0.0,0.0,0.0,0.0,0.0,0.0,0.0,0.0,0.0,0.0,0.0,0.0,0.0,0.0,0.0,0.0,0.0,0.0,0.0,0.0,0.0,0.0,0.0,0.0,0.0,0.0,0.0,0.0,0.0,0.0,0.0,0.0,0.0,0.0,0.0,0.0,0.0,0.0,0.0,0.0,0.0,0.0,0.0,0.0,0.0,0.0,0.0,0.0,0.0,0.0,0.0,0.0,0.0,0.0,0.0,0.0,0.0,0.0,0.0,0.0,0.0,0.0,0.0,0.0,0.0,0.0,0.0,0.0,0.0,0.0,0.0,0.0,0.0,0.0,0.0,0.0,0.0,0.0,0.0,0.0,0.0,-0.7947,0.0,-1.0897,0.0,-1.0433,-0.9366,0.0,0.0,0.0,0.0,0.0,0.0,0.0,0.0,0.0,0.0,0.0,0.0,0.0,0.0,0.0,0.0,0.0,0.0,0.0,0.0,0.0,0.0,0.0,0.0,0.0,0.0,0.0,0.0,0.0,0.0,0.0,0.0,0.0,0.0,0.0,0.0,0.0,0.0,0.0,0.0,0.0,0.0,0.0,0.0,0.0,0.0,0.0,0.0,0.0,0.0,0.0,0.0,0.0,0.0,0.0,0.0,0.0,0.0,0.0,0.0,0.0,0.0,0.0,0.0,0.0,0.0,0.0,0.0,0.0,0.0,0.0,0.0,0.0,0.0,0.0,0.0,0.0,0.0,0.0,0.0,0.0,0.0,0.0,0.0,0.0,0.0,0.0,0.0,0.0,0.0,0.0,0.0,0.0,0.0,0.0,0.0,0.0,0.0,0.0,0.0,0.0,0.0,0.0,0.0,0.0,0.0,0.0,0.0,-0.7926,-1.0506,-1.167,-1.1758,-1.0781,-1.0143,-0.8876,0.0,0.0,0.0,0.0,0.0,0.0,0.0,0.0,0.0,0.0,0.0,0.0,0.0,0.0,0.0,0.0,0.0,0.0,0.0,0.0,0.0,0.0,0.0,0.0,0.0,0.0,0.0,0.0,0.0,0.0,0.0,0.0,0.0,0.0,0.0,0.0,0.0,0.0,0.0,0.0,0.0,0.0,0.0,0.0,0.0,0.0,0.0,0.0,0.0,0.0,0.0,0.0,0.0,0.0,0.0,0.0,0.0,0.0,0.0,0.0,0.0,0.0,0.0,0.0,0.0,0.0,0.0,0.0,0.0,0.0,0.0,0.0,0.0,0.0,0.0,0.0,0.0,0.0,0.0,0.0,0.0,0.0,0.0,0.0,0.0,0.0,0.0,0.0,0.0,0.0,0.0,0.0,0.0,0.0,0.0,0.0,0.0,0.0,0.0,0.0,0.0,0.0,0.0,0.0,0.0,0.0,0.0,0.0,0.0,-0.9077,-1.0483,-1.142,-1.1758,-0.988,-0.9014,0.0,0.0,0.0,0.0,0.0,0.0,0.0,0.0,0.0,0.0,0.0,0.0,0.0,0.0,0.0,0.0,0.0,0.0,0.0,0.0,0.0,0.0,0.0,0.0,0.0,0.0,0.0,0.0,0.0,0.0,0.0,0.0,0.0,0.0,0.0,0.0,0.0,0.0,0.0,0.0,0.0,0.0,0.0,0.0,0.0,0.0,0.0,0.0,0.0,0.0,0.0,0.0,0.0,0.0,0.0,0.0,0.0,0.0,0.0,0.0,0.0,0.0,0.0,0.0,0.0,0.0,0.0,0.0,0.0,0.0,0.0,0.0,0.0,0.0,0.0,0.0,0.0,0.0,0.0,0.0,0.0,0.0,0.0,0.0,0.0,0.0,0.0,0.0,0.0,0.0,0.0,0.0,0.0,0.0,0.0,0.0,0.0,0.0,0.0,0.0,0.0,0.0,0.0,0.0,0.0,0.0,0.0,0.0,0.0,-0.9918,-1.1224,-1.2102,-1.2371,-1.0533,-0.9617,-0.9729,0.0,0.0,0.0,0.0,0.0,0.0,0.0,0.0,0.0,0.0,0.0,0.0,0.0,0.0,0.0,0.0,0.0,0.0,0.0,0.0,0.0,0.0,0.0,0.0,0.0,0.0,0.0,0.0,0.0,0.0,0.0,0.0,0.0,0.0,0.0,0.0,0.0,0.0,0.0,0.0,0.0,0.0,0.0,0.0,0.0,0.0,0.0,0.0,0.0,0.0,0.0,0.0,0.0,0.0,0.0,0.0,0.0,0.0,0.0,0.0,0.0,0.0,0.0,0.0,0.0,0.0,0.0,0.0,0.0,0.0,0.0,0.0,0.0,0.0,0.0,0.0,0.0,0.0,0.0,0.0,0.0,0.0,0.0,0.0,0.0,0.0,0.0,0.0,0.0,0.0,0.0,0.0,0.0,0.0,0.0,0.0,0.0,0.0,0.0,0.0,0.0,0.0,0.0,0.0,0.0,0.0,0.0,0.0,-1.2454,-1.3594,-1.3682,-1.2655,-1.1927,-1.0608,0.0,0.0,0.0,0.0,0.0,0.0,0.0,0.0,0.0,0.0,0.0,0.0,0.0,0.0,0.0,0.0,0.0,0.0,0.0,0.0,0.0,0.0,0.0,0.0,0.0,0.0,0.0,0.0,0.0,0.0,0.0,0.0,0.0,0.0,0.0,0.0,0.0,0.0,0.0,0.0,0.0,0.0,0.0,0.0,0.0,0.0,0.0,0.0,0.0,0.0,0.0,0.0,0.0,0.0,0.0,0.0,0.0,0.0,0.0,0.0,0.0,0.0,0.0,0.0,0.0,0.0,0.0,0.0,0.0,0.0,0.0,0.0,0.0,0.0,0.0,0.0,0.0,0.0,0.0,0.0,0.0,0.0,0.0,0.0,0.0,0.0,0.0,0.0,0.0,0.0,0.0,0.0,0.0,0.0,0.0,0.0,0.0,0.0,0.0,0.0,0.0,0.0,0.0,0.0,0.0,0.0,0.0,0.0,0.0,-1.3091,-1.4488,-1.5128,-1.4802,-1.2718,-1.1353,0.0,0.0,0.0,0.0,0.0,0.0,0.0,0.0,0.0,0.0,0.0,0.0,0.0,0.0,0.0,0.0,0.0,0.0,0.0,0.0,0.0,0.0,0.0,0.0,0.0,0.0,0.0,0.0,0.0,0.0,0.0,0.0,0.0,0.0,0.0,0.0,0.0,0.0,0.0,0.0,0.0,0.0,0.0,0.0,0.0,0.0,0.0,0.0,0.0,0.0,0.0,0.0,0.0,0.0,0.0,0.0,0.0,0.0,0.0,0.0,0.0,0.0,0.0,0.0,0.0,0.0,0.0,0.0,0.0,0.0,0.0,0.0,0.0,0.0,0.0,0.0,0.0,0.0,0.0,0.0,0.0,0.0,0.0,0.0,0.0,0.0,0.0,0.0,0.0,0.0,0.0,0.0,0.0,0.0,0.0,0.0,0.0,0.0,0.0,0.0,0.0,0.0,0.0,0.0,0.0,0.0,0.0,0.0,-1.4232,-1.4249,-1.5429,-1.6032,-1.6045,-1.4085,-1.2416,0.0,0.0,0.0,0.0,0.0,0.0,0.0,0.0,0.0,0.0,0.0,0.0,0.0,0.0,0.0,0.0,0.0,0.0,0.0,0.0,0.0,0.0,0.0,0.0,0.0,0.0,0.0,0.0,0.0,0.0,0.0,0.0,0.0,0.0,0.0,0.0,0.0,0.0,0.0,0.0,0.0,0.0,0.0,0.0,0.0,0.0,0.0,0.0,0.0,0.0,0.0,0.0,0.0,0.0,0.0,0.0,0.0,0.0,0.0,0.0,0.0,0.0,0.0,0.0,0.0,0.0,0.0,0.0,0.0,0.0,0.0,0.0,0.0,0.0,0.0,0.0,0.0,0.0,0.0,0.0,0.0,0.0,0.0,0.0,0.0,0.0,0.0,0.0,0.0,0.0,0.0,0.0,0.0,0.0,0.0,0.0,0.0,0.0,0.0,0.0,0.0,0.0,0.0,0.0,0.0,0.0,0.0,0.0,-1.4188,-1.5621,-1.6208,-1.6522,-1.6497,-1.5392,-1.3571,0.0,0.0,0.0,0.0,0.0,0.0,0.0,0.0,0.0,0.0,0.0,0.0,0.0,0.0,0.0,0.0,0.0,0.0,0.0,0.0,0.0,0.0,0.0,0.0,0.0,0.0,0.0,0.0,0.0,0.0,0.0,0.0,0.0,0.0,0.0,0.0,0.0,0.0,0.0,0.0,0.0,0.0,0.0,0.0,0.0,0.0,0.0,0.0,0.0,0.0,0.0,0.0,0.0,0.0,0.0,0.0,0.0,0.0,0.0,0.0,0.0,0.0,0.0,0.0,0.0,0.0,0.0,0.0,0.0,0.0,0.0,0.0,0.0,0.0,0.0,0.0,0.0,0.0,0.0,0.0,0.0,0.0,0.0,0.0,0.0,0.0,0.0,0.0,0.0,0.0,0.0,0.0,0.0,0.0,0.0,0.0,0.0,0.0,0.0,0.0,0.0,0.0,0.0,0.0,0.0,0.0,0.0,0.0,-1.5564,-1.5079,-1.6007,-1.6534,-1.6509,-1.5067,-1.3581,0.0,0.0,0.0,0.0,0.0,0.0,0.0,0.0,0.0,0.0,0.0,0.0,0.0,0.0,0.0,0.0,0.0,0.0,0.0,0.0,0.0,0.0,0.0,0.0,0.0,0.0,0.0,0.0,0.0,0.0,0.0,0.0,0.0,0.0,0.0,0.0,0.0,0.0,0.0,0.0,0.0,0.0,0.0,0.0,0.0,0.0,0.0,0.0,-0.665,0.0,0.0,0.0,0.0,0.0,0.0,0.0,0.0,0.0,0.0,0.0,0.0,0.0,0.0,0.0,0.0,0.0,0.0,0.0,0.0,0.0,0.0,0.0,0.0,0.0,0.0,0.0,0.0,0.0,0.0,0.0,0.0,0.0,0.0,0.0,0.0,0.0,0.0,0.0,0.0,0.0,0.0,0.0,0.0,0.0,0.0,0.0,0.0,0.0,0.0,0.0,0.0,0.0,0.0,0.0,0.0,0.0,0.0,0.0,-1.6211,-1.5683,-1.6208,-1.6534,-1.6484,-1.5404,-1.4097,0.0,0.0,0.0,0.0,0.0,0.0,0.0,0.0,0.0,0.0,0.0,0.0,0.0,0.0,0.0,0.0,0.0,0.0,0.0,0.0,0.0,0.0,0.0,0.0,0.0,0.0,0.0,0.0,0.0,0.0,0.0,0.0,0.0,0.0,0.0,0.0,0.0,0.0,0.0,0.0,0.0,0.0,0.0,0.0,0.0,0.0,0.0,0.0,0.0,0.0,0.0,0.0,0.0,0.0,0.0,0.0,0.0,0.0,0.0,0.0,0.0,0.0,0.0,0.0,0.0,0.0,0.0,0.0,0.0,0.0,0.0,0.0,0.0,0.0,0.0,0.0,0.0,0.0,0.0,0.0,0.0,0.0,0.0,0.0,0.0,0.0,0.0,0.0,0.0,0.0,0.0,0.0,0.0,0.0,0.0,0.0,0.0,0.0,0.0,0.0,0.0,0.0,0.0,0.0,0.0,0.0,0.0,-1.4923,-1.6527,-1.6514,-1.6534,-1.6534,-1.6509,-1.5982,-1.4664,-1.2472,0.0,0.0,0.0,0.0,0.0,0.0,0.0,0.0,0.0,0.0,0.0,0.0,0.0,0.0,0.0,0.0,0.0,0.0,0.0,0.0,0.0,0.0,0.0,0.0,0.0,0.0,0.0,0.0,0.0,0.0,0.0,0.0,0.0,0.0,0.0,0.0,0.0,0.0,-0.6006,-0.7063,0.0,0.0,0.0,0.0,0.0,0.0,0.0,0.0,-0.7627,0.0,0.0,0.0,0.0,0.0,0.0,0.0,0.0,0.0,0.0,0.0,0.0,0.0,0.0,0.0,0.0,0.0,0.0,0.0,0.0,0.0,0.0,0.0,0.0,0.0,0.0,0.0,0.0,0.0,0.0,0.0,0.0,0.0,0.0,0.0,0.0,0.0,0.0,0.0,0.0,0.0,0.0,0.0,0.0,0.0,0.0,0.0,0.0,0.0,0.0,0.0,0.0,0.0,0.0,0.0,0.0,-1.2885,-1.5277,-1.6515,-1.6527,-1.6534,-1.6534,-1.6509,-1.5982,-1.4664,-1.2529,0.0,0.0,0.0,0.0,0.0,0.0,0.0,0.0,0.0,0.0,0.0,0.0,0.0,0.0,0.0,0.0,0.0,0.0,0.0,0.0,0.0,0.0,0.0,0.0,0.0,0.0,0.0,0.0,0.0,0.0,0.0,0.0,0.0,0.0,0.0,0.0,0.0,0.0,0.0,-0.791,-0.8428,0.0,0.0,0.0,0.0,0.0,0.0,0.0,0.0,-0.7919,0.0,0.0,0.0,0.0,0.0,0.0,0.0,0.0,0.0,0.0,0.0,0.0,0.0,0.0,0.0,0.0,0.0,0.0,0.0,0.0,0.0,0.0,0.0,0.0,0.0,0.0,0.0,0.0,0.0,0.0,0.0,0.0,0.0,0.0,0.0,0.0,0.0,0.0,0.0,0.0,0.0,0.0,0.0,0.0,0.0,0.0,0.0,0.0,0.0,0.0,0.0,0.0,0.0,0.0,0.0,-1.2271,-1.5087,-1.653,-1.6527,-1.6534,-1.6534,-1.6497,-1.5429,-1.4074,0.0,0.0,0.0,0.0,0.0,0.0,0.0,0.0,0.0,0.0,0.0,0.0,0.0,0.0,0.0,0.0,0.0,0.0,0.0,0.0,0.0,0.0,0.0,0.0,0.0,0.0,0.0,0.0,0.0,0.0,0.0,0.0,0.0,0.0,0.0,0.0,0.0,0.0,0.0,0.0,-0.8276,-0.9075,-0.9235,0.0,0.0,0.0,0.0,0.0,0.0,-0.9077,-0.867,0.0,0.0,0.0,0.0,0.0,0.0,0.0,0.0,0.0,0.0,0.0,0.0,0.0,0.0,0.0,0.0,0.0,0.0,0.0,0.0,0.0,0.0,0.0,0.0,0.0,0.0,0.0,0.0,0.0,0.0,0.0,0.0,0.0,0.0,0.0,0.0,0.0,0.0,0.0,0.0,0.0,0.0,0.0,0.0,0.0,0.0,0.0,0.0,0.0,0.0,0.0,0.0,0.0,0.0,0.0,-1.1588,-1.484,-1.6507,-1.6527,-1.6534,-1.6534,-1.6497,-1.5067,-1.3644,0.0,0.0,0.0,0.0,0.0,0.0,0.0,0.0,0.0,0.0,0.0,0.0,0.0,0.0,0.0,0.0,0.0,0.0,0.0,0.0,0.0,0.0,0.0,0.0,0.0,0.0,0.0,0.0,0.0,0.0,0.0,0.0,0.0,0.0,0.0,0.0,0.0,0.0,0.0,0.0,0.0,-0.9762,-0.964,-1.0084,0.0,0.0,0.0,0.0,-1.0,-0.9904,0.0,0.0,0.0,0.0,0.0,0.0,0.0,0.0,0.0,0.0,0.0,0.0,0.0,0.0,0.0,0.0,0.0,0.0,0.0,0.0,0.0,0.0,0.0,0.0,0.0,0.0,0.0,0.0,0.0,0.0,0.0,0.0,0.0,0.0,0.0,0.0,0.0,0.0,0.0,0.0,0.0,0.0,0.0,0.0,0.0,0.0,0.0,0.0,0.0,0.0,0.0,0.0,0.0,0.0,0.0,0.0,-1.158,-1.4855,-1.6504,-1.6489,-1.6534,-1.6534,-1.6509,-1.5392,-1.3846,0.0,0.0,0.0,0.0,0.0,0.0,0.0,0.0,0.0,0.0,0.0,0.0,0.0,0.0,0.0,0.0,0.0,0.0,0.0,0.0,0.0,0.0,0.0,0.0,0.0,0.0,0.0,0.0,0.0,0.0,0.0,0.0,0.0,0.0,0.0,0.0,0.0,0.0,0.0,0.0,0.0,-1.0378,-1.008,-1.0501,-1.082,0.0,0.0,-1.0898,-1.1322,-1.1016,0.0,0.0,0.0,0.0,0.0,0.0,0.0,0.0,0.0,0.0,0.0,0.0,0.0,0.0,0.0,0.0,0.0,0.0,0.0,0.0,0.0,0.0,0.0,0.0,0.0,0.0,0.0,0.0,0.0,0.0,0.0,0.0,0.0,0.0,0.0,0.0,0.0,0.0,0.0,0.0,0.0,0.0,0.0,0.0,0.0,0.0,0.0,0.0,0.0,0.0,0.0,0.0,0.0,0.0,0.0,-0.826,-1.1575,-1.482,-1.6518,-1.6527,-1.6534,-1.6534,-1.6522,-1.4852,-1.3207,0.0,0.0,0.0,0.0,0.0,0.0,0.0,0.0,0.0,0.0,0.0,0.0,0.0,0.0,0.0,0.0,0.0,0.0,0.0,0.0,0.0,0.0,0.0,0.0,0.0,0.0,0.0,0.0,0.0,0.0,0.0,0.0,0.0,0.0,0.0,0.0,0.0,0.0,0.0,0.0,0.0,0.0,-1.0776,-1.0947,0.0,0.0,0.0,-1.1205,-1.1562,0.0,0.0,0.0,0.0,0.0,0.0,0.0,0.0,0.0,0.0,0.0,0.0,0.0,0.0,0.0,0.0,0.0,0.0,0.0,0.0,0.0,0.0,0.0,0.0,0.0,0.0,0.0,0.0,0.0,0.0,0.0,0.0,0.0,0.0,0.0,0.0,0.0,0.0,0.0,0.0,0.0,0.0,0.0,0.0,0.0,0.0,0.0,0.0,0.0,0.0,0.0,0.0,0.0,0.0,0.0,0.0,0.0,-1.1558,-1.4817,-1.6519,-1.6497,-1.6534,-1.6403,-1.6283,-1.4576,0.0,0.0,0.0,0.0,0.0,0.0,0.0,0.0,0.0,0.0,0.0,0.0,0.0,0.0,0.0,0.0,0.0,0.0,0.0,0.0,0.0,0.0,0.0,0.0,0.0,0.0,0.0,-0.3725,0.0,0.0,0.0,0.0,0.0,0.0,0.0,0.0,0.0,0.0,0.0,0.0,0.0,0.0,-1.0205,-1.1062,-1.1128,-1.1286,0.0,0.0,-1.1187,-1.136,-1.1239,-1.0606,0.0,0.0,0.0,0.0,0.0,0.0,0.0,0.0,0.0,0.0,0.0,0.0,0.0,0.0,0.0,0.0,0.0,0.0,0.0,0.0,0.0,0.0,0.0,0.0,0.0,0.0,0.0,0.0,0.0,0.0,0.0,0.0,0.0,0.0,0.0,0.0,0.0,0.0,0.0,0.0,0.0,0.0,0.0,0.0,0.0,0.0,0.0,0.0,0.0,0.0,0.0,0.0,0.0,0.0,0.0,-1.157,-1.4804,-1.6519,-1.6497,-1.6534,-1.6271,-1.5756,-1.5116,-1.3509,0.0,0.0,0.0,0.0,0.0,0.0,0.0,0.0,0.0,0.0,0.0,0.0,0.0,0.0,0.0,0.0,0.0,0.0,0.0,0.0,0.0,0.0,0.0,0.0,0.0,0.0,0.0,0.0,0.0,0.0,0.0,0.0,0.0,0.0,0.0,0.0,0.0,0.0,0.0,0.0,0.0,-0.9713,-1.0373,-1.0664,-1.083,0.0,0.0,-1.0814,-1.0847,-1.0864,-1.0457,-0.9264,0.0,0.0,0.0,0.0,0.0,0.0,0.0,0.0,0.0,0.0,0.0,0.0,0.0,0.0,0.0,0.0,0.0,0.0,0.0,0.0,0.0,0.0,0.0,0.0,0.0,0.0,0.0,0.0,0.0,0.0,0.0,0.0,0.0,0.0,0.0,0.0,0.0,0.0,0.0,0.0,0.0,0.0,0.0,0.0,0.0,0.0,0.0,0.0,0.0,0.0,0.0,0.0,0.0,-0.8247,-1.1575,-1.4817,-1.6519,-1.6497,-1.6534,-1.6409,-1.6208,-1.5381,-1.3898,0.0,0.0,0.0,0.0,0.0,0.0,0.0,0.0,0.0,0.0,0.0,0.0,0.0,0.0,0.0,0.0,0.0,0.0,0.0,0.0,0.0,0.0,0.0,0.0,0.0,0.0,0.0,0.0,-0.4069,-0.3769,-0.3675,0.0,0.0,0.0,0.0,0.0,0.0,0.0,0.0,0.0,0.0,-1.0152,-1.1497,-1.1574,0.0,0.0,-1.1758,-1.1399,-1.1132,-1.074,-1.0205,-0.9407,-0.8962,0.0,0.0,0.0,0.0,0.0,0.0,0.0,0.0,0.0,0.0,0.0,0.0,0.0,0.0,0.0,0.0,0.0,0.0,0.0,0.0,0.0,0.0,0.0,0.0,0.0,0.0,0.0,0.0,0.0,0.0,0.0,0.0,0.0,0.0,0.0,0.0,0.0,0.0,0.0,0.0,0.0,0.0,0.0,0.0,0.0,0.0,0.0,0.0,0.0,0.0,0.0,0.0,-0.8322,-1.1814,-1.4908,-1.6519,-1.6509,-1.6534,-1.6403,-1.6258,-1.5367,-1.4099,0.0,0.0,0.0,0.0,0.0,0.0,0.0,0.0,0.0,0.0,0.0,0.0,0.0,0.0,0.0,0.0,0.0,0.0,0.0,0.0,0.0,0.0,0.0,0.0,0.0,0.0,0.0,0.0,-0.4109,-0.3703,-0.3527,0.0,0.0,0.0,0.0,0.0,0.0,0.0,0.0,0.0,0.0,-1.0038,-1.1598,-1.168,-1.1679,-1.1911,-1.1709,-1.1264,-1.0763,-1.0253,-0.9771,-0.9198,0.0,0.0,0.0,0.0,0.0,0.0,0.0,0.0,0.0,0.0,0.0,0.0,0.0,0.0,0.0,0.0,0.0,0.0,0.0,0.0,0.0,0.0,0.0,0.0,0.0,0.0,0.0,0.0,0.0,0.0,-0.7899,0.0,0.0,0.0,0.0,0.0,0.0,0.0,0.0,0.0,0.0,0.0,0.0,0.0,0.0,0.0,0.0,0.0,0.0,0.0,0.0,0.0,0.0,-0.8551,-1.2334,-1.5105,-1.6519,-1.6497,-1.6534,-1.6258,-1.5756,-1.5205,-1.4135,-1.2429,0.0,0.0,0.0,0.0,0.0,0.0,0.0,0.0,0.0,0.0,0.0,0.0,0.0,0.0,0.0,0.0,0.0,0.0,0.0,0.0,0.0,0.0,0.0,0.0,0.0,0.0,-0.4354,-0.3828,-0.3527,0.0,0.0,0.0,0.0,0.0,0.0,0.0,0.0,0.0,0.0,-0.8876,-0.9231,-1.0285,-1.0703,-1.083,-1.0034,-1.0282,-1.029,-0.9473,-0.9307,-0.9038,0.0,0.0,0.0,0.0,0.0,0.0,0.0,0.0,0.0,0.0,0.0,0.0,0.0,0.0,0.0,0.0,0.0,0.0,0.0,0.0,0.0,0.0,0.0,0.0,0.0,0.0,0.0,-0.8615,-0.9665,0.0,0.0,0.0,0.0,0.0,0.0,0.0,0.0,0.0,0.0,0.0,-1.4058,-1.4024,0.0,0.0,0.0,0.0,0.0,0.0,0.0,0.0,0.0,0.0,0.0,0.0,-1.0476,-1.2429,-1.5117,-1.6496,-1.6509,-1.6534,-1.6421,-1.6233,-1.5354,-1.3923,-1.1927,0.0,0.0,0.0,0.0,0.0,0.0,0.0,0.0,0.0,0.0,0.0,0.0,0.0,0.0,0.0,0.0,0.0,0.0,0.0,0.0,0.0,0.0,0.0,0.0,0.0,-0.4794,0.0,0.0,0.0,0.0,0.0,0.0,0.0,0.0,0.0,0.0,0.0,-0.8159,-0.8753,-0.9767,-1.0781,-1.1695,-1.258,-1.2982,0.0,0.0,0.0,0.0,0.0,0.0,0.0,0.0,0.0,0.0,0.0,0.0,0.0,0.0,-0.9708,-0.8167,-0.7849,-0.7836,-0.8036,0.0,0.0,0.0,0.0,0.0,0.0,0.0,0.0,0.0,0.0,0.0,0.0,0.0,0.0,-1.0657,0.0,-1.0498,0.0,0.0,0.0,0.0,0.0,0.0,0.0,0.0,-1.5109,-1.5876,-1.6041,-1.5973,-1.6122,0.0,-1.4676,-1.2793,0.0,0.0,0.0,0.0,0.0,0.0,0.0,0.0,-1.1565,-1.27,-1.5223,-1.653,-1.6509,-1.6534,-1.6534,-1.6509,-1.5442,-1.3959,-1.1939,-1.0985,-0.9981,0.0,0.0,0.0,0.0,0.0,0.0,0.0,0.0,0.0,0.0,0.0,0.0,0.0,0.0,0.0,0.0,0.0,0.0,0.0,0.0,0.0,0.0,0.0,-0.4679,0.0,0.0,0.0,0.0,0.0,0.0,0.0,0.0,0.0,-0.7217,-0.8248,-0.9158,-0.9672,-1.0653,-1.1554,-1.2281,0.0,0.0,0.0,0.0,0.0,0.0,0.0,-1.0107,-1.0007,-1.0154,-1.0321,-1.0408,-1.0822,-1.1109,-1.1015,0.0,0.0,-0.9292,-0.8918,-0.8905,-0.9098,-0.9205,-0.9292,-0.9399,-0.9566,-0.9646,0.0,0.0,0.0,0.0,0.0,0.0,0.0,0.0,-1.3908,-1.3878,0.0,-1.3929,0.0,0.0,0.0,0.0,0.0,0.0,0.0,0.0,-1.7675,-1.8082,-1.6768,-1.7607,-1.7571,-1.6565,-1.6519,-1.5671,-1.4109,-1.197,0.0,0.0,0.0,0.0,0.0,0.0,-1.1794,-1.3253,-1.5412,-1.6501,-1.6509,-1.6534,-1.6509,-1.6459,-1.5442,-1.416,-1.2554,-1.1914,-1.1098,-0.9993,-0.839,0.0,0.0,0.0,0.0,0.0,0.0,0.0,0.0,0.0,0.0,0.0,0.0,0.0,0.0,0.0,0.0,0.0,0.0,0.0,0.0,-0.4644,0.0,0.0,0.0,0.0,0.0,0.0,0.0,0.0,0.0,0.0,-0.8511,-0.9401,-1.0432,-1.132,0.0,0.0,0.0,0.0,-1.2402,-1.2546,-1.2409,-1.233,-1.2387,-1.1623,-1.0889,-1.0628,0.0,0.0,-1.1082,-1.1269,-1.1376,-1.1096,-1.1303,-1.1356,-1.1035,-1.0695,-1.0534,-1.0541,-1.0327,-1.0267,-1.0501,-1.0541,-1.0624,-1.6909,0.0,0.0,0.0,0.0,-1.5577,-1.6219,-1.7264,-1.6792,-1.6304,-1.5964,-1.7387,0.0,0.0,0.0,0.0,0.0,0.0,-1.6481,-1.7001,-1.8199,-1.8782,-1.8755,-1.8316,-1.7932,-1.7611,-1.7272,-1.6816,-1.6349,-1.5343,-1.3667,-1.1362,0.0,0.0,0.0,0.0,-1.3456,-1.4048,-1.5652,-1.6506,-1.6509,-1.6534,-1.6321,-1.5932,-1.5241,-1.45,-1.3644,-1.2667,-1.1839,-1.1123,-0.9893,0.0,0.0,0.0,0.0,0.0,0.0,0.0,0.0,0.0,0.0,0.0,0.0,0.0,0.0,0.0,0.0,0.0,0.0,0.0,-0.5566,-0.5288,-0.5453,0.0,0.0,0.0,0.0,0.0,0.0,0.0,0.0,0.0,-1.001,-1.0746,-1.1368,0.0,0.0,-1.2739,-1.3905,-1.4259,-1.4435,-1.4444,0.0,0.0,0.0,-1.1713,-1.1035,-1.1156,-1.1496,-1.1784,-1.1904,-1.1991,-1.2017,-1.1931,-1.1997,-1.1937,-1.1583,-1.1336,-1.1182,-1.1169,-1.1102,-1.1076,-1.1156,-1.1176,-1.1176,-1.9647,-1.8275,-1.7501,-1.7317,-1.7503,-1.7772,-1.8358,-1.9076,-1.8663,-1.8248,-1.7939,-1.916,-1.8084,-1.5308,-1.5069,0.0,0.0,0.0,-1.7847,-1.8538,-1.8912,-1.9292,-1.9625,-1.8817,-1.8288,-1.8066,-1.7544,-1.7422,-1.7626,-1.6875,-1.5517,-1.3573,0.0,0.0,-1.2952,-1.3909,-1.4437,-1.4587,-1.5857,-1.6534,-1.6534,-1.6534,-1.6145,-1.5392,-1.5079,-1.4551,-1.3795,-1.3082,-1.2479,-1.1927,-1.0834,-0.9317,0.0,0.0,0.0,0.0,0.0,0.0,0.0,0.0,0.0,0.0,0.0,-0.4911,0.0,0.0,0.0,0.0,-0.5789,-0.6129,-0.6783,-0.6742,0.0,0.0,0.0,0.0,0.0,0.0,0.0,-1.0035,-1.1367,-1.2236,-1.2071,-1.2531,-1.2737,-1.2428,-1.2543,-1.3086,-1.4113,0.0,-1.4087,-1.443,-1.3878,-1.3355,-1.3093,-1.2248,-1.1577,-1.1744,-1.1917,-1.2084,-1.2265,-1.2305,-1.2305,-1.2305,-1.2305,-1.2231,-1.1991,-1.185,-1.171,-1.1577,-1.1577,-1.163,-1.1744,-1.1777,-1.1777,-2.1824,-2.1605,-1.9779,-1.9001,-1.9001,-1.9585,-1.9839,-1.9839,-1.9743,-1.9794,-1.9854,-1.9839,-1.9181,-1.8014,-1.7384,0.0,-1.8942,-1.8942,-1.9271,-1.9839,-1.9839,-1.9782,-1.9669,-1.9194,-1.8707,-1.821,-1.768,-1.7666,-1.8027,-1.7105,-1.6568,-1.6468,-1.503,-1.4513,-1.4966,-1.5029,-1.5035,-1.5049,-1.5989,-1.6534,-1.6534,-1.6534,-1.6007,-1.5016,-1.4941,-1.4387,-1.3323,-1.3223,-1.2947,-1.2384,-1.1345,-1.0084,-0.8597,0.0,0.0,0.0,0.0,0.0,0.0,0.0,0.0,0.0,0.0,0.0,0.0,0.0,0.0,0.0,-0.6982,0.0,-0.8398,-0.8656,0.0,0.0,0.0,-0.8629,-0.9283,-1.0368,-1.1099,-1.1259,0.0,0.0,-1.4279,0.0,-1.4316,-1.3576,-1.305,-1.296,-1.3423,-1.2917,-1.253,-1.3499,-1.2978,-1.2799,-1.3317,-1.2743,-1.2231,-1.2245,-1.2305,-1.2291,-1.2298,-1.2305,-1.2305,-1.2305,-1.2305,-1.2298,-1.2305,-1.2265,-1.2191,-1.183,-1.1844,-1.1977,-1.2198,-1.2251,-1.2251,-2.2802,-2.2398,-2.1959,-2.144,-2.1006,-2.1141,-2.1216,-2.1117,-2.0143,-2.0279,-2.1216,-2.1231,-2.1036,-2.0752,-2.0587,-2.0692,-2.0976,-2.0976,-2.1066,-2.1216,-2.1216,-2.0673,-1.9727,-1.9672,-1.9551,-1.931,-1.8765,-1.838,-1.8092,-1.7867,-1.7315,-1.6519,-1.6099,-1.5781,-1.553,-1.5919,-1.6115,-1.6118,-1.6378,-1.6534,-1.6534,-1.6534,-1.6195,-1.5517,-1.509,-1.4588,-1.3921,-1.3458,-1.2947,-1.2429,-1.1751,-1.1082,-1.0374,-0.8582,0.0,0.0,0.0,0.0,0.0,0.0,0.0,0.0,0.0,-0.7197,-0.5901,0.0,-0.8262,0.0,-0.8311,-0.877,-0.9287,-0.9653,0.0,0.0,-1.1149,-1.1567,-1.3234,-1.3485,-1.3346,-1.2923,-1.4504,-1.5123,-1.3744,-1.4391,-1.4961,-1.4757,-1.3986,-1.3862,-1.5078,-1.5403,-1.5303,-1.4749,-1.4466,-1.4099,-1.2879,-1.2445,-1.2305,-1.2305,-1.2305,-1.2305,-1.2305,-1.2305,-1.2305,-1.2305,-1.2305,-1.2305,-1.2311,-1.2305,-1.2285,-1.2184,-1.2184,-1.2211,-1.2285,-1.2311,-1.2311,-2.3565,-2.3086,-2.3086,-2.2877,-2.2517,-2.2248,-2.1964,-2.1665,-2.1099,-2.1183,-2.1695,-2.1695,-2.1695,-2.1695,-2.1695,-2.1695,-2.1695,-2.1695,-2.1695,-2.1695,-2.1695,-2.1302,-2.0611,-2.0671,-2.0333,-1.9679,-1.9459,-1.9142,-1.8793,-1.8341,-1.7801,-1.7229,-1.6993,-1.6599,-1.6095,-1.6371,-1.6534,-1.6534,-1.6534,-1.6534,-1.6534,-1.6534,-1.6145,-1.5367,-1.5279,-1.479,-1.3722,-1.3634,-1.3232,-1.2441,-1.1889,-1.1213,-1.0413,-0.9181,-0.8068,0.0,0.0,0.0,0.0,0.0,0.0,0.0,0.0,0.0,0.0,0.0,-0.9268,0.0,-0.9668,-1.0254,-1.1006,-1.1621,-1.2295,-1.2959,-1.2939,-1.3332,-1.4411,-1.4911,-1.5007,-1.4642,-1.593,-1.6455,-1.5566,-1.567,-1.579,-1.586,-1.5367,-1.4939,-1.4915,-1.5171,-1.5013,-1.4091,-1.3882,-1.3593,-1.2452,-1.2305,-1.2305,-1.2305,-1.2305,-1.2305,-1.2311,-1.2412,-1.2465,-1.2338,-1.2405,-1.2498,-1.2498,-1.2505,-1.2532,-1.2672,-1.2705,-1.2652,-1.2532,-1.2612,-1.2705,-2.4142,-2.3595,-2.3595,-2.3595,-2.3565,-2.3026,-2.2458,-2.1949,-2.232,-2.2265,-2.1934,-2.1934,-2.1934,-2.1934,-2.1934,-2.1934,-2.1934,-2.1934,-2.1949,-2.1949,-2.1949,-2.1959,-2.1929,-2.1884,-2.1272,-2.0247,-2.0152,-1.9996,-1.97,-1.8778,-1.8214,-1.7987,-1.7558,-1.7034,-1.6522,-1.6534,-1.6534,-1.6534,-1.6534,-1.6534,-1.6534,-1.6534,-1.6032,-1.5092,-1.5379,-1.489,-1.3398,-1.3833,-1.3607,-1.258,-1.2052,-1.1253,-1.0029,-0.955,-0.8906,0.0,-0.8075,0.0,0.0,0.0,0.0,0.0,0.0,0.0,0.0,-1.0068,-1.0117,-1.0616,-1.1091,-1.1895,-1.2939,-1.375,-1.4238,-1.4262,-1.4363,-1.451,-1.4638,-1.5615,-1.6266,-1.6169,-1.7273,-1.8008,-1.7706,-1.7139,-1.6784,-1.6784,-1.6715,-1.614,-1.4585,-1.4442,-1.4307,-1.2945,-1.2666,-1.2739,-1.2378,-1.2305,-1.2318,-1.2351,-1.2378,-1.2371,-1.2445,-1.2645,-1.2802,-1.2525,-1.2652,-1.2876,-1.2806,-1.2882,-1.2893,-1.3113,-1.32,-1.3146,-1.2906,-1.2986,-1.32,-2.4455,-2.3595,-2.3595,-2.3595,-2.3595,-2.3475,-2.3355,-2.3236,-2.3338,-2.3323,-2.3251,-2.3236,-2.3251,-2.3236,-2.3251,-2.3251,-2.3236,-2.3236,-2.3236,-2.3236,-2.3236,-2.3242,-2.3197,-2.2746,-2.2632,-2.2799,-2.1834,-2.0828,-1.987,-1.966,-1.8845,-1.7476,-1.7353,-1.7034,-1.6522,0.0,0.0,0.0,-1.6534,-1.6534,-1.6534,-1.6534,-1.6208,-1.5555,-1.5243,0.0,-1.3984,-1.4022,-1.3795,-1.3085,-1.2947,0.0,0.0,0.0,0.0,0.0,0.0,0.0,0.0,0.0,0.0,0.0,-1.043,-1.0391,-1.0322,-1.1055,-1.1797,-1.2344,-1.291,-1.3367,-1.3857,-1.4355,-1.4805,-1.5146,-1.5507,-1.6017,-1.6712,-1.7031,-1.7007,-1.656,-1.7375,-1.7716,-1.707,-1.7354,-1.7716,-1.7647,-1.7725,-1.7285,-1.6228,-1.6594,-1.6724,-1.593,-1.4299,-1.3171,-1.2372,-1.2311,-1.2405,-1.2579,-1.2741,-1.2752,-1.2966,-1.306,-1.312,-1.3019,-1.308,-1.3126,-1.3126,-1.312,-1.3146,-1.32,-1.34,-1.3474,-1.3186,-1.3173,-1.3206,-2.5144,0.0,-2.4116,-2.3991,0.0,-2.3709,-2.3595,-2.3595,-2.3595,-2.3595,-2.3595,-2.3595,-2.3595,-2.3595,-2.3595,-2.3595,-2.3595,-2.3595,-2.3595,-2.3595,-2.3595,-2.3606,-2.3571,-2.3305,-2.3296,-2.3575,-2.2662,-2.1709,-2.0818,-2.0455,-1.9581,-1.8221,-1.7842,-1.7312,-1.6522,-1.6534,-1.6534,-1.6534,-1.6534,-1.6534,-1.6534,-1.6534,-1.6258,-1.5718,0.0,0.0,0.0,0.0,0.0,0.0,0.0,0.0,0.0,0.0,0.0,-1.0594,-1.0294,-1.0081,-1.0008,-1.0557,-1.1062,-1.1523,-1.1758,-1.1797,-1.1626,-1.2363,-1.3037,-1.3477,-1.4141,-1.4531,-1.4482,-1.5039,-1.5498,-1.5732,-1.6328,-1.6914,-1.7314,-1.7568,-1.7552,-1.7385,-1.7716,-1.7794,-1.7354,-1.7647,-1.8008,-1.8027,-1.8193,-1.8093,-1.7637,-1.7408,-1.7001,-1.6009,-1.4728,-1.36,-1.3039,-1.2662,-1.2559,-1.2802,-1.2872,-1.3026,-1.318,-1.3327,-1.3387,-1.3267,-1.332,-1.342,-1.342,-1.3427,-1.3467,-1.3614,-1.3754,-1.3821,-1.3674,-1.3641,-1.3647,-2.5884,-2.532,-2.4664,-2.4405,-2.4348,-2.3852,-2.3595,-2.3595,0.0,0.0,0.0,-2.3595,-2.3595,-2.3595,-2.3595,-2.3595,-2.3595,-2.3595,-2.3595,-2.3595,-2.3595,-2.3595,-2.3595,-2.3595,-2.3603,-2.3561,-2.3092,-2.2503,-2.1874,-2.1321,-2.0367,-1.9141,-1.8547,-1.7692,-1.6565,-1.6534,-1.6534,-1.6534,-1.6534,-1.6534,-1.6534,-1.6534,-1.6296,-1.5856,-1.6183,-1.5944,-1.5104,-1.5454,-1.5279,-1.4437,-1.4374,-1.3974,-1.3064,-1.2788,-1.2484,-1.1946,-1.1884,-1.1802,-1.1734,-1.209,-1.2344,-1.2344,-1.2676,-1.291,-1.2978,-1.3535,-1.3984,-1.4175,-1.4961,-1.5293,-1.5039,-1.5684,-1.6194,-1.6341,-1.6943,-1.7393,-1.75,-1.7793,-1.7998,-1.8008,-1.8008,-1.8008,-1.794,-1.8008,-1.8008,-1.8057,-1.835,-1.8682,-1.855,-1.7896,-1.6926,-1.5707,-1.4871,-1.4094,-1.3608,-1.3188,-1.2916,-1.3024,-1.314,-1.3293,-1.3387,-1.3561,-1.3607,-1.346,-1.3574,-1.3694,-1.3721,-1.3728,-1.3808,-1.4041,-1.4088,-1.4088,-1.4088,-1.4082,-1.4055,-2.6635,-2.6046,-2.4883,-2.4405,-2.4333,-2.3837,-2.3595,-2.3595,-2.3595,-2.3595,-2.3595,-2.3595,-2.3595,-2.3595,-2.3595,-2.3595,-2.3595,-2.3595,-2.3595,0.0,-2.3595,-2.3595,-2.3595,-2.3595,-2.358,-2.3578,-2.3533,-2.3146,-2.2634,-2.2428,-2.1298,-1.9321,-1.9003,-1.8123,-1.6645,-1.6534,-1.6534,-1.6534,-1.6534,-1.6534,-1.6534,-1.6534,-1.6441,-1.6396,-1.6019,-1.5756,-1.5593,-1.5655,-1.5618,-1.548,-1.5454,-1.5374,-1.5228,-1.4333,-1.3587,-1.3023,-1.2925,-1.2679,-1.2175,-1.2549,-1.2783,-1.2793,-1.2842,-1.3027,-1.3408,-1.4053,-1.4512,-1.4687,-1.5137,-1.5557,-1.584,-1.6056,-1.6439,-1.7051,-1.7295,-1.7519,-1.7852,-1.7949,-1.8008,-1.8008,-1.8008,-1.8008,-1.8008,-1.8008,-1.8018,-1.8076,-1.8486,-1.8809,-1.9141,-1.9078,-1.8118,-1.6595,-1.592,-1.5103,-1.3775,-1.3257,-1.3227,-1.348,-1.3527,-1.3661,-1.3854,-1.3935,-1.3961,-1.3955,-1.3955,-1.3995,-1.4001,-1.4028,-1.4028,-1.4088,-1.4088,-1.4088,-1.4088,-1.4088,-1.4088,-2.7977,-2.758,-2.607,-2.544,-2.5327,-2.4116,-2.3595,-2.3595,-2.3595,-2.3595,-2.3595,-2.3595,-2.3595,-2.3595,-2.3595,-2.3595,-2.3595,-2.3595,-2.3595,-2.3595,-2.3595,-2.3595,-2.3595,-2.3595,-2.3595,-2.3595,-2.3595,-2.346,-2.3176,-2.2847,-2.1825,-2.0071,-1.8819,-1.7605,-1.6602,-1.6534,-1.6534,-1.6534,-1.6534,-1.6534,-1.6534,-1.6534,-1.6534,-1.6522,-1.6258,-1.6145,-1.6132,-1.6132,-1.6145,-1.6145,-1.6132,-1.5964,-1.5673,-1.5175,-1.4662,-1.4069,-1.3691,-1.3361,-1.3103,-1.2936,-1.2978,-1.3203,-1.3223,-1.3506,-1.4141,-1.4277,-1.4551,-1.5059,-1.5312,-1.5586,-1.6086,-1.6279,-1.668,-1.7314,-1.7578,-1.7793,-1.7969,-1.8008,-1.8008,-1.8008,-1.8008,-1.8008,-1.8008,-1.8008,-1.8115,-1.833,-1.8877,-1.9463,-1.9893,-1.9421,-1.8626,-1.7255,-1.6084,-1.5096,-1.4059,-1.3659,-1.3487,-1.3627,-1.3781,-1.3921,-1.4075,-1.4088,-1.4088,-1.4088,-1.4088,-1.4088,-1.4088,-1.4088,-1.4088,-1.4088,-1.4088,-1.4088,-1.4088,-1.4088,-1.4088,-2.9245,-2.9087,-2.7264,-2.6397,-2.6005,-2.4481,-2.3909,-2.4029,-2.3744,-2.3684,-2.3804,-2.367,-2.3595,-2.3595,-2.3595,-2.3595,-2.3595,-2.3595,-2.3595,-2.3595,-2.3595,-2.3595,-2.3595,-2.3595,-2.3595,-2.3595,-2.3595,-2.3595,-2.3535,-2.3116,-2.2206,-2.0789,-1.8565,-1.7162,-1.671,-1.6584,-1.6534,-1.6534,-1.6534,-1.6534,-1.6534,-1.6534,-1.6534,-1.6534,-1.6522,-1.6534,-1.6534,-1.6534,-1.6534,-1.6534,-1.6534,-1.6293,-1.582,-1.582,-1.5454,-1.4789,-1.4226,-1.3862,-1.36,-1.32,-1.3057,-1.3467,-1.3506,-1.3867,-1.4619,-1.4453,-1.4561,-1.5264,-1.541,-1.5625,-1.6152,-1.6514,-1.6943,-1.7461,-1.7803,-1.7978,-1.8008,-1.8008,-1.8008,-1.8008,-1.8008,-1.8008,-1.8018,-1.8096,-1.8379,-1.8926,-1.9512,-1.9983,-2.0062,-1.9283,-1.8276,-1.7252,-1.5872,-1.4821,-1.4569,-1.4054,-1.3728,-1.3741,-1.3921,-1.4041,-1.4088,-1.4088,-1.4088,-1.4088,-1.4088,-1.4088,-1.4088,-1.4088,-1.4088,-1.4088,-1.4088,-1.4088,-1.4088,-1.4088,-1.4088,-3.0006,-2.9719,-2.7957,-2.6604,-2.5636,-2.4852,-2.4837,-2.5166,-2.4148,-2.3954,-2.4373,-2.3879,-2.3595,-2.3595,-2.3595,-2.3595,-2.3595,-2.3595,-2.3595,-2.3595,-2.3595,-2.3595,-2.3595,-2.3595,-2.3595,-2.3595,-2.3595,-2.3595,-2.3595,-2.3477,-2.2615,-2.0816,-1.8578,-1.7375,-1.7237,-1.6785,-1.6491,-1.6534,-1.6534,-1.6534,-1.6534,-1.6534,-1.6534,-1.6534,-1.6534,-1.6534,-1.6534,-1.6534,-1.6534,-1.6534,-1.6534,-1.6466,-1.6436,-1.6423,-1.5876,-1.4835,-1.4652,-1.4165,-1.3152,-1.2929,-1.3076,-1.3447,-1.3545,-1.3916,-1.4697,-1.4639,-1.4766,-1.5283,-1.542,-1.5811,-1.6543,-1.6728,-1.708,-1.7793,-1.7959,-1.8008,-1.8008,-1.8008,-1.8008,-1.8008,-1.8008,-1.8008,-1.8047,-1.834,-1.8887,-1.9561,-1.9834,-1.9803,-1.927,-1.839,-1.7245,-1.632,-1.5591,-1.5173,-1.4441,-1.4085,-1.4001,-1.4021,-1.4055,-1.4088,-1.4088,-1.4088,-1.4088,-1.4088,-1.4088,-1.4088,-1.4088,-1.4088,-1.4088,-1.4088,-1.4088,-1.4088,-1.4088,-1.4088,-1.4088,-3.0538,-3.0061,-2.8605,-2.7029,-2.5678,-2.5315,-2.5136,-2.4971,-2.4837,-2.4506,-2.3999,-2.3714,-2.3595,-2.3595,-2.3595,-2.3595,-2.3595,-2.3595,-2.3595,-2.3595,-2.3595,-2.3595,-2.3595,-2.3595,-2.3595,-2.3595,-2.3595,-2.3595,-2.345,-2.2831,-2.1928,-2.0836,-1.9183,-1.8028,-1.7413,-1.6821,-1.6516,-1.6491,-1.6534,-1.6534,-1.6534,-1.6534,-1.6534,-1.6534,-1.6534,-1.6534,-1.6534,-1.6534,-1.6534,-1.6534,-1.6534,-1.6534,-1.6534,-1.6534,-1.6293,-1.5744,-1.5062,-1.4154,-1.2978,-1.3105,-1.3437,-1.3795,-1.4121,-1.4531,-1.5078,-1.5098,-1.5176,-1.5391,-1.5723,-1.6162,-1.6607,-1.6963,-1.7373,-1.7881,-1.8008,-1.8008,-1.8008,-1.8008,-1.8008,-1.8008,-1.8008,-1.8008,-1.8105,-1.8603,-1.9228,-1.9834,-2.0107,-1.9975,-1.9107,-1.8069,-1.6927,-1.5869,-1.5213,-1.4657,-1.4166,-1.4088,-1.4088,-1.4088,-1.4088,-1.4088,-1.4088,-1.4088,-1.4088,-1.4088,-1.4088,-1.4088,-1.4088,-1.4088,-1.4088,-1.4088,-1.4088,-1.4088,-1.4088,-1.4088,-1.4088,-3.0958,-3.0394,-2.9211,-2.7701,-2.6186,-2.5944,-2.5615,-2.5105,-2.5107,-2.4627,-2.3909,-2.3672,-2.3583,-2.3595,-2.3595,-2.3595,-2.3595,-2.3595,-2.3595,-2.3595,-2.3595,-2.3595,-2.3595,-2.3595,-2.3595,-2.3595,-2.3595,-2.3595,-2.345,-2.2515,-2.169,-2.1024,-1.9874,-1.8735,-1.7664,-1.6876,-1.6495,-1.6516,-1.6534,-1.6534,-1.6534,-1.6534,-1.6534,-1.6534,-1.6534,-1.6534,-1.6534,-1.6534,-1.6534,-1.6534,-1.6534,-1.6534,-1.6534,-1.6534,-1.638,-1.6107,-1.5107,-1.4031,-1.3135,-1.333,-1.374,-1.4204,-1.4619,-1.4961,-1.5303,-1.542,-1.5478,-1.5635,-1.6152,-1.6602,-1.6728,-1.7129,-1.7549,-1.7939,-1.8008,-1.8008,-1.8008,-1.8008,-1.8008,-1.8008,-1.8008,-1.8125,-1.8389,-1.8906,-1.9453,-2.0019,-2.0361,-2.0001,-1.8798,-1.7747,-1.6846,-1.5545,-1.4573,-1.4166,-1.4088,-1.4088,-1.4088,-1.4088,-1.4088,-1.4088,-1.4088,-1.4088,-1.4088,-1.4088,-1.4088,-1.4088,-1.4088,-1.4088,-1.4088,-1.4088,-1.4088,-1.4088,-1.4088,-1.4088,-1.4088,-3.119,-3.0975,-2.9859,-2.8545,-2.7475,-2.6811,-2.6527,-2.6225,-2.4593,-2.4022,-2.4388,-2.3881,-2.3585,-2.3595,-2.3595,-2.3595,-2.3595,-2.3595,-2.3595,-2.3595,-2.3595,-2.3595,-2.3595,-2.3595,-2.3595,-2.3595,-2.3595,-2.3595,-2.3566,-2.2965,-2.2285,-2.1627,-2.0502,-1.9357,-1.8188,-1.7131,-1.652,-1.6579,-1.6547,-1.6534,-1.6534,-1.6534,-1.6534,-1.6534,-1.6534,-1.6534,-1.6534,-1.6534,-1.6534,-1.6534,-1.6534,-1.6534,-1.6534,-1.6534,-1.6207,-1.5492,-1.4501,-1.3796,-1.355,-1.3545,-1.3896,-1.459,-1.4785,-1.4971,-1.5361,-1.542,-1.5576,-1.5986,-1.6592,-1.687,-1.6782,-1.7197,-1.7588,-1.7939,-1.8008,-1.8008,-1.8008,-1.8008,-1.8008,-1.8018,-1.8047,-1.8359,-1.9072,-1.9248,-1.9697,-2.0254,-2.0547,-1.9835,-1.8069,-1.7342,-1.6445,-1.4985,-1.4166,-1.4088,-1.4088,-1.4088,-1.4088,-1.4088,-1.4088,-1.4088,-1.4088,-1.4088,-1.4088,-1.4088,-1.4088,-1.4088,-1.4088,-1.4088,-1.4088,-1.4088,-1.4088,-1.4088,-1.4088,-1.4088,-1.4088,-3.0757,-2.9995,-2.918,-2.8367,-2.7595,-2.7305,-2.6991,-2.6512,-2.5411,-2.4726,-2.4507,-2.3896,-2.3612,-2.3595,-2.3595,-2.3595,-2.3595,-2.3595,-2.3595,-2.3595,-2.3595,-2.3595,-2.3595,-2.3595,-2.3595,-2.3595,-2.3595,-2.3595,-2.3508,-2.3009,-2.2346,-2.1683,-2.0912,-1.9937,-1.8803,-1.7962,-1.7414,-1.7087,-1.6722,-1.6534,-1.6534,-1.6534,-1.6534,-1.6534,-1.6534,-1.6534,-1.6534,-1.6534,-1.6534,-1.6534,-1.6534,-1.6534,-1.6534,-1.6534,-1.6729,-1.6934,-1.5622,-1.4703,-1.4604,-1.4417,-1.4443,-1.4746,-1.5039,-1.5225,-1.5381,-1.542,-1.5586,-1.6055,-1.6543,-1.6894,-1.7197,-1.7529,-1.7842,-1.7969,-1.8008,-1.8008,-1.8008,-1.8008,-1.8008,-1.8047,-1.8223,-1.8662,-1.9141,-1.9512,-1.9912,-2.0439,-2.0576,-1.9599,-1.798,-1.7342,-1.6527,-1.4734,-1.4088,-1.4088,-1.4088,-1.4088,-1.4088,-1.4088,-1.4088,-1.4088,-1.4088,-1.4088,-1.4088,-1.4088,-1.4088,-1.4088,-1.4088,-1.4088,-1.4088,-1.4088,-1.4088,-1.4088,-1.4088,-1.4088,-1.4088,-3.0617,-2.9673,-2.9042,-2.8463,-2.7894,-2.7675,-2.72,-2.6602,-2.6348,-2.5749,-2.4925,-2.4447,-2.4134,-2.3969,-2.3924,-2.3789,-2.361,-2.3595,-2.3595,-2.3595,-2.3595,-2.3595,-2.3595,-2.3595,-2.3595,-2.3595,-2.3595,-2.3595,-2.3551,-2.3187,-2.2529,-2.1697,-2.1245,-2.0358,-1.9193,-1.8767,-1.8374,-1.771,-1.6878,-1.6592,-1.6717,-1.6597,-1.6534,-1.6534,-1.6534,-1.6534,-1.6534,-1.6534,-1.6534,-1.6534,-1.6534,-1.6534,-1.6534,-1.6697,-1.6975,-1.7267,-1.6305,-1.5426,-1.5101,-1.4875,-1.4834,-1.498,-1.5234,-1.542,-1.542,-1.542,-1.5684,-1.6182,-1.6533,-1.6934,-1.748,-1.7842,-1.8008,-1.8008,-1.8008,-1.8008,-1.8008,-1.8008,-1.8008,-1.8057,-1.8359,-1.8789,-1.9238,-1.9648,-2.0068,-2.0508,-2.0576,-1.9756,-1.831,-1.7423,-1.669,-1.4977,-1.4328,-1.4166,-1.4088,-1.4088,-1.4088,-1.4088,-1.4088,-1.4088,-1.4088,-1.4088,-1.4088,-1.4088,-1.4088,-1.4088,-1.4088,-1.4088,-1.4088,-1.4088,-1.4088,-1.4088,-1.4088,-1.4088,-1.4088,-3.0838,-3.0208,-2.9629,-2.8996,-2.8367,-2.781,-2.72,-2.6811,-2.725,-2.6726,-2.5642,-2.5586,-2.5235,-2.4716,-2.4552,-2.4238,-2.3774,-2.364,-2.3595,-2.3595,-2.3595,-2.3595,-2.3595,-2.3595,-2.3595,-2.3595,-2.3595,-2.3551,-2.3523,-2.3406,-2.2801,-2.1852,-2.1554,-2.0664,-1.907,-1.9419,-1.9213,-1.8276,-1.7272,-1.6963,-1.723,-1.6848,-1.6584,-1.6534,-1.6534,-1.6534,-1.6534,-1.6534,-1.6534,-1.6534,-1.6534,-1.6534,-1.6597,-1.6999,-1.7022,-1.6616,-1.6249,-1.5751,-1.5084,-1.4926,-1.5029,-1.5264,-1.54,-1.542,-1.542,-1.5469,-1.5811,-1.6494,-1.6768,-1.709,-1.7783,-1.7988,-1.8008,-1.8008,-1.8008,-1.8008,-1.8008,-1.8008,-1.8018,-1.8105,-1.8457,-1.8828,-1.9248,-1.9727,-2.0156,-2.0459,-2.0566,-2.0167,-1.8877,-1.7908,-1.6846,-1.5786,-1.4734,-1.4088,-1.4088,-1.4088,-1.4088,-1.4088,-1.4088,-1.4088,-1.4088,-1.4088,-1.4088,-1.4088,-1.4088,-1.4088,-1.4088,-1.4088,-1.4088,-1.4088,-1.4088,-1.4088,-1.4088,-1.4088,-1.4088,-3.0838,-3.0251,-2.9673,-2.9042,-2.8463,-2.786,-2.7425,-2.7295,-2.7519,-2.7112,-2.6489,-2.6756,-2.6363,-2.533,-2.4852,-2.4477,-2.4268,-2.3849,-2.3595,-2.3595,-2.3595,-2.3595,-2.3595,-2.3595,-2.3595,-2.3595,-2.3595,-2.3363,-2.3054,-2.2965,-2.2346,-2.1307,-2.1077,-2.0542,-1.9598,-1.9673,-1.943,-1.8843,-1.8801,-1.84,-1.7509,-1.7212,-1.6936,-1.6572,-1.6534,-1.6534,-1.6534,-1.6534,-1.6534,-1.6534,-1.6534,-1.6534,-1.6622,-1.7061,-1.7765,-1.8382,-1.7306,-1.6724,-1.6611,-1.5756,-1.5254,-1.5391,-1.541,-1.542,-1.5459,-1.5684,-1.6084,-1.6689,-1.7002,-1.7432,-1.7871,-1.8008,-1.8008,-1.8008,-1.8008,-1.8008,-1.8008,-1.8008,-1.8154,-1.8437,-1.8828,-1.9248,-1.9658,-2.0078,-2.0381,-2.0518,-2.0566,-2.0167,-1.9195,-1.8149,-1.6927,-1.5861,-1.4894,-1.4166,-1.4088,-1.4088,-1.4088,-1.4088,-1.4088,-1.4088,-1.4088,-1.4088,-1.4088,-1.4088,-1.4088,-1.4088,-1.4088,-1.4088,-1.4088,-1.4088,-1.4088,-1.4088,-1.4088,-1.4088,-1.4088,-3.0975,-3.0559,-2.9761,-2.918,-2.8732,-2.7993,-2.756,-2.7595,-2.7595,-2.7384,-2.712,-2.7379,-2.7016,-2.6051,-2.5525,-2.5076,-2.4582,-2.4148,-2.3849,-2.364,-2.3595,-2.3595,-2.3595,-2.3595,-2.3595,-2.3595,-2.3595,-2.3275,-2.2709,-2.2663,-2.2035,-2.0993,-2.0809,-2.0446,-1.985,-1.9775,-1.9598,-1.9409,-1.9564,-1.9236,-1.8197,-1.779,-1.7526,-1.72,-1.7149,-1.7149,-1.7137,-1.7137,-1.6936,-1.6609,-1.6534,-1.6534,-1.6584,-1.7275,-1.8329,-1.9157,-1.8453,-1.7577,-1.7478,-1.644,-1.5806,-1.5748,-1.5584,-1.542,-1.5488,-1.5811,-1.624,-1.6689,-1.7119,-1.7549,-1.792,-1.8008,-1.8008,-1.8008,-1.8008,-1.8008,-1.8008,-1.8008,-1.8193,-1.8564,-1.8994,-1.9443,-1.9863,-2.0283,-2.0557,-2.0576,-2.0566,-2.0489,-1.952,-1.863,-1.7496,-1.6437,-1.5545,-1.4817,-1.4166,-1.4088,-1.4088,-1.4088,-1.4088,-1.4088,-1.4088,-1.4088,-1.4088,-1.4088,-1.4088,-1.4088,-1.4088,-1.4088,-1.4088,-1.4088,-1.4088,-1.4088,-1.4088,-1.4088,-1.4088,-3.119,-3.1055,-2.9908,-2.9361,-2.918,-2.8076,-2.756,-2.756,-2.761,-2.7565,-2.7565,-2.7585,-2.7265,-2.6737,-2.6452,-2.5794,-2.4806,-2.4567,-2.4163,-2.3729,-2.3595,-2.3595,-2.3595,-2.3595,-2.3595,-2.3595,-2.3595,-2.329,-2.2709,-2.2709,-2.2035,-2.0944,-2.0809,-2.0459,-1.994,-1.9798,-1.9812,-1.9749,-1.9812,-1.9482,-1.892,-1.8518,-1.8179,-1.8103,-1.8078,-1.8053,-1.8028,-1.8003,-1.7626,-1.6798,-1.6697,-1.6635,-1.6748,-1.7614,-1.8744,-1.9672,-1.9085,-1.8347,-1.7677,-1.6866,-1.6379,-1.6322,-1.5748,-1.542,-1.5469,-1.5889,-1.6328,-1.6709,-1.7187,-1.7607,-1.793,-1.8008,-1.8008,-1.8008,-1.8008,-1.8008,-1.8008,-1.8008,-1.8203,-1.8584,-1.9014,-1.9443,-1.9863,-2.0303,-2.0518,-2.0576,-2.0576,-2.0489,-2.0245,-1.9353,-1.847,-1.7334,-1.6116,-1.5144,-1.4334,-1.4088,-1.4088,-1.4088,-1.4088,-1.4088,-1.4088,-1.4088,-1.4088,-1.4088,-1.4088,-1.4088,-1.4088,-1.4088,-1.4088,-1.4088,-1.4088,-1.4088,-1.4088,-1.4088,-1.4088,-3.119,-3.1055,-2.9892,-2.9406,-2.9225,-2.811,-2.756,-2.756,-2.756,-2.756,-2.756,-2.756,-2.747,-2.731,-2.6782,-2.6123,-2.5375,-2.4852,-2.4253,-2.3684,-2.3595,-2.3595,-2.3595,-2.3595,-2.3595,-2.3595,-2.3551,-2.3275,-2.2754,-2.2709,-2.2049,-2.0858,-2.0809,-2.0459,-1.9901,-1.9798,-1.9798,-1.9798,-1.9799,-1.956,-1.9095,-1.887,-1.8606,-1.8229,-1.8229,-1.8242,-1.8204,-1.8204,-1.8116,-1.779,-1.735,-1.6948,-1.6717,-1.7965,-1.9083,-1.9533,-1.915,-1.8661,-1.8232,-1.7257,-1.6606,-1.6436,-1.5864,-1.542,-1.5439,-1.6123,-1.6543,-1.6855,-1.7373,-1.7871,-1.7988,-1.8008,-1.8008,-1.8008,-1.8008,-1.8008,-1.8008,-1.8018,-1.8174,-1.8594,-1.9023,-1.9443,-1.9863,-2.0273,-2.0557,-2.0576,-2.0576,-2.0576,-2.0401,-1.9844,-1.8877,-1.7577,-1.6281,-1.5311,-1.4496,-1.425,-1.4088,-1.4088,-1.4088,-1.4088,-1.4088,-1.4088,-1.4088,-1.4088,-1.4088,-1.4088,-1.4088,-1.4088,-1.4088,-1.4088,-1.4088,-1.4088,-1.4088,-1.4088,-1.4088,-3.0838,-3.0699,-2.9496,-2.8996,-2.8919,-2.7978,-2.756,-2.756,-2.756,-2.756,-2.756,-2.756,-2.756,-2.7515,-2.7171,-2.6482,-2.563,-2.5211,-2.4507,-2.3684,-2.3595,-2.3595,-2.3595,-2.3595,-2.3595,-2.3595,-2.3595,-2.3246,-2.2799,-2.2709,-2.1988,-2.1042,-2.0809,-2.0446,-1.985,-1.9798,-1.9798,-1.9798,-1.9798,-1.9635,-1.9371,-1.9346,-1.9221,-1.892,-1.8882,-1.8882,-1.8869,-1.8668,-1.8455,-1.8204,-1.789,-1.7564,-1.7375,-1.8282,-1.9258,-1.9748,-1.9359,-1.9202,-1.898,-1.8058,-1.7302,-1.6922,-1.6312,-1.5748,-1.5625,-1.615,-1.6665,-1.6797,-1.7529,-1.792,-1.8008,-1.8008,-1.8008,-1.8008,-1.8008,-1.8008,-1.8008,-1.8008,-1.8213,-1.8594,-1.9023,-1.9453,-1.9853,-2.0293,-2.0508,-2.0576,-2.0576,-2.0576,-2.0489,-1.9844,-1.9036,-1.7658,-1.6609,-1.5718,-1.4657,-1.4166,-1.4088,-1.4088,-1.4088,-1.4088,-1.4088,-1.4088,-1.4088,-1.4088,-1.4088,-1.4088,-1.4088,-1.4088,-1.4088,-1.4088,-1.4088,-1.4088,-1.4088,-1.4088,-1.4088,-3.0293,-3.0208,-2.9012,-2.8527,-2.8431,-2.786,-2.756,-2.756,-2.756,-2.756,-2.756,-2.756,-2.756,-2.756,-2.747,-2.6841,-2.563,-2.5525,-2.4702,-2.3954,-2.3595,-2.3595,-2.3595,-2.3595,-2.3595,-2.3595,-2.3595,-2.3334,-2.3024,-2.283,-2.2128,-2.1272,-2.0993,-2.0497,-1.9952,-1.9798,-1.9798,-1.9798,-1.9798,-1.9773,-1.971,-1.9698,-1.9648,-1.9623,-1.961,-1.9623,-1.956,-1.9321,-1.892,-1.8405,-1.8329,-1.8317,-1.838,-1.8882,-1.9296,-1.9685,-1.9734,-1.9695,-1.9592,-1.8821,-1.8167,-1.7523,-1.6754,-1.6192,-1.5822,-1.6279,-1.6768,-1.6885,-1.7549,-1.793,-1.8008,-1.8008,-1.8008,-1.8008,-1.8008,-1.8008,-1.8008,-1.8008,-1.8154,-1.8475,-1.8955,-1.9434,-1.9814,-2.0234,-2.0576,-2.0576,-2.0576,-2.0576,-2.0411,-1.9923,-1.8877,-1.7585,-1.6772,-1.6116,-1.5061,-1.4088,-1.4088,-1.4088,-1.4088,-1.4088,-1.4088,-1.4088,-1.4088,-1.4088,-1.4088,-1.4088,-1.4088,-1.4088,-1.4088,-1.4088,-1.4088,-1.4088,-1.4088,-1.4088,-1.4088,-3.0293,-3.0208,-2.9012,-2.8527,-2.8383,-2.786,-2.756,-2.756,-2.756,-2.756,-2.756,-2.756,-2.756,-2.756,-2.7515,-2.6856,-2.5749,-2.554,-2.4866,-2.3729,-2.3595,-2.3595,-2.3595,-2.3595,-2.3595,-2.3595,-2.3595,-2.3508,-2.3363,-2.3143,-2.2756,-2.1615,-2.1245,-2.0904,-1.994,-1.9798,-1.9798,-1.9798,-1.9798,-1.9798,-1.9798,-1.9798,-1.9798,-1.9798,-1.9798,-1.9798,-1.9786,-1.9698,-1.9585,-1.9397,-1.9095,-1.8995,-1.9296,-1.9497,-1.966,-1.9748,-1.9798,-1.9798,-1.9579,-1.865,-1.7786,-1.7457,-1.6539,-1.5733,-1.6048,-1.6387,-1.6865,-1.7217,-1.7715,-1.7988,-1.8008,-1.8008,-1.8008,-1.8008,-1.8008,-1.8008,-1.8008,-1.8008,-1.8076,-1.8281,-1.8809,-1.9326,-1.9453,-2.0127,-2.042,-2.0527,-2.0576,-2.0576,-2.0323,-1.9923,-1.8789,-1.7504,-1.6519,-1.5876,-1.4901,-1.4088,-1.4088,-1.4088,-1.4088,-1.4088,-1.4088,-1.4088,-1.4088,-1.4088,-1.4088,-1.4088,-1.4088,-1.4088,-1.4088,-1.4088,-1.4088,-1.4088,-1.4088,-1.4088,-1.4088,-3.0107,-2.9805,-2.8857,-2.8334,-2.8057,-2.7775,-2.756,-2.756,-2.756,-2.756,-2.756,-2.756,-2.756,-2.756,-2.758,-2.6991,-2.6093,-2.5375,-2.4597,-2.3774,-2.3595,-2.3595,-2.3595,-2.3595,-2.3595,-2.3595,-2.3595,-2.3465,-2.3231,-2.3098,-2.2483,-2.139,-2.1293,-2.072,-1.994,-1.9798,-1.9798,-1.9798,-1.9798,-1.9798,-1.9798,-1.9798,-1.9798,-1.9798,-1.9798,-1.9798,-1.9798,-1.9798,-1.9798,-1.9736,-1.9547,-1.9497,-1.9736,-1.9798,-1.9798,-1.9798,-1.9798,-1.9579,-1.9137,-1.8608,-1.7852,-1.7135,-1.6312,-1.6125,-1.6146,-1.6475,-1.6914,-1.7344,-1.7725,-1.8008,-1.8008,-1.8008,-1.8008,-1.8008,-1.8008,-1.8008,-1.8008,-1.8008,-1.8008,-1.8125,-1.8584,-1.9004,-1.9414,-1.9961,-2.0342,-2.0488,-2.0566,-2.0566,-2.0323,-1.9844,-1.8718,-1.7504,-1.6437,-1.5462,-1.4573,-1.4088,-1.4088,-1.4088,-1.4088,-1.4088,-1.4088,-1.4088,-1.4088,-1.4088,-1.4088,-1.4088,-1.4088,-1.4088,-1.4088,-1.4088,-1.4088,-1.4088,-1.4088,-1.4088,-1.4088,-2.9935,-2.9361,-2.8732,-2.814,-2.7675,-2.761,-2.756,-2.756,-2.756,-2.756,-2.756,-2.756,-2.756,-2.756,-2.756,-2.7186,-2.6378,-2.5224,-2.4283,-2.3939,-2.367,-2.361,-2.3595,-2.3595,-2.3595,-2.3595,-2.3595,-2.3334,-2.3054,-2.2785,-2.2392,-2.121,-2.0979,-2.0633,-1.9991,-1.9798,-1.9798,-1.9798,-1.9798,-1.9798,-1.9798,-1.9798,-1.9798,-1.9798,-1.9798,-1.9798,-1.9798,-1.9798,-1.9798,-1.9798,-1.9798,-1.9798,-1.9798,-1.9798,-1.9798,-1.9798,-1.9798,-1.9579,-1.9137,-1.8596,-1.7895,-1.6708,-1.6312,-1.6321,-1.6315,-1.6543,-1.6982,-1.7422,-1.7822,-1.8008,-1.8008,-1.8008,-1.8008,-1.8008,-1.8008,-1.8008,-1.8008,-1.8008,-1.8008,-1.8066,-1.8447,-1.8857,-1.9268,-1.9746,-2.0117,-2.0439,-2.0518,-2.0489,-2.0245,-1.9511,-1.831,-1.718,-1.6034,-1.522,-1.4328,-1.4088,-1.4088,-1.4088,-1.4088,-1.4088,-1.4088,-1.4088,-1.4088,-1.4088,-1.4088,-1.4088,-1.4088,-1.4088,-1.4088,-1.4088,-1.4088,-1.4088,-1.4088,-1.4088,-1.4088,-2.9935,-2.9361,-2.8732,-2.814,-2.7675,-2.761,-2.7625,-2.756,-2.756,-2.756,-2.756,-2.756,-2.756,-2.756,-2.756,-2.72,-2.6408,-2.533,-2.4552,-2.4283,-2.3909,-2.3595,-2.3595,-2.3595,-2.3595,-2.3595,-2.3595,-2.3508,-2.3377,-2.3363,-2.2529,-2.171,-2.1438,-2.0904,-2.0042,-1.9798,-1.9798,-1.9798,-1.9798,-1.9798,-1.9798,-1.9798,-1.9798,-1.9798,-1.9798,-1.9798,-1.9798,-1.9798,-1.9798,-1.9798,-1.9798,-1.9798,-1.9798,-1.9798,-1.9798,-1.9798,-1.9798,-1.9683,-1.9307,-1.8382,-1.7841,-1.7191,-1.6358,-1.6039,-1.6348,-1.6709,-1.709,-1.7637,-1.792,-1.8008,-1.8008,-1.8008,-1.8008,-1.8008,-1.8008,-1.8008,-1.8008,-1.8008,-1.8008,-1.8037,-1.8398,-1.8679,-1.9121,-1.9512,-1.9932,-2.0283,-2.0488,-2.0382,-2.0079,-1.9027,-1.7658,-1.6609,-1.5553,-1.4817,-1.4088,-1.4088,-1.4088,-1.4088,-1.4088,-1.4088,-1.4088,-1.4088,-1.4088,-1.4088,-1.4088,-1.4088,-1.4088,-1.4088,-1.4088,-1.4088,-1.4088,-1.4088,-1.4088,-1.4088,-1.4088,-3.0393,-2.9848,-2.9524,-2.8904,-2.8189,-2.8091,-2.791,-2.761,-2.756,-2.756,-2.756,-2.756,-2.756,-2.756,-2.756,-2.72,-2.6452,-2.5644,-2.4925,-2.4537,-2.3954,-2.3595,-2.3595,-2.3595,-2.3595,-2.3595,-2.3595,-2.3421,-2.3143,-2.3098,-2.2483,-2.1486,-2.1259,-2.072,-2.0042,-1.9798,-1.9798,-1.9798,-1.9798,-1.9798,-1.9798,-1.9798,-1.9798,-1.9798,-1.9798,-1.9798,-1.9798,-1.9798,-1.9798,-1.9798,-1.9798,-1.9798,-1.9798,-1.9798,-1.9798,-1.9798,-1.9798,-1.9579,-1.9202,-1.8167,-1.7468,-1.6922,-1.5979,-1.5762,-1.625,-1.6621,-1.7148,-1.7744,-1.8008,-1.8008,-1.8008,-1.8008,-1.8008,-1.8008,-1.8008,-1.8008,-1.8008,-1.8008,-1.8008,-1.8008,-1.8174,-1.8477,-1.8857,-1.9277,-1.9727,-2.0088,-2.04,-2.0265,-1.9972,-1.8621,-1.7172,-1.6041,-1.5068,-1.458,-1.4088,-1.4088,-1.4088,-1.4088,-1.4088,-1.4088,-1.4088,-1.4088,-1.4088,-1.4088,-1.4088,-1.4088,-1.4088,-1.4088,-1.4088,-1.4088,-1.4088,-1.4088,-1.4088,-1.4088,-1.4088,-3.0838,-3.0309,-3.0166,-2.9496,-2.8559,-2.8367,-2.8042,-2.766,-2.756,-2.756,-2.756,-2.756,-2.756,-2.756,-2.7515,-2.7275,-2.6707,-2.6004,-2.5315,-2.4792,-2.3984,-2.3595,-2.3595,-2.3595,-2.3595,-2.3595,-2.3595,-2.3377,-2.3143,-2.3068,-2.2221,-2.1452,-2.1028,-2.0534,-1.9991,-1.9798,-1.9798,-1.9798,-1.9798,-1.9798,-1.9798,-1.9798,-1.9798,-1.9798,-1.9798,-1.9798,-1.9798,-1.9798,-1.9798,-1.9798,-1.9798,-1.9798,-1.9798,-1.9798,-1.9798,-1.9798,-1.9798,-1.9475,-1.8992,-1.834,-1.7731,-1.7357,-1.63,-1.6138,-1.6424,-1.7007,-1.7334,-1.7852,-1.8008,-1.8008,-1.8008,-1.8008,-1.8008,-1.8008,-1.8008,-1.8008,-1.8008,-1.8008,-1.8008,-1.8008,-1.8008,-1.8252,-1.8672,-1.8926,-1.9355,-1.9883,-2.0205,-1.9877,-1.9437,-1.8292,-1.6935,-1.5636,-1.4741,-1.4328,-1.4088,-1.4088,-1.4088,-1.4088,-1.4088,-1.4088,-1.4088,-1.4088,-1.4088,-1.4088,-1.4088,-1.4088,-1.4088,-1.4088,-1.4088,-1.4088,-1.4088,-1.4088,-1.4088,-1.4088,-1.4088,-3.0838,-3.0267,-2.9717,-2.9104,-2.8463,-2.7993,-2.771,-2.761,-2.756,-2.756,-2.756,-2.756,-2.756,-2.756,-2.756,-2.7565,-2.7081,-2.6183,-2.554,-2.5196,-2.4193,-2.3595,-2.3595,-2.3595,-2.3595,-2.3595,-2.3595,-2.3551,-2.3363,-2.3377,-2.2756,-2.1758,-2.1342,-2.0988,-1.9901,-1.9798,-1.9798,-1.9798,-1.9798,-1.9798,-1.9798,-1.9798,-1.9798,-1.9798,-1.9798,-1.9798,-1.9798,-1.9798,-1.9798,-1.9798,-1.9798,-1.9798,-1.9798,-1.9798,-1.9798,-1.9798,-1.9798,-1.9747,-1.9475,-1.8768,-1.8274,-1.7865,-1.7213,-1.7277,-1.7256,-1.7447,-1.7725,-1.793,-1.8008,-1.8008,-1.8008,-1.8008,-1.8008,-1.8008,-1.8008,-1.8008,-1.8008,-1.8008,-1.8008,-1.8008,-1.8008,-1.8223,-1.8545,-1.873,-1.8975,-1.9521,-1.9839,-1.9505,-1.8734,-1.7429,-1.6445,-1.5151,-1.4573,-1.425,-1.4088,-1.4088,-1.4088,-1.4088,-1.4088,-1.4088,-1.4088,-1.4088,-1.4088,-1.4088,-1.4088,-1.4088,-1.4088,-1.4088,-1.4088,-1.4088,-1.4088,-1.4088,-1.4088,-1.4088,-1.4088,-3.0838,-3.0293,-3.0021,-2.9361,-2.8511,-2.8238,-2.791,-2.761,-2.756,-2.756,-2.756,-2.756,-2.756,-2.756,-2.756,-2.756,-2.7275,-2.6198,-2.5615,-2.533,-2.4328,-2.361,-2.3595,-2.3595,-2.3595,-2.3595,-2.3595,-2.3595,-2.3508,-2.3187,-2.2575,-2.1805,-2.1342,-2.072,-1.9901,-1.9798,-1.9798,-1.9798,-1.9798,-1.9798,-1.9798,-1.9798,-1.9798,-1.9798,-1.9798,-1.9798,-1.9798,-1.9798,-1.9798,-1.9798,-1.9798,-1.9798,-1.9798,-1.9798,-1.9798,-1.9798,-1.9798,-1.9798,-1.9643,-1.8715,-1.834,-1.7809,-1.7123,-1.6417,-1.6996,-1.7536,-1.7812,-1.7998,-1.8008,-1.8008,-1.8008,-1.8008,-1.8008,-1.8008,-1.8008,-1.8008,-1.8008,-1.8008,-1.8008,-1.8008,-1.8018,-1.8193,-1.8359,-1.8525,-1.8669,-1.9078,-1.9126,-1.8683,-1.7531,-1.6067,-1.5253,-1.4503,-1.425,-1.4088,-1.4088,-1.4088,-1.4088,-1.4088,-1.4088,-1.4088,-1.4088,-1.4088,-1.4088,-1.4088,-1.4088,-1.4088,-1.4088,-1.4088,-1.4088,-1.4088,-1.4088,-1.4088,-1.4088,-1.4088,-1.4088,-3.0838,-3.0293,-3.0107,-2.9451,-2.8511,-2.8319,-2.7993,-2.761,-2.756,-2.756,-2.756,-2.756,-2.756,-2.756,-2.756,-2.756,-2.7505,-2.6198,-2.5719,-2.5166,-2.4388,-2.3684,-2.3595,-2.3595,-2.3595,-2.3595,-2.3595,-2.3595,-2.3363,-2.286,-2.2193,-2.171,-2.1161,-2.0497,-2.0003,-1.9798,-1.9798,-1.9798,-1.9798,-1.9798,-1.9798,-1.9798,-1.9798,-1.9798,-1.9798,-1.9798,-1.9798,-1.9798,-1.9798,-1.9798,-1.9798,-1.9798,-1.9798,-1.9798,-1.9798,-1.9798,-1.9798,-1.9798,-1.9579,-1.898,-1.8178,-1.7534,-1.6964,-1.6627,-1.7076,-1.7393,-1.7617,-1.7998,-1.8008,-1.8008,-1.8008,-1.8008,-1.8008,-1.8008,-1.8008,-1.8008,-1.8008,-1.8008,-1.8008,-1.8008,-1.8008,-1.8008,-1.8174,-1.832,-1.8484,-1.8705,-1.8442,-1.7988,-1.6716,-1.533,-1.4587,-1.4173,-1.4088,-1.4088,-1.4088,-1.4088,-1.4088,-1.4088,-1.4088,-1.4088,-1.4088,-1.4088,-1.4088,-1.4088,-1.4088,-1.4088,-1.4088,-1.4088,-1.4088,-1.4088,-1.4088,-1.4088,-1.4088,-1.4088,-1.4004,-3.0838,-3.0251,-2.9717,-2.915,-2.8463,-2.791,-2.7675,-2.756,-2.756,-2.756,-2.756,-2.756,-2.756,-2.756,-2.756,-2.7545,-2.752,-2.6198,-2.5734,-2.5166,-2.4343,-2.3731,-2.3656,-2.3641,-2.3655,-2.3595,-2.3595,-2.3595,-2.3363,-2.2575,-2.1993,-2.1602,-2.0966,-2.0383,-2.0003,-1.9798,-1.9798,-1.9798,-1.9798,-1.9798,-1.9798,-1.9798,-1.9798,-1.9798,-1.9798,-1.9798,-1.9798,-1.9798,-1.9798,-1.9798,-1.9798,-1.9798,-1.9798,-1.9798,-1.9798,-1.9798,-1.9798,-1.9798,-1.9631,-1.9423,-1.9174,-1.8608,-1.7944,-1.7377,-1.7546,-1.7812,-1.7998,-1.7988,-1.8008,-1.8008,-1.8008,-1.8008,-1.8008,-1.8008,-1.8008,-1.8008,-1.8008,-1.8008,-1.8008,-1.8008,-1.8008,-1.8008,-1.8008,-1.8174,-1.834,-1.8543,-1.8477,-1.7948,-1.6797,-1.5501,-1.4622,-1.4173,-1.4088,-1.4088,-1.4088,-1.4088,-1.4088,-1.4088,-1.4088,-1.4088,-1.4088,-1.4088,-1.4088,-1.4088,-1.4088,-1.4088,-1.4088,-1.4088,-1.4088,-1.4088,-1.4088,-1.4088,-1.3913,-1.3822,-1.3822,-3.057,-2.965,-2.9825,-2.9406,-2.8479,-2.7845,-2.756,-2.756,-2.756,-2.756,-2.756,-2.756,-2.756,-2.756,-2.7595,-2.732,-2.6886,-2.6063,-2.5689,-2.5345,-2.4732,-2.4015,-2.3867,-2.3911,-2.4029,-2.3684,-2.3595,-2.3595,-2.345,-2.2575,-2.21,-2.1568,-2.0769,-2.0194,-1.985,-1.9798,-1.9798,-1.9798,-1.9798,-1.9798,-1.9798,-1.9798,-1.9798,-1.9798,-1.9798,-1.9798,-1.9798,-1.9798,-1.9798,-1.9798,-1.9798,-1.9798,-1.9798,-1.9798,-1.9798,-1.9798,-1.9798,-1.9798,-1.9695,-1.9396,-1.875,-1.8068,-1.7747,-1.7789,-1.7856,-1.7852,-1.7978,-1.8008,-1.8008,-1.8008,-1.8008,-1.8008,-1.8008,-1.8008,-1.8008,-1.8008,-1.8008,-1.8008,-1.8008,-1.8008,-1.8008,-1.8008,-1.8008,-1.8027,-1.8193,-1.8339,-1.8225,-1.7868,-1.6748,-1.5794,-1.4901,-1.425,-1.4088,-1.4088,-1.4088,-1.4088,-1.4088,-1.4088,-1.4088,-1.4088,-1.4088,-1.4088,-1.4088,-1.4088,-1.4088,-1.4088,-1.4088,-1.4088,-1.4088,-1.4088,-1.4088,-1.4088,-1.3906,-1.3555,-1.3379,-2.9923,-2.8999,-2.9271,-2.8938,-2.8169,-2.7951,-2.7745,-2.761,-2.756,-2.756,-2.756,-2.756,-2.756,-2.756,-2.7545,-2.7215,-2.6617,-2.5959,-2.554,-2.5076,-2.4522,-2.4283,-2.4253,-2.4134,-2.3924,-2.3655,-2.3595,-2.3595,-2.3551,-2.2815,-2.2193,-2.1424,-2.0521,-1.994,-1.9798,-1.9798,-1.9798,-1.9798,-1.9798,-1.9798,-1.9798,-1.9798,-1.9798,-1.9798,-1.9798,-1.9798,-1.9798,-1.9798,-1.9798,-1.9798,-1.9798,-1.9798,-1.9798,-1.9798,-1.9798,-1.9798,-1.9798,-1.9798,-1.9631,-1.9081,-1.8556,-1.8529,-1.7853,-1.7915,-1.7976,-1.8034,-1.7988,-1.8008,-1.8008,-1.8008,-1.8008,-1.8008,-1.8008,-1.8008,-1.8008,-1.8008,-1.8008,-1.8008,-1.8008,-1.8008,-1.8008,-1.8008,-1.8008,-1.8047,-1.8379,-1.8511,-1.835,-1.7929,-1.7006,-1.6034,-1.5137,-1.4573,-1.4088,-1.4088,-1.4088,-1.4088,-1.4088,-1.4088,-1.4088,-1.4088,-1.4088,-1.4088,-1.4088,-1.4088,-1.4088,-1.4088,-1.4088,-1.4088,-1.4088,-1.4088,-1.4088,-1.4088,-1.3822,-1.347,-1.2766,-2.8749,-2.819,-2.7664,-2.7474,-2.7458,-2.8185,-2.8061,-2.761,-2.756,-2.756,-2.756,-2.756,-2.756,-2.7545,-2.75,-2.7021,-2.6408,-2.5794,-2.533,-2.4852,-2.4537,-2.4578,-2.4667,-2.4549,-2.4044,-2.3684,-2.3595,-2.3595,-2.3551,-2.262,-2.1993,-2.1363,-2.0508,-1.9798,-1.9798,-1.9798,-1.9798,-1.9798,-1.9798,-1.9798,-1.9798,-1.9798,-1.9798,-1.9798,-1.9798,-1.9798,-1.9798,-1.9798,-1.9798,-1.9798,-1.9798,-1.9798,-1.9798,-1.9798,-1.9798,-1.9798,-1.9798,-1.9798,-1.9747,-1.9085,-1.9069,-1.9252,-1.8382,-1.8187,-1.8723,-1.8509,-1.8008,-1.8008,-1.8008,-1.8008,-1.8008,-1.8008,-1.8008,-1.8008,-1.8008,-1.8008,-1.8008,-1.8008,-1.8008,-1.8008,-1.8008,-1.8008,-1.8008,-1.8115,-1.8525,-1.8677,-1.8498,-1.7926,-1.7138,-1.6437,-1.5628,-1.4657,-1.4088,-1.4088,-1.4088,-1.4088,-1.4088,-1.4088,-1.4088,-1.4088,-1.4088,-1.4088,-1.4088,-1.4088,-1.4088,-1.4088,-1.4088,-1.4088,-1.4088,-1.4088,-1.4088,-1.3997,-1.373,-1.3294,-1.2674,-2.8397,-2.7498,-2.7748,-2.7208,-2.6282,-2.6915,-2.7338,-2.7565,-2.756,-2.756,-2.756,-2.756,-2.756,-2.747,-2.7066,-2.6587,-2.5914,-2.53,-2.4776,-2.5196,-2.4896,-2.5183,-2.5319,-2.5078,-2.4403,-2.3789,-2.3595,-2.364,-2.3595,-2.256,-2.2039,-2.1506,-2.0471,-1.9901,-1.9798,-1.9798,-1.9798,-1.9798,-1.9798,-1.9798,-1.9798,-1.9798,-1.9798,-1.9798,-1.9798,-1.9798,-1.9798,-1.9798,-1.9798,-1.9798,-1.9798,-1.9798,-1.9798,-1.9798,-1.9798,-1.9798,-1.9798,-1.9798,-1.9798,-1.946,-1.9198,-1.8976,-1.8755,-1.833,-1.8137,-1.814,-1.7969,-1.8008,-1.8008,-1.8008,-1.8008,-1.8008,-1.8008,-1.8008,-1.8008,-1.8008,-1.8008,-1.8008,-1.8008,-1.8008,-1.8008,-1.8008,-1.8008,-1.8066,-1.8418,-1.8877,-1.8796,-1.8184,-1.7379,-1.6985,-1.6363,-1.4901,-1.4088,-1.4088,-1.4088,-1.4088,-1.4088,-1.4088,-1.4088,-1.4088,-1.4088,-1.4088,-1.4088,-1.4088,-1.4088,-1.4088,-1.4088,-1.4088,-1.4088,-1.4088,-1.4088,-1.4088,-1.3906,-1.3294,-1.2498,-2.7626,-2.6805,-2.7217,-2.6663,-2.5675,-2.6473,-2.7176,-2.7535,-2.756,-2.756,-2.756,-2.756,-2.741,-2.7141,-2.6767,-2.6004,-2.5315,-2.5105,-2.4522,-2.5106,-2.545,-2.5513,-2.5589,-2.5556,-2.4686,-2.3985,-2.382,-2.3865,-2.3201,-2.262,-2.1805,-2.089,-2.0232,-1.9901,-1.9798,-1.9798,-1.9798,-1.9798,-1.9798,-1.9798,-1.9798,-1.9798,-1.9798,-1.9798,-1.9798,-1.9798,-1.9798,-1.9798,-1.9798,-1.9798,-1.9798,-1.9798,-1.9798,-1.9798,-1.9798,-1.9798,-1.9798,-1.9798,-1.9798,-1.9798,-1.9209,-1.8194,-1.8458,-1.8373,-1.7833,-1.7803,-1.787,-1.791,-1.7978,-1.8008,-1.8008,-1.8008,-1.8008,-1.8008,-1.8008,-1.8008,-1.8008,-1.8008,-1.8008,-1.8008,-1.8008,-1.8008,-1.8018,-1.8105,-1.8271,-1.873,-1.9127,-1.8321,-1.7569,-1.7195,-1.6527,-1.4985,-1.4088,-1.4088,-1.4088,-1.4088,-1.4088,-1.4088,-1.4088,-1.4088,-1.4088,-1.4088,-1.4088,-1.4088,-1.4088,-1.4088,-1.4088,-1.4088,-1.4088,-1.4088,-1.4088,-1.4088,-1.4082,-1.3379,-1.2589,-2.6453,-2.6049,-2.6013,-2.577,-2.5652,-2.6624,-2.7298,-2.7535,-2.758,-2.7565,-2.755,-2.7425,-2.7066,-2.6617,-2.6482,-2.5794,-2.4851,-2.5151,-2.4792,-2.4537,-2.5226,-2.5514,-2.5786,-2.5738,-2.509,-2.4431,-2.3985,-2.3627,-2.2752,-2.2021,-2.1051,-2.0232,-1.994,-1.9798,-1.9798,-1.9798,-1.9798,-1.9798,-1.9798,-1.9798,-1.9798,-1.9798,-1.9798,-1.9798,-1.9798,-1.9798,-1.9798,-1.9798,-1.9798,-1.9798,-1.9798,-1.9798,-1.9798,-1.9798,-1.9798,-1.9798,-1.9798,-1.9798,-1.9798,-1.9798,-1.9162,-1.8199,-1.8103,-1.8311,-1.8051,-1.7521,-1.7576,-1.7783,-1.793,-1.7978,-1.8008,-1.8008,-1.8008,-1.8008,-1.8008,-1.8008,-1.8008,-1.8008,-1.8008,-1.8008,-1.8008,-1.8008,-1.8008,-1.8086,-1.8203,-1.8643,-1.8894,-1.8318,-1.7699,-1.7357,-1.6437,-1.4741,-1.4088,-1.4088,-1.4088,-1.4088,-1.4088,-1.4088,-1.4088,-1.4088,-1.4088,-1.4088,-1.4088,-1.4088,-1.4088,-1.4088,-1.4088,-1.4088,-1.4088,-1.4088,-1.4088,-1.4088,-1.4082,-1.3555,-1.2766,-2.6401,-2.6013,-2.6013,-2.5502,-2.4808,-2.524,-2.5982,-2.6861,-2.7338,-2.7353,-2.6856,-2.6377,-2.6065,-2.5884,-2.542,-2.5001,-2.4657,-2.4448,-2.4747,-2.4986,-2.5495,-2.6208,-2.6479,-2.6432,-2.5751,-2.4984,-2.4248,-2.3572,-2.258,-2.1643,-2.0733,-1.9952,-1.9798,-1.9798,-1.9798,-1.9798,-1.9798,-1.9798,-1.9798,-1.9798,-1.9798,-1.9798,-1.9798,-1.9798,-1.9798,-1.9798,-1.9798,-1.9798,-1.9798,-1.9798,-1.9798,-1.9798,-1.9798,-1.9798,-1.9798,-1.9798,-1.9798,-1.9798,-1.9798,-1.9798,-1.9371,-1.8447,-1.8077,-1.7316,-1.7063,-1.704,-1.7168,-1.7519,-1.7793,-1.7842,-1.7959,-1.8008,-1.8008,-1.8008,-1.8008,-1.8008,-1.8008,-1.8008,-1.8008,-1.8008,-1.8008,-1.8008,-1.8008,-1.8018,-1.8184,-1.8594,-1.859,-1.8143,-1.77,-1.7368,-1.6347,-1.4657,-1.4088,-1.4088,-1.4088,-1.4088,-1.4088,-1.4088,-1.4088,-1.4088,-1.4088,-1.4088,-1.4088,-1.4088,-1.4088,-1.4088,-1.4088,-1.4088,-1.4088,-1.4088,-1.4088,-1.4088,-1.3997,-1.3379,-1.3033,-2.6556,-2.6262,-2.6085,-2.5373,-2.4467,-2.4247,-2.4852,-2.5886,-2.7048,-2.7246,-2.6512,-2.5353,-2.5088,-2.5493,-2.5016,-2.4612,-2.4597,-2.4732,-2.4956,-2.539,-2.6078,-2.6348,-2.6711,-2.6846,-2.6024,-2.515,-2.4232,-2.3426,-2.2116,-2.1064,-2.0105,-1.985,-1.9798,-1.9798,-1.9798,-1.9798,-1.9798,-1.9798,-1.9798,-1.9798,-1.9798,-1.9798,-1.9798,-1.9798,-1.9798,-1.9798,-1.9798,-1.9798,-1.9798,-1.9798,-1.9798,-1.9798,-1.9798,-1.9798,-1.9798,-1.9798,-1.9798,-1.9798,-1.9798,-1.9798,-1.9359,-1.8768,-1.8004,-1.7242,-1.6626,-1.6417,-1.6855,-1.7246,-1.75,-1.7705,-1.7871,-1.8008,-1.8008,-1.8008,-1.8008,-1.8008,-1.8008,-1.8008,-1.8008,-1.8008,-1.8008,-1.8008,-1.8008,-1.8008,-1.8096,-1.8398,-1.8433,-1.8008,-1.7527,-1.7116,-1.6032,-1.4496,-1.4166,-1.4088,-1.4088,-1.4088,-1.4088,-1.4088,-1.4088,-1.4088,-1.4088,-1.4088,-1.4088,-1.4088,-1.4088,-1.4088,-1.4088,-1.4088,-1.4088,-1.4088,-1.4088,-1.4082,-1.3822,-1.3294,-1.3027,-2.6708,-2.6657,-2.6139,-2.5373,-2.4471,-2.394,-2.4014,-2.4702,-2.6321,-2.6976,-2.6135,-2.467,-2.4616,-2.5164,-2.4657,-2.4433,-2.4567,-2.4807,-2.5151,-2.5644,-2.6572,-2.6871,-2.6767,-2.6788,-2.6001,-2.4776,-2.368,-2.2853,-2.1106,-2.0245,-1.9952,-1.9798,-1.9798,-1.9798,-1.9798,-1.9798,-1.9798,-1.9798,-1.9798,-1.9798,-1.9798,-1.9798,-1.9798,-1.9798,-1.9798,-1.9798,-1.9798,-1.9798,-1.9798,-1.9798,-1.9798,-1.9798,-1.9798,-1.9798,-1.9798,-1.9798,-1.9798,-1.9798,-1.9798,-1.9798,-1.9527,-1.8874,-1.807,-1.739,-1.6831,-1.6208,-1.6556,-1.708,-1.7383,-1.7715,-1.793,-1.7998,-1.8008,-1.8008,-1.8008,-1.8008,-1.8008,-1.8008,-1.8008,-1.8008,-1.8008,-1.8008,-1.8008,-1.8008,-1.8008,-1.8232,-1.8062,-1.7733,-1.7242,-1.673,-1.5792,-1.4391,-1.425,-1.4088,-1.4088,-1.4088,-1.4088,-1.4088,-1.4088,-1.4088,-1.4088,-1.4088,-1.4088,-1.4088,-1.4088,-1.4088,-1.4088,-1.4088,-1.4088,-1.4088,-1.4088,-1.3997,-1.3646,-1.2942,-1.2766,-2.6708,-2.6624,-2.5746,-2.5221,-2.4894,-2.3991,-2.3684,-2.3864,-2.4295,-2.5123,-2.56,-2.5332,-2.4926,-2.4776,-2.4238,-2.3954,-2.4133,-2.4717,-2.5136,-2.5644,-2.6512,-2.6924,-2.6958,-2.7079,-2.5942,-2.4255,-2.3041,-2.2047,-2.0552,-1.9901,-1.9798,-1.9798,-1.9798,-1.9798,-1.9798,-1.9798,-1.9798,-1.9798,-1.9988,-1.9976,-1.9899,-1.9836,-1.9798,-1.9798,-1.9798,-1.9798,-1.9798,-1.9798,-1.9798,-1.9798,-1.9798,-1.9798,-1.9798,-1.9798,-1.9798,-1.9798,-1.9798,-1.9798,-1.9747,-1.9747,-1.9475,-1.9097,-1.8447,-1.7786,-1.7175,-1.6504,-1.637,-1.6875,-1.7334,-1.7686,-1.7949,-1.7978,-1.8008,-1.8008,-1.8008,-1.8008,-1.8008,-1.8008,-1.8008,-1.8008,-1.8008,-1.8008,-1.8008,-1.8008,-1.8008,-1.7829,-1.7605,-1.7178,-1.6505,-1.5976,-1.5472,-1.442,-1.4243,-1.4088,-1.4088,-1.4088,-1.4088,-1.4088,-1.4088,-1.4088,-1.4088,-1.4088,-1.4088,-1.4088,-1.4088,-1.4088,-1.4088,-1.4088,-1.4088,-1.4088,-1.3997,-1.3913,-1.2863,-1.2072,-1.2072,-2.6708,-2.659,-2.5635,-2.5051,-2.4697,-2.3964,-2.3595,-2.3595,-2.3595,-2.4178,-2.5122,-2.5409,-2.5227,-2.4582,-2.3909,-2.3819,-2.3999,-2.4433,-2.5046,-2.5615,-2.6066,-2.6432,-2.6814,-2.701,-2.5188,-2.3483,-2.2193,-2.102,-2.0029,-1.9798,-1.9798,-1.9798,-1.9798,-1.9798,-1.9798,-1.9798,-1.9811,-1.9811,-2.0217,-2.0355,-2.0202,-1.9999,-1.9836,-1.9798,-1.9811,-1.9798,-1.9798,-1.9798,-1.9798,-1.9798,-1.9798,-1.9798,-1.9798,-1.9798,-1.9798,-1.9798,-1.9798,-1.9798,-1.9695,-1.9527,-1.9359,-1.8874,-1.8004,-1.7024,-1.697,-1.6367,-1.6478,-1.6943,-1.7266,-1.7607,-1.79,-1.8008,-1.8008,-1.8008,-1.8008,-1.8008,-1.8008,-1.8008,-1.8008,-1.8008,-1.8008,-1.8008,-1.8008,-1.8008,-1.7872,-1.7292,-1.7079,-1.6586,-1.5891,-1.5309,-1.4784,-1.4379,-1.4216,-1.4088,-1.4088,-1.4088,-1.4088,-1.4088,-1.4088,-1.4088,-1.4088,-1.4088,-1.4088,-1.4088,-1.4088,-1.4088,-1.4088,-1.4088,-1.4088,-1.4088,-1.3913,-1.3737,-1.251,-1.1295,-1.095,-2.6708,-2.6539,-2.5635,-2.4934,-2.443,-2.3837,-2.3595,-2.3595,-2.361,-2.3909,-2.4477,-2.5026,-2.4954,-2.4551,-2.3954,-2.4163,-2.4373,-2.4747,-2.5196,-2.5405,-2.5899,-2.6311,-2.6417,-2.6135,-2.4644,-2.3087,-2.1689,-2.0851,-2.0105,-1.9901,-1.9798,-1.9798,-1.9798,-1.9798,-1.9811,-1.9822,-1.982,-2.024,-2.0648,-2.1056,-2.0721,-2.0238,-2.0062,-1.9949,-1.9836,-1.9811,-1.9798,-1.9798,-1.9798,-1.9798,-1.9798,-1.9798,-1.9695,-1.9631,-1.9695,-1.9695,-1.9307,-1.9371,-1.9371,-1.8874,-1.8715,-1.8221,-1.7079,-1.6555,-1.6539,-1.6637,-1.6678,-1.6914,-1.7236,-1.7588,-1.7871,-1.8008,-1.8008,-1.8008,-1.8008,-1.8008,-1.8008,-1.8008,-1.8008,-1.8008,-1.8008,-1.8008,-1.8008,-1.8008,-1.7676,-1.7024,-1.6394,-1.5832,-1.5365,-1.4929,-1.4384,-1.4268,-1.4146,-1.4088,-1.4088,-1.4088,-1.4088,-1.4088,-1.4088,-1.4088,-1.4088,-1.4088,-1.4088,-1.4088,-1.4088,-1.4088,-1.4088,-1.4088,-1.4088,-1.4088,-1.347,-1.3033,-1.1906,-1.0778,-0.9749,-2.6708,-2.6607,-2.5619,-2.5144,-2.4894,-2.3991,-2.3595,-2.3595,-2.3595,-2.3684,-2.3863,-2.3923,-2.4118,-2.4537,-2.3909,-2.3804,-2.4014,-2.4657,-2.4852,-2.4896,-2.5974,-2.6402,-2.6311,-2.5759,-2.4736,-2.3396,-2.1986,-2.0898,-2.0514,-2.0105,-1.9798,-1.9798,-1.9836,-1.9849,-1.9822,-1.9855,-2.0048,-2.0561,-2.1138,-2.1529,-2.134,-2.0891,-2.0577,-2.0338,-2.0049,-1.9899,-1.9798,-1.9798,-1.9798,-1.9798,-1.9798,-1.9798,-1.9631,-1.9359,-1.9202,-1.8927,-1.8555,-1.8661,-1.8489,-1.8167,-1.7907,-1.7731,-1.6821,-1.642,-1.644,-1.6587,-1.6713,-1.6934,-1.7295,-1.7744,-1.8008,-1.8008,-1.8008,-1.8008,-1.8008,-1.8008,-1.8008,-1.8008,-1.8008,-1.8008,-1.8008,-1.8008,-1.8008,-1.8008,-1.794,-1.7172,-1.6262,-1.57,-1.5349,-1.4764,-1.4131,-1.4074,-1.4075,-1.4088,-1.4088,-1.4088,-1.4088,-1.4088,-1.4088,-1.4088,-1.4088,-1.4088,-1.4088,-1.4088,-1.4088,-1.4088,-1.4088,-1.4088,-1.4088,-1.3997,-1.3027,-1.2242,-1.1209,-1.0178,-0.9231]},{"header":{"parameterUnit":"m.s-1","parameterCategory":1,"la1":31.0,"la2":29.5877,"lo1":-88.7671,"lo2":-86.6584,"dy":0.0162,"dx":0.0185,"nx":115,"ny":88,"refTime":"2024-07-10T06:00:00:Z","depth":0,"parameterNumber":3,"parameterNumberName":"V-component_of_WINDS"},"data":[0.0,0.0,0.0,0.0,0.0,0.0,0.0,0.0,0.0,0.0,0.0,0.0,0.0,0.0,0.0,0.0,0.0,0.0,0.0,0.0,0.0,0.0,0.0,0.0,0.0,0.0,0.0,0.0,0.0,0.0,0.0,0.0,0.0,0.0,0.0,0.0,0.0,0.0,0.0,0.0,0.0,0.0,0.0,0.0,0.0,0.0,0.0,0.0,0.0,0.0,0.0,0.0,0.0,0.0,0.0,0.0,0.0,0.0,0.0,0.0,0.0,0.0,0.0,0.0,0.0,0.0,0.0,0.0,0.0,0.0,0.0,0.0,0.0,0.0,0.0,0.0,0.0,0.0,0.0,0.0,0.0,0.0,0.0,0.0,0.0,0.0,0.0,0.0,0.0,0.0,0.0,0.0,0.0,0.0,0.0,0.0,0.0,0.0,0.0,0.0,0.0,0.0,0.0,0.0,0.0,0.0,0.0,0.0,0.0,0.0,0.0,0.0,0.0,0.0,0.0,0.0,0.0,0.0,0.0,0.0,0.0,0.0,0.0,0.0,0.0,0.0,0.0,0.0,0.0,0.0,0.0,0.0,0.0,0.0,0.0,0.0,0.0,0.0,0.0,0.0,0.0,0.0,0.0,0.0,0.0,0.0,0.0,0.0,0.0,0.0,0.0,0.0,0.0,0.0,0.0,0.0,0.0,0.0,0.0,0.0,0.0,0.0,0.0,0.0,0.0,0.0,0.0,0.0,0.0,0.0,0.0,0.0,0.0,0.0,0.0,0.0,0.0,0.0,0.0,0.0,0.0,0.0,0.0,0.0,0.0,0.0,0.0,0.0,0.0,0.0,0.0,0.0,0.0,0.0,0.0,0.0,0.0,0.0,0.0,0.0,0.0,0.0,0.0,0.0,0.0,0.0,0.0,0.0,0.0,0.0,0.0,0.0,0.0,0.0,0.0,0.0,0.0,0.0,0.0,0.0,0.0,0.0,0.0,0.0,0.0,0.0,0.0,0.0,0.0,0.0,0.0,0.0,0.0,0.0,0.0,0.0,0.0,0.0,0.0,0.0,0.0,0.0,0.0,0.0,0.0,0.0,0.0,0.0,0.0,0.0,0.0,0.0,0.0,0.0,0.0,0.0,0.0,0.0,0.0,0.0,0.0,0.0,0.0,0.0,0.0,0.0,0.0,0.0,0.0,0.0,0.0,0.0,0.0,0.0,0.0,0.0,0.0,0.0,0.0,0.0,0.0,0.0,0.0,0.0,0.0,0.0,0.0,0.0,0.0,0.0,0.0,0.0,0.0,0.0,0.0,0.0,0.0,0.0,0.0,0.0,0.0,0.0,0.0,0.0,0.0,0.0,0.0,0.0,0.0,0.0,0.0,0.0,0.0,0.0,0.0,0.0,0.0,0.0,0.0,0.0,0.0,0.0,0.0,0.0,0.0,0.0,0.0,0.0,0.0,0.0,0.0,0.0,0.0,0.0,0.0,0.0,0.0,0.0,0.0,0.0,0.0,0.0,0.0,0.0,0.0,0.0,0.0,0.0,0.0,0.0,0.0,0.0,0.0,0.0,0.0,0.0,0.0,0.0,0.0,0.0,0.0,0.0,0.0,0.0,0.0,0.0,0.0,0.0,0.0,0.0,0.0,0.0,0.0,0.0,0.0,0.0,0.0,0.0,0.0,0.0,0.0,0.0,0.0,0.0,0.0,0.0,0.0,0.0,0.0,0.0,0.0,0.0,0.0,0.0,0.0,0.0,0.0,0.0,0.0,0.0,0.0,0.0,0.0,0.0,0.0,0.0,0.0,0.0,0.0,0.0,0.0,0.0,0.0,0.0,0.0,0.0,0.0,0.0,0.0,0.0,0.0,0.0,0.0,0.0,0.0,0.0,0.0,0.0,0.0,0.0,0.0,0.0,0.0,0.0,0.0,0.0,0.0,0.0,0.0,0.0,0.0,0.0,0.0,0.0,0.0,0.0,0.0,0.0,0.0,0.0,0.0,0.0,0.0,0.0,0.0,0.0,0.0,0.0,0.0,0.0,0.0,0.0,0.0,0.0,0.0,0.0,0.0,0.0,0.0,0.0,0.0,0.0,0.0,0.0,0.0,0.0,0.0,0.0,0.0,0.0,0.0,0.0,0.0,0.0,0.0,0.0,0.0,0.0,0.0,0.0,0.0,0.0,0.0,0.0,0.0,0.0,0.0,0.0,0.0,0.0,0.0,0.0,0.0,0.0,0.0,0.0,0.0,0.0,0.0,0.0,0.0,0.0,0.0,0.0,0.0,0.0,0.0,0.0,0.0,0.0,0.0,0.0,0.0,0.0,0.0,0.0,0.0,0.0,0.0,0.0,0.0,0.0,0.0,0.0,0.0,0.0,0.0,0.0,0.0,0.0,0.0,0.0,0.0,0.0,0.0,0.0,0.0,0.0,0.0,0.0,0.0,0.0,0.0,0.0,0.0,0.0,0.0,0.0,0.0,0.0,0.0,0.0,0.0,0.0,0.0,0.0,0.0,0.0,0.0,0.0,0.0,0.0,0.0,0.0,0.0,0.0,0.0,0.0,0.0,0.0,0.0,0.0,0.0,0.0,0.0,0.0,0.0,0.0,0.0,0.0,0.0,0.0,0.0,0.0,0.0,0.0,0.0,0.0,0.0,0.0,0.0,0.0,0.0,0.0,0.0,0.0,0.0,0.0,0.0,0.0,0.0,0.0,0.0,0.0,0.0,0.0,0.0,0.0,0.0,0.0,0.0,0.0,0.0,0.0,0.0,0.0,0.0,0.0,0.0,0.0,0.0,0.0,0.0,0.0,0.0,0.0,0.0,0.0,0.0,0.0,0.0,0.0,0.0,0.0,0.0,0.0,0.0,0.0,0.0,0.0,0.0,0.0,0.0,0.0,0.0,0.0,0.0,0.0,0.0,0.0,0.0,0.0,0.0,0.0,0.0,0.0,0.0,0.0,0.0,0.0,0.0,0.0,0.0,0.0,0.0,0.0,0.0,0.0,0.0,0.0,0.0,0.0,0.0,0.0,0.0,0.0,0.0,0.0,0.0,0.0,0.0,0.0,0.0,0.0,0.0,0.0,0.0,0.0,0.0,0.0,0.0,0.0,0.0,0.0,0.0,0.0,0.0,0.0,0.0,0.0,0.0,0.0,0.0,0.0,0.0,0.0,0.0,0.0,0.0,0.0,0.0,0.0,0.0,0.0,0.0,0.0,0.0,0.0,0.0,0.0,0.0,0.0,0.0,0.0,0.0,0.0,0.0,0.0,0.0,0.0,0.0,0.0,0.0,0.0,0.0,0.0,0.0,0.0,0.0,0.0,0.0,0.0,0.0,0.0,0.0,0.0,0.0,0.0,0.0,0.0,0.0,0.0,0.0,0.0,0.0,0.0,0.0,0.0,0.0,0.0,0.0,0.0,0.0,0.0,0.0,0.0,0.0,0.0,0.0,0.0,0.0,0.0,0.0,0.0,0.0,0.0,0.0,0.0,0.0,0.0,0.0,0.0,0.0,0.0,0.0,0.0,0.0,0.0,0.0,0.0,0.0,0.0,0.0,0.0,0.0,0.0,0.0,0.0,0.0,0.0,0.0,0.0,0.0,0.0,0.0,0.0,0.0,0.0,0.0,0.0,0.0,0.0,0.0,0.0,0.0,0.0,0.0,0.0,0.0,0.0,0.0,0.0,0.0,0.0,0.0,0.0,0.0,0.0,0.0,0.0,0.0,0.0,0.0,0.0,0.0,0.0,0.0,0.0,0.0,0.0,0.0,0.0,0.0,0.0,0.0,0.0,0.0,0.0,0.0,0.0,0.0,0.0,0.0,0.0,0.0,0.0,0.0,0.0,0.0,0.0,0.0,0.0,0.0,0.0,0.0,0.0,0.0,0.0,0.0,0.0,0.0,0.0,0.0,0.0,0.0,0.0,0.0,0.0,0.0,0.0,0.0,0.0,0.0,0.0,0.0,0.0,0.0,0.0,0.0,0.0,0.0,0.0,0.0,0.0,0.0,0.0,0.0,0.0,0.0,0.0,0.0,0.0,0.0,0.0,0.0,0.0,0.0,0.0,0.0,0.0,0.0,0.0,0.0,0.0,0.0,0.0,0.0,0.0,0.0,0.0,0.0,0.0,0.0,0.0,0.0,0.0,0.0,0.0,0.0,0.0,0.0,0.0,0.0,0.0,0.0,0.0,0.0,0.0,0.0,0.0,0.0,0.0,0.0,0.0,0.0,0.0,0.0,0.0,0.0,0.0,0.0,0.0,0.0,0.0,0.0,0.0,-0.7575,0.0,0.0,0.0,0.0,0.0,0.0,0.0,0.0,0.0,0.0,0.0,0.0,0.0,0.0,0.0,0.0,0.0,0.0,0.0,0.0,0.0,0.0,0.0,0.0,0.0,0.0,0.0,0.0,0.0,0.0,0.0,0.0,0.0,0.0,0.0,0.0,0.0,0.0,0.0,0.0,0.0,0.0,0.0,0.0,0.0,0.0,0.0,0.0,0.0,0.0,0.0,0.0,0.0,0.0,0.0,0.0,0.0,0.0,0.0,0.0,0.0,0.0,0.0,0.0,0.0,0.0,0.0,0.0,0.0,0.0,0.0,0.0,0.0,0.0,0.0,0.0,0.0,0.0,0.0,0.0,0.0,0.0,0.0,0.0,0.0,0.0,0.0,0.0,0.0,0.0,0.0,0.0,0.0,0.0,0.0,0.0,0.0,0.0,0.0,0.0,0.0,0.0,0.0,0.0,0.0,0.0,0.0,0.0,0.0,0.0,-0.7002,-0.7209,-0.7348,-0.7485,-0.759,0.0,0.0,0.0,0.0,0.0,0.0,0.0,0.0,0.0,0.0,0.0,0.0,0.0,0.0,0.0,0.0,0.0,0.0,0.0,0.0,0.0,0.0,0.0,0.0,0.0,0.0,0.0,0.0,0.0,0.0,0.0,0.0,0.0,0.0,0.0,0.0,0.0,0.0,0.0,0.0,0.0,0.0,0.0,0.0,0.0,0.0,0.0,0.0,0.0,0.0,0.0,0.0,0.0,0.0,0.0,0.0,0.0,0.0,0.0,0.0,0.0,0.0,0.0,0.0,0.0,0.0,0.0,0.0,0.0,0.0,0.0,0.0,0.0,0.0,0.0,0.0,0.0,0.0,0.0,0.0,0.0,0.0,0.0,0.0,0.0,0.0,0.0,0.0,0.0,0.0,0.0,0.0,0.0,0.0,0.0,0.0,0.0,0.0,0.0,0.0,0.0,0.0,0.0,0.0,0.0,0.0,0.0,0.0,0.0,0.0,0.0,0.0,-0.813,-0.8273,-0.8322,0.0,0.0,0.0,0.0,0.0,0.0,0.0,0.0,0.0,0.0,0.0,0.0,0.0,0.0,0.0,0.0,0.0,0.0,0.0,0.0,0.0,0.0,0.0,0.0,0.0,0.0,0.0,0.0,0.0,0.0,0.0,0.0,0.0,0.0,0.0,0.0,0.0,0.0,0.0,0.0,0.0,0.0,0.0,0.0,0.0,0.0,0.0,0.0,0.0,0.0,0.0,0.0,0.0,0.0,0.0,0.0,0.0,0.0,0.0,0.0,0.0,0.0,0.0,0.0,0.0,0.0,0.0,0.0,0.0,0.0,0.0,0.0,0.0,0.0,0.0,0.0,0.0,0.0,0.0,0.0,0.0,0.0,0.0,0.0,0.0,0.0,0.0,0.0,0.0,0.0,0.0,0.0,0.0,0.0,0.0,0.0,0.0,0.0,0.0,0.0,0.0,0.0,0.0,0.0,0.0,0.0,0.0,0.0,0.0,0.0,-0.7971,-1.0126,-1.0204,0.0,-1.0441,0.0,0.0,0.0,0.0,0.0,0.0,0.0,0.0,0.0,0.0,0.0,0.0,0.0,0.0,0.0,0.0,0.0,0.0,0.0,0.0,0.0,0.0,0.0,0.0,0.0,0.0,0.0,0.0,0.0,0.0,0.0,0.0,0.0,0.0,0.0,0.0,0.0,0.0,0.0,0.0,0.0,0.0,0.0,0.0,0.0,0.0,0.0,0.0,0.0,0.0,0.0,0.0,0.0,0.0,0.0,0.0,0.0,0.0,0.0,0.0,0.0,0.0,0.0,0.0,0.0,0.0,0.0,0.0,0.0,0.0,0.0,0.0,0.0,0.0,0.0,0.0,0.0,0.0,0.0,0.0,0.0,0.0,0.0,0.0,0.0,0.0,0.0,0.0,0.0,0.0,0.0,0.0,0.0,0.0,0.0,0.0,0.0,0.0,0.0,0.0,0.0,0.0,0.0,0.0,0.0,0.0,0.0,0.0,0.0,0.0,0.0,-1.0648,-1.0663,-1.0718,0.0,0.0,0.0,0.0,0.0,0.0,0.0,0.0,0.0,0.0,0.0,0.0,0.0,0.0,0.0,0.0,0.0,0.0,0.0,0.0,0.0,0.0,0.0,0.0,0.0,0.0,0.0,0.0,0.0,0.0,0.0,0.0,0.0,0.0,0.0,0.0,0.0,0.0,0.0,0.0,0.0,0.0,0.0,0.0,0.0,0.0,0.0,0.0,0.0,0.0,0.0,0.0,0.0,0.0,0.0,0.0,0.0,0.0,0.0,0.0,0.0,0.0,0.0,0.0,0.0,0.0,0.0,0.0,0.0,0.0,0.0,0.0,0.0,0.0,0.0,0.0,0.0,0.0,0.0,0.0,0.0,0.0,0.0,0.0,0.0,0.0,0.0,0.0,0.0,0.0,0.0,0.0,0.0,0.0,0.0,0.0,0.0,0.0,0.0,0.0,0.0,0.0,0.0,0.0,0.0,0.0,0.0,0.0,0.0,0.0,-1.0313,0.0,-1.1574,-1.126,-1.0992,-1.0798,0.0,0.0,0.0,0.0,0.0,0.0,0.0,0.0,0.0,0.0,0.0,0.0,0.0,0.0,0.0,0.0,0.0,0.0,0.0,0.0,0.0,0.0,0.0,0.0,0.0,0.0,0.0,0.0,0.0,0.0,0.0,0.0,0.0,0.0,0.0,0.0,0.0,0.0,0.0,0.0,0.0,0.0,0.0,0.0,0.0,0.0,0.0,0.0,0.0,0.0,0.0,0.0,0.0,0.0,0.0,0.0,0.0,0.0,0.0,0.0,0.0,0.0,0.0,0.0,0.0,0.0,0.0,0.0,0.0,0.0,0.0,0.0,0.0,0.0,0.0,0.0,0.0,0.0,0.0,0.0,0.0,0.0,0.0,0.0,0.0,0.0,0.0,0.0,0.0,0.0,0.0,0.0,0.0,0.0,0.0,0.0,0.0,0.0,0.0,0.0,0.0,0.0,0.0,0.0,0.0,0.0,0.0,0.0,0.0,-1.1505,-1.152,-1.3545,-1.2418,-1.1461,0.0,0.0,0.0,0.0,0.0,0.0,0.0,0.0,0.0,0.0,0.0,0.0,0.0,0.0,0.0,0.0,0.0,0.0,0.0,0.0,0.0,0.0,0.0,0.0,0.0,0.0,0.0,0.0,0.0,0.0,0.0,0.0,0.0,0.0,0.0,0.0,0.0,0.0,0.0,0.0,0.0,0.0,0.0,0.0,0.0,0.0,0.0,0.0,0.0,0.0,0.0,0.0,0.0,0.0,0.0,0.0,0.0,0.0,0.0,0.0,0.0,0.0,0.0,0.0,0.0,0.0,0.0,0.0,0.0,0.0,0.0,0.0,0.0,0.0,0.0,0.0,0.0,0.0,0.0,0.0,0.0,0.0,0.0,0.0,0.0,0.0,0.0,0.0,0.0,0.0,0.0,0.0,0.0,0.0,0.0,0.0,0.0,0.0,0.0,0.0,0.0,0.0,0.0,0.0,0.0,0.0,0.0,0.0,0.0,-0.995,-1.0441,-1.2097,-1.4869,-1.2553,-1.1425,0.0,0.0,0.0,0.0,0.0,0.0,0.0,0.0,0.0,0.0,0.0,0.0,0.0,0.0,0.0,0.0,0.0,0.0,0.0,0.0,0.0,0.0,0.0,0.0,0.0,0.0,0.0,0.0,0.0,0.0,0.0,0.0,0.0,0.0,0.0,0.0,0.0,0.0,0.0,0.0,0.0,0.0,0.0,0.0,0.0,0.0,0.0,0.0,0.0,0.0,0.0,0.0,0.0,0.0,0.0,0.0,0.0,0.0,0.0,0.0,0.0,0.0,0.0,0.0,0.0,0.0,0.0,0.0,0.0,0.0,0.0,0.0,0.0,0.0,0.0,0.0,0.0,0.0,0.0,0.0,0.0,0.0,0.0,0.0,0.0,0.0,0.0,0.0,0.0,0.0,0.0,0.0,0.0,0.0,0.0,0.0,0.0,0.0,0.0,0.0,0.0,0.0,0.0,0.0,0.0,0.0,0.0,0.0,0.0,-0.9471,0.0,-1.2987,0.0,-1.2433,-1.1161,0.0,0.0,0.0,0.0,0.0,0.0,0.0,0.0,0.0,0.0,0.0,0.0,0.0,0.0,0.0,0.0,0.0,0.0,0.0,0.0,0.0,0.0,0.0,0.0,0.0,0.0,0.0,0.0,0.0,0.0,0.0,0.0,0.0,0.0,0.0,0.0,0.0,0.0,0.0,0.0,0.0,0.0,0.0,0.0,0.0,0.0,0.0,0.0,0.0,0.0,0.0,0.0,0.0,0.0,0.0,0.0,0.0,0.0,0.0,0.0,0.0,0.0,0.0,0.0,0.0,0.0,0.0,0.0,0.0,0.0,0.0,0.0,0.0,0.0,0.0,0.0,0.0,0.0,0.0,0.0,0.0,0.0,0.0,0.0,0.0,0.0,0.0,0.0,0.0,0.0,0.0,0.0,0.0,0.0,0.0,0.0,0.0,0.0,0.0,0.0,0.0,0.0,0.0,0.0,0.0,0.0,0.0,0.0,-0.9488,-1.2576,-1.397,-1.4075,-1.2906,-1.2141,-1.0578,0.0,0.0,0.0,0.0,0.0,0.0,0.0,0.0,0.0,0.0,0.0,0.0,0.0,0.0,0.0,0.0,0.0,0.0,0.0,0.0,0.0,0.0,0.0,0.0,0.0,0.0,0.0,0.0,0.0,0.0,0.0,0.0,0.0,0.0,0.0,0.0,0.0,0.0,0.0,0.0,0.0,0.0,0.0,0.0,0.0,0.0,0.0,0.0,0.0,0.0,0.0,0.0,0.0,0.0,0.0,0.0,0.0,0.0,0.0,0.0,0.0,0.0,0.0,0.0,0.0,0.0,0.0,0.0,0.0,0.0,0.0,0.0,0.0,0.0,0.0,0.0,0.0,0.0,0.0,0.0,0.0,0.0,0.0,0.0,0.0,0.0,0.0,0.0,0.0,0.0,0.0,0.0,0.0,0.0,0.0,0.0,0.0,0.0,0.0,0.0,0.0,0.0,0.0,0.0,0.0,0.0,0.0,0.0,0.0,-1.0817,-1.2493,-1.367,-1.4075,-1.1775,-1.0743,0.0,0.0,0.0,0.0,0.0,0.0,0.0,0.0,0.0,0.0,0.0,0.0,0.0,0.0,0.0,0.0,0.0,0.0,0.0,0.0,0.0,0.0,0.0,0.0,0.0,0.0,0.0,0.0,0.0,0.0,0.0,0.0,0.0,0.0,0.0,0.0,0.0,0.0,0.0,0.0,0.0,0.0,0.0,0.0,0.0,0.0,0.0,0.0,0.0,0.0,0.0,0.0,0.0,0.0,0.0,0.0,0.0,0.0,0.0,0.0,0.0,0.0,0.0,0.0,0.0,0.0,0.0,0.0,0.0,0.0,0.0,0.0,0.0,0.0,0.0,0.0,0.0,0.0,0.0,0.0,0.0,0.0,0.0,0.0,0.0,0.0,0.0,0.0,0.0,0.0,0.0,0.0,0.0,0.0,0.0,0.0,0.0,0.0,0.0,0.0,0.0,0.0,0.0,0.0,0.0,0.0,0.0,0.0,0.0,-1.182,-1.3376,-1.4423,-1.4809,-1.2553,-1.1461,-1.1647,0.0,0.0,0.0,0.0,0.0,0.0,0.0,0.0,0.0,0.0,0.0,0.0,0.0,0.0,0.0,0.0,0.0,0.0,0.0,0.0,0.0,0.0,0.0,0.0,0.0,0.0,0.0,0.0,0.0,0.0,0.0,0.0,0.0,0.0,0.0,0.0,0.0,0.0,0.0,0.0,0.0,0.0,0.0,0.0,0.0,0.0,0.0,0.0,0.0,0.0,0.0,0.0,0.0,0.0,0.0,0.0,0.0,0.0,0.0,0.0,0.0,0.0,0.0,0.0,0.0,0.0,0.0,0.0,0.0,0.0,0.0,0.0,0.0,0.0,0.0,0.0,0.0,0.0,0.0,0.0,0.0,0.0,0.0,0.0,0.0,0.0,0.0,0.0,0.0,0.0,0.0,0.0,0.0,0.0,0.0,0.0,0.0,0.0,0.0,0.0,0.0,0.0,0.0,0.0,0.0,0.0,0.0,0.0,-1.4842,-1.6129,-1.6234,-1.5081,-1.4214,-1.2643,0.0,0.0,0.0,0.0,0.0,0.0,0.0,0.0,0.0,0.0,0.0,0.0,0.0,0.0,0.0,0.0,0.0,0.0,0.0,0.0,0.0,0.0,0.0,0.0,0.0,0.0,0.0,0.0,0.0,0.0,0.0,0.0,0.0,0.0,0.0,0.0,0.0,0.0,0.0,0.0,0.0,0.0,0.0,0.0,0.0,0.0,0.0,0.0,0.0,0.0,0.0,0.0,0.0,0.0,0.0,0.0,0.0,0.0,0.0,0.0,0.0,0.0,0.0,0.0,0.0,0.0,0.0,0.0,0.0,0.0,0.0,0.0,0.0,0.0,0.0,0.0,0.0,0.0,0.0,0.0,0.0,0.0,0.0,0.0,0.0,0.0,0.0,0.0,0.0,0.0,0.0,0.0,0.0,0.0,0.0,0.0,0.0,0.0,0.0,0.0,0.0,0.0,0.0,0.0,0.0,0.0,0.0,0.0,0.0,-1.5532,-1.7266,-1.8029,-1.764,-1.5156,-1.3471,0.0,0.0,0.0,0.0,0.0,0.0,0.0,0.0,0.0,0.0,0.0,0.0,0.0,0.0,0.0,0.0,0.0,0.0,0.0,0.0,0.0,0.0,0.0,0.0,0.0,0.0,0.0,0.0,0.0,0.0,0.0,0.0,0.0,0.0,0.0,0.0,0.0,0.0,0.0,0.0,0.0,0.0,0.0,0.0,0.0,0.0,0.0,0.0,0.0,0.0,0.0,0.0,0.0,0.0,0.0,0.0,0.0,0.0,0.0,0.0,0.0,0.0,0.0,0.0,0.0,0.0,0.0,0.0,0.0,0.0,0.0,0.0,0.0,0.0,0.0,0.0,0.0,0.0,0.0,0.0,0.0,0.0,0.0,0.0,0.0,0.0,0.0,0.0,0.0,0.0,0.0,0.0,0.0,0.0,0.0,0.0,0.0,0.0,0.0,0.0,0.0,0.0,0.0,0.0,0.0,0.0,0.0,0.0,-1.4738,-1.6982,-1.8388,-1.9106,-1.9121,-1.6712,-1.4797,0.0,0.0,0.0,0.0,0.0,0.0,0.0,0.0,0.0,0.0,0.0,0.0,0.0,0.0,0.0,0.0,0.0,0.0,0.0,0.0,0.0,0.0,0.0,0.0,0.0,0.0,0.0,0.0,0.0,0.0,0.0,0.0,0.0,0.0,0.0,0.0,0.0,0.0,0.0,0.0,0.0,0.0,0.0,0.0,0.0,0.0,0.0,0.0,0.0,0.0,0.0,0.0,0.0,0.0,0.0,0.0,0.0,0.0,0.0,0.0,0.0,0.0,0.0,0.0,0.0,0.0,0.0,0.0,0.0,0.0,0.0,0.0,0.0,0.0,0.0,0.0,0.0,0.0,0.0,0.0,0.0,0.0,0.0,0.0,0.0,0.0,0.0,0.0,0.0,0.0,0.0,0.0,0.0,0.0,0.0,0.0,0.0,0.0,0.0,0.0,0.0,0.0,0.0,0.0,0.0,0.0,0.0,0.0,-1.6107,-1.8534,-1.9316,-1.969,-1.966,-1.8343,-1.6174,0.0,0.0,0.0,0.0,0.0,0.0,0.0,0.0,0.0,0.0,0.0,0.0,0.0,0.0,0.0,0.0,0.0,0.0,0.0,0.0,0.0,0.0,0.0,0.0,0.0,0.0,0.0,0.0,0.0,0.0,0.0,0.0,0.0,0.0,0.0,0.0,0.0,0.0,0.0,0.0,0.0,0.0,0.0,0.0,0.0,0.0,0.0,0.0,0.0,0.0,0.0,0.0,0.0,0.0,0.0,0.0,0.0,0.0,0.0,0.0,0.0,0.0,0.0,0.0,0.0,0.0,0.0,0.0,0.0,0.0,0.0,0.0,0.0,0.0,0.0,0.0,0.0,0.0,0.0,0.0,0.0,0.0,0.0,0.0,0.0,0.0,0.0,0.0,0.0,0.0,0.0,0.0,0.0,0.0,0.0,0.0,0.0,0.0,0.0,0.0,0.0,0.0,0.0,0.0,0.0,0.0,0.0,0.0,-1.6329,-1.7891,-1.9076,-1.9705,-1.9675,-1.7876,-1.6114,0.0,0.0,0.0,0.0,0.0,0.0,0.0,0.0,0.0,0.0,0.0,0.0,0.0,0.0,0.0,0.0,0.0,0.0,0.0,0.0,0.0,0.0,0.0,0.0,0.0,0.0,0.0,0.0,0.0,0.0,0.0,0.0,0.0,0.0,0.0,0.0,0.0,0.0,0.0,0.0,0.0,0.0,0.0,0.0,0.0,0.0,0.0,0.0,-1.1519,0.0,0.0,0.0,0.0,0.0,0.0,0.0,0.0,0.0,0.0,0.0,0.0,0.0,0.0,0.0,0.0,0.0,0.0,0.0,0.0,0.0,0.0,0.0,0.0,0.0,0.0,0.0,0.0,0.0,0.0,0.0,0.0,0.0,0.0,0.0,0.0,0.0,0.0,0.0,0.0,0.0,0.0,0.0,0.0,0.0,0.0,0.0,0.0,0.0,0.0,0.0,0.0,0.0,0.0,0.0,0.0,0.0,0.0,0.0,-1.7008,-1.8608,-1.9316,-1.9705,-1.9645,-1.8358,-1.6726,0.0,0.0,0.0,0.0,0.0,0.0,0.0,0.0,0.0,0.0,0.0,0.0,0.0,0.0,0.0,0.0,0.0,0.0,0.0,0.0,0.0,0.0,0.0,0.0,0.0,0.0,0.0,0.0,0.0,0.0,0.0,0.0,0.0,0.0,0.0,0.0,0.0,0.0,0.0,0.0,0.0,0.0,0.0,0.0,0.0,0.0,0.0,0.0,0.0,0.0,0.0,0.0,0.0,0.0,0.0,0.0,0.0,0.0,0.0,0.0,0.0,0.0,0.0,0.0,0.0,0.0,0.0,0.0,0.0,0.0,0.0,0.0,0.0,0.0,0.0,0.0,0.0,0.0,0.0,0.0,0.0,0.0,0.0,0.0,0.0,0.0,0.0,0.0,0.0,0.0,0.0,0.0,0.0,0.0,0.0,0.0,0.0,0.0,0.0,0.0,0.0,0.0,0.0,0.0,0.0,0.0,0.0,-1.5726,-1.7569,-1.9594,-1.9705,-1.9705,-1.9675,-1.9046,-1.7475,-1.4929,0.0,0.0,0.0,0.0,0.0,0.0,0.0,0.0,0.0,0.0,0.0,0.0,0.0,0.0,0.0,0.0,0.0,0.0,0.0,0.0,0.0,0.0,0.0,0.0,0.0,0.0,0.0,0.0,0.0,0.0,0.0,0.0,0.0,0.0,0.0,0.0,0.0,0.0,-1.0402,-1.2295,0.0,0.0,0.0,0.0,0.0,0.0,0.0,0.0,-1.321,0.0,0.0,0.0,0.0,0.0,0.0,0.0,0.0,0.0,0.0,0.0,0.0,0.0,0.0,0.0,0.0,0.0,0.0,0.0,0.0,0.0,0.0,0.0,0.0,0.0,0.0,0.0,0.0,0.0,0.0,0.0,0.0,0.0,0.0,0.0,0.0,0.0,0.0,0.0,0.0,0.0,0.0,0.0,0.0,0.0,0.0,0.0,0.0,0.0,0.0,0.0,0.0,0.0,0.0,0.0,0.0,-1.5424,-1.582,-1.7177,-1.9609,-1.9705,-1.9705,-1.9675,-1.9046,-1.7475,-1.4932,0.0,0.0,0.0,0.0,0.0,0.0,0.0,0.0,0.0,0.0,0.0,0.0,0.0,0.0,0.0,0.0,0.0,0.0,0.0,0.0,0.0,0.0,0.0,0.0,0.0,0.0,0.0,0.0,0.0,0.0,0.0,0.0,0.0,0.0,0.0,0.0,0.0,0.0,0.0,-1.3701,-1.4597,0.0,0.0,0.0,0.0,0.0,0.0,0.0,0.0,-1.3786,0.0,0.0,0.0,0.0,0.0,0.0,0.0,0.0,0.0,0.0,0.0,0.0,0.0,0.0,0.0,0.0,0.0,0.0,0.0,0.0,0.0,0.0,0.0,0.0,0.0,0.0,0.0,0.0,0.0,0.0,0.0,0.0,0.0,0.0,0.0,0.0,0.0,0.0,0.0,0.0,0.0,0.0,0.0,0.0,0.0,0.0,0.0,0.0,0.0,0.0,0.0,0.0,0.0,0.0,0.0,-1.4689,-1.6108,-1.7727,-1.9609,-1.9705,-1.9705,-1.966,-1.8388,-1.6772,0.0,0.0,0.0,0.0,0.0,0.0,0.0,0.0,0.0,0.0,0.0,0.0,0.0,0.0,0.0,0.0,0.0,0.0,0.0,0.0,0.0,0.0,0.0,0.0,0.0,0.0,0.0,0.0,0.0,0.0,0.0,0.0,0.0,0.0,0.0,0.0,0.0,0.0,0.0,0.0,-1.5086,-1.5959,-1.6832,0.0,0.0,0.0,0.0,0.0,0.0,-1.5801,-1.5246,0.0,0.0,0.0,0.0,0.0,0.0,0.0,0.0,0.0,0.0,0.0,0.0,0.0,0.0,0.0,0.0,0.0,0.0,0.0,0.0,0.0,0.0,0.0,0.0,0.0,0.0,0.0,0.0,0.0,0.0,0.0,0.0,0.0,0.0,0.0,0.0,0.0,0.0,0.0,0.0,0.0,0.0,0.0,0.0,0.0,0.0,0.0,0.0,0.0,0.0,0.0,0.0,0.0,0.0,0.0,-1.381,-1.6124,-1.8094,-1.9609,-1.9705,-1.9705,-1.966,-1.7876,-1.6189,0.0,0.0,0.0,0.0,0.0,0.0,0.0,0.0,0.0,0.0,0.0,0.0,0.0,0.0,0.0,0.0,0.0,0.0,0.0,0.0,0.0,0.0,0.0,0.0,0.0,0.0,0.0,0.0,0.0,0.0,0.0,0.0,0.0,0.0,0.0,0.0,0.0,0.0,0.0,0.0,0.0,-1.7702,-1.8322,-1.8193,0.0,0.0,0.0,0.0,-1.732,-1.7241,0.0,0.0,0.0,0.0,0.0,0.0,0.0,0.0,0.0,0.0,0.0,0.0,0.0,0.0,0.0,0.0,0.0,0.0,0.0,0.0,0.0,0.0,0.0,0.0,0.0,0.0,0.0,0.0,0.0,0.0,0.0,0.0,0.0,0.0,0.0,0.0,0.0,0.0,0.0,0.0,0.0,0.0,0.0,0.0,0.0,0.0,0.0,0.0,0.0,0.0,0.0,0.0,0.0,0.0,0.0,0.0,-1.374,-1.5249,-1.7241,-1.9564,-1.9705,-1.9705,-1.9675,-1.8343,-1.6428,0.0,0.0,0.0,0.0,0.0,0.0,0.0,0.0,0.0,0.0,0.0,0.0,0.0,0.0,0.0,0.0,0.0,0.0,0.0,0.0,0.0,0.0,0.0,0.0,0.0,0.0,0.0,0.0,0.0,0.0,0.0,0.0,0.0,0.0,0.0,0.0,0.0,0.0,0.0,0.0,0.0,-1.9831,-1.926,-1.8944,-1.8741,0.0,0.0,-1.8877,-1.9512,-1.908,0.0,0.0,0.0,0.0,0.0,0.0,0.0,0.0,0.0,0.0,0.0,0.0,0.0,0.0,0.0,0.0,0.0,0.0,0.0,0.0,0.0,0.0,0.0,0.0,0.0,0.0,0.0,0.0,0.0,0.0,0.0,0.0,0.0,0.0,0.0,0.0,0.0,0.0,0.0,0.0,0.0,0.0,0.0,0.0,0.0,0.0,0.0,0.0,0.0,0.0,0.0,0.0,0.0,0.0,0.0,-1.1907,-1.3795,-1.5823,-1.7791,-1.9609,-1.9705,-1.9705,-1.969,-1.77,-1.574,0.0,0.0,0.0,0.0,0.0,0.0,0.0,0.0,0.0,0.0,0.0,0.0,0.0,0.0,0.0,0.0,0.0,0.0,0.0,0.0,0.0,0.0,0.0,0.0,0.0,0.0,0.0,0.0,0.0,0.0,0.0,0.0,0.0,0.0,0.0,0.0,0.0,0.0,0.0,0.0,0.0,0.0,-2.0483,-2.0481,0.0,0.0,0.0,-2.0318,-2.0027,0.0,0.0,0.0,0.0,0.0,0.0,0.0,0.0,0.0,0.0,0.0,0.0,0.0,0.0,0.0,0.0,0.0,0.0,0.0,0.0,0.0,0.0,0.0,0.0,0.0,0.0,0.0,0.0,0.0,0.0,0.0,0.0,0.0,0.0,0.0,0.0,0.0,0.0,0.0,0.0,0.0,0.0,0.0,0.0,0.0,0.0,0.0,0.0,0.0,0.0,0.0,0.0,0.0,0.0,0.0,0.0,0.0,-1.3835,-1.6384,-1.8346,-1.966,-1.9705,-1.9636,-1.9405,-1.7371,0.0,0.0,0.0,0.0,0.0,0.0,0.0,0.0,0.0,0.0,0.0,0.0,0.0,0.0,0.0,0.0,0.0,0.0,0.0,0.0,0.0,0.0,0.0,0.0,0.0,0.0,0.0,-0.7155,0.0,0.0,0.0,0.0,0.0,0.0,0.0,0.0,0.0,0.0,0.0,0.0,0.0,0.0,-2.0468,-2.1479,-2.184,-2.1913,0.0,0.0,-2.1722,-2.0923,-2.1475,-2.1272,0.0,0.0,0.0,0.0,0.0,0.0,0.0,0.0,0.0,0.0,0.0,0.0,0.0,0.0,0.0,0.0,0.0,0.0,0.0,0.0,0.0,0.0,0.0,0.0,0.0,0.0,0.0,0.0,0.0,0.0,0.0,0.0,0.0,0.0,0.0,0.0,0.0,0.0,0.0,0.0,0.0,0.0,0.0,0.0,0.0,0.0,0.0,0.0,0.0,0.0,0.0,0.0,0.0,0.0,0.0,-1.385,-1.6369,-1.8346,-1.966,-1.9705,-1.939,-1.8777,-1.8014,-1.6099,0.0,0.0,0.0,0.0,0.0,0.0,0.0,0.0,0.0,0.0,0.0,0.0,0.0,0.0,0.0,0.0,0.0,0.0,0.0,0.0,0.0,0.0,0.0,0.0,0.0,0.0,0.0,0.0,0.0,0.0,0.0,0.0,0.0,0.0,0.0,0.0,0.0,0.0,0.0,0.0,0.0,-2.2207,-2.1993,-2.2611,-2.3094,0.0,0.0,-2.3059,-2.3,-2.3035,-2.2299,-2.0096,0.0,0.0,0.0,0.0,0.0,0.0,0.0,0.0,0.0,0.0,0.0,0.0,0.0,0.0,0.0,0.0,0.0,0.0,0.0,0.0,0.0,0.0,0.0,0.0,0.0,0.0,0.0,0.0,0.0,0.0,0.0,0.0,0.0,0.0,0.0,0.0,0.0,0.0,0.0,0.0,0.0,0.0,0.0,0.0,0.0,0.0,0.0,0.0,0.0,0.0,0.0,0.0,0.0,-1.2459,-1.3795,-1.6384,-1.8346,-1.966,-1.9705,-1.9555,-1.9316,-1.825,-1.6563,0.0,0.0,0.0,0.0,0.0,0.0,0.0,0.0,0.0,0.0,0.0,0.0,0.0,0.0,0.0,0.0,0.0,0.0,0.0,0.0,0.0,0.0,0.0,0.0,0.0,0.0,0.0,0.0,-0.8877,-0.9157,-0.9573,0.0,0.0,0.0,0.0,0.0,0.0,0.0,0.0,0.0,0.0,-2.3209,-2.3185,-2.3995,0.0,0.0,-2.4513,-2.4445,-2.401,-2.4123,-2.3611,-2.1765,-2.1635,0.0,0.0,0.0,0.0,0.0,0.0,0.0,0.0,0.0,0.0,0.0,0.0,0.0,0.0,0.0,0.0,0.0,0.0,0.0,0.0,0.0,0.0,0.0,0.0,0.0,0.0,0.0,0.0,0.0,0.0,0.0,0.0,0.0,0.0,0.0,0.0,0.0,0.0,0.0,0.0,0.0,0.0,0.0,0.0,0.0,0.0,0.0,0.0,0.0,0.0,0.0,0.0,-1.2573,-1.4079,-1.6485,-1.8346,-1.9675,-1.9705,-1.9636,-1.9375,-1.8313,-1.6802,0.0,0.0,0.0,0.0,0.0,0.0,0.0,0.0,0.0,0.0,0.0,0.0,0.0,0.0,0.0,0.0,0.0,0.0,0.0,0.0,0.0,0.0,0.0,0.0,0.0,0.0,0.0,0.0,-0.9394,-0.9583,-0.9691,0.0,0.0,0.0,0.0,0.0,0.0,0.0,0.0,0.0,0.0,-2.3938,-2.4179,-2.5047,-2.5628,-2.5543,-2.54,-2.5151,-2.4753,-2.4906,-2.449,-2.291,0.0,0.0,0.0,0.0,0.0,0.0,0.0,0.0,0.0,0.0,0.0,0.0,0.0,0.0,0.0,0.0,0.0,0.0,0.0,0.0,0.0,0.0,0.0,0.0,0.0,0.0,0.0,0.0,0.0,0.0,-0.6599,0.0,0.0,0.0,0.0,0.0,0.0,0.0,0.0,0.0,0.0,0.0,0.0,0.0,0.0,0.0,0.0,0.0,0.0,0.0,0.0,0.0,0.0,-1.2797,-1.4764,-1.6702,-1.8346,-1.966,-1.9705,-1.9375,-1.8777,-1.8041,-1.6771,-1.4812,0.0,0.0,0.0,0.0,0.0,0.0,0.0,0.0,0.0,0.0,0.0,0.0,0.0,0.0,0.0,0.0,0.0,0.0,0.0,0.0,0.0,0.0,0.0,0.0,0.0,0.0,-0.9284,-0.9534,-0.9691,0.0,0.0,0.0,0.0,0.0,0.0,0.0,0.0,0.0,0.0,-2.2974,-2.4365,-2.4829,-2.5523,-2.6146,-2.6483,-2.5611,-2.4996,-2.5338,-2.5399,-2.4832,0.0,0.0,0.0,0.0,0.0,0.0,0.0,0.0,0.0,0.0,0.0,0.0,0.0,0.0,0.0,0.0,0.0,0.0,0.0,0.0,0.0,0.0,0.0,0.0,0.0,0.0,0.0,-0.8921,-0.8291,0.0,0.0,0.0,0.0,0.0,0.0,0.0,0.0,0.0,0.0,0.0,-1.3755,-1.4586,0.0,0.0,0.0,0.0,0.0,0.0,0.0,0.0,0.0,0.0,0.0,0.0,-1.3229,-1.4812,-1.7162,-1.8811,-1.9675,-1.9705,-1.957,-1.9346,-1.8298,-1.6593,-1.4214,0.0,0.0,0.0,0.0,0.0,0.0,0.0,0.0,0.0,0.0,0.0,0.0,0.0,0.0,0.0,0.0,0.0,0.0,0.0,0.0,0.0,0.0,0.0,0.0,0.0,-0.9064,0.0,0.0,0.0,0.0,0.0,0.0,0.0,0.0,0.0,0.0,0.0,-2.2117,-2.3104,-2.4954,-2.6188,-2.6114,-2.6523,-2.6915,0.0,0.0,0.0,0.0,0.0,0.0,0.0,0.0,0.0,0.0,0.0,0.0,0.0,0.0,-2.6854,-2.2592,-2.1565,-2.1528,-2.2079,0.0,0.0,0.0,0.0,0.0,0.0,0.0,0.0,0.0,0.0,0.0,0.0,0.0,0.0,-1.0611,0.0,-0.9962,0.0,0.0,0.0,0.0,0.0,0.0,0.0,0.0,-1.3664,-1.4935,-1.5694,-1.6397,-1.6768,0.0,-1.6588,-1.5246,0.0,0.0,0.0,0.0,0.0,0.0,0.0,0.0,-1.3905,-1.5475,-1.7589,-1.9015,-1.9675,-1.9705,-1.9705,-1.9675,-1.8403,-1.6562,-1.4229,-1.3092,-1.1895,0.0,0.0,0.0,0.0,0.0,0.0,0.0,0.0,0.0,0.0,0.0,0.0,0.0,0.0,0.0,0.0,0.0,0.0,0.0,0.0,0.0,0.0,0.0,-0.9234,0.0,0.0,0.0,0.0,0.0,0.0,0.0,0.0,0.0,-1.9696,-2.1771,-2.3702,-2.5032,-2.6367,-2.722,-2.7264,0.0,0.0,0.0,0.0,0.0,0.0,0.0,-2.7769,-2.7493,-2.7897,-2.8356,-2.8594,-2.9732,-3.0522,-3.0265,0.0,0.0,-2.5529,-2.4502,-2.4465,-2.4997,-2.5291,-2.5529,-2.5823,-2.6282,-2.6502,0.0,0.0,0.0,0.0,0.0,0.0,0.0,0.0,-1.1774,-1.1749,0.0,-1.1688,0.0,0.0,0.0,0.0,0.0,0.0,0.0,0.0,-1.6125,-1.7461,-1.7825,-1.7995,-1.8275,-1.8724,-1.9256,-1.8593,-1.6666,-1.4203,0.0,0.0,0.0,0.0,0.0,0.0,-1.4827,-1.6661,-1.8045,-1.9066,-1.9675,-1.9705,-1.9675,-1.9615,-1.8403,-1.6801,-1.4962,-1.4199,-1.3226,-1.191,-1.0043,0.0,0.0,0.0,0.0,0.0,0.0,0.0,0.0,0.0,0.0,0.0,0.0,0.0,0.0,0.0,0.0,0.0,0.0,0.0,0.0,-0.9164,0.0,0.0,0.0,0.0,0.0,0.0,0.0,0.0,0.0,0.0,-2.307,-2.3565,-2.4577,-2.6831,0.0,0.0,0.0,0.0,-2.9575,-2.9557,-2.9593,-2.9584,-2.9539,-2.989,-2.9916,-2.92,0.0,0.0,-3.0448,-3.0962,-3.1256,-3.0485,-3.1054,-3.1201,-3.032,-2.9384,-2.8943,-2.8962,-2.8374,-2.8209,-2.8851,-2.8962,-2.8994,-1.3939,0.0,0.0,0.0,0.0,-1.3128,-1.367,-1.4551,-1.4532,-1.4111,-1.3396,-1.3402,0.0,0.0,0.0,0.0,0.0,0.0,-1.4264,-1.4649,-1.5681,-1.6617,-1.7489,-1.7921,-1.8168,-1.8317,-1.8849,-1.8841,-1.8237,-1.704,-1.5447,-1.354,0.0,0.0,0.0,0.0,-1.6396,-1.7425,-1.8736,-1.9498,-1.9675,-1.9705,-1.945,-1.8986,-1.8164,-1.7204,-1.6189,-1.5096,-1.4109,-1.3256,-1.179,0.0,0.0,0.0,0.0,0.0,0.0,0.0,0.0,0.0,0.0,0.0,0.0,0.0,0.0,0.0,0.0,0.0,0.0,0.0,-0.9641,-0.9841,-1.0702,0.0,0.0,0.0,0.0,0.0,0.0,0.0,0.0,0.0,-2.6951,-2.7108,-2.7277,0.0,0.0,-2.9474,-2.8509,-2.9074,-2.9597,-2.9614,0.0,0.0,0.0,-3.0316,-3.032,-3.065,-3.1586,-3.2375,-3.2706,-3.2944,-3.3018,-3.2779,-3.2963,-3.2797,-3.1825,-3.1146,-3.0723,-3.0687,-3.0503,-3.043,-3.065,-3.0705,-3.0705,-1.6268,-1.4799,-1.4172,-1.4212,-1.4752,-1.4979,-1.5404,-1.6007,-1.6011,-1.5654,-1.5053,-1.5037,-1.4256,-1.2902,-1.27,0.0,0.0,0.0,-1.5041,-1.5555,-1.5869,-1.6477,-1.7286,-1.7624,-1.7894,-1.8145,-1.865,-1.8765,-1.8574,-1.8578,-1.7539,-1.5477,0.0,0.0,-1.5367,-1.6502,-1.7436,-1.8094,-1.9151,-1.9705,-1.9705,-1.9705,-1.9241,-1.8343,-1.7891,-1.7264,-1.6368,-1.559,-1.4872,-1.4214,-1.2912,-1.1253,0.0,0.0,0.0,0.0,0.0,0.0,0.0,0.0,0.0,0.0,0.0,-0.8463,0.0,0.0,0.0,0.0,-1.0077,-1.067,-1.169,-1.2163,0.0,0.0,0.0,0.0,0.0,0.0,0.0,-2.3642,-2.5234,-2.7006,-2.9142,-2.9521,-2.9645,-2.9819,-3.0468,-3.0643,-2.9925,0.0,-3.0734,-3.0596,-3.1171,-3.1654,-3.1805,-3.17,-3.1806,-3.2265,-3.2742,-3.3201,-3.3697,-3.3807,-3.3807,-3.3807,-3.3807,-3.3605,-3.2944,-3.2559,-3.2173,-3.1806,-3.1806,-3.1953,-3.2265,-3.2357,-3.2357,-1.8232,-1.8129,-1.6597,-1.5944,-1.5944,-1.6434,-1.6647,-1.6647,-1.664,-1.6609,-1.666,-1.6647,-1.6095,-1.5116,-1.4651,0.0,-1.5894,-1.5894,-1.617,-1.6647,-1.6647,-1.6896,-1.7325,-1.7358,-1.7598,-1.7973,-1.8549,-1.8535,-1.8185,-1.908,-1.9059,-1.805,-1.729,-1.7219,-1.7757,-1.7832,-1.8158,-1.8751,-1.9396,-1.9705,-1.9705,-1.9705,-1.9076,-1.7817,-1.7727,-1.7146,-1.5948,-1.5829,-1.5499,-1.4824,-1.358,-1.2342,-1.1104,0.0,0.0,0.0,0.0,0.0,0.0,0.0,0.0,0.0,0.0,0.0,0.0,0.0,0.0,0.0,-1.2094,0.0,-1.4546,-1.5456,0.0,0.0,0.0,-1.9846,-2.1478,-2.3562,-2.5225,-2.605,0.0,0.0,-3.0106,0.0,-3.1596,-3.1984,-3.1506,-3.1289,-3.1815,-3.2172,-3.2429,-3.1995,-3.2946,-3.356,-3.3169,-3.3414,-3.3605,-3.3642,-3.3807,-3.377,-3.3788,-3.3807,-3.3807,-3.3807,-3.3807,-3.3788,-3.3807,-3.3697,-3.3495,-3.2504,-3.254,-3.2908,-3.3513,-3.366,-3.366,-1.8301,-1.8794,-1.8344,-1.799,-1.7626,-1.7739,-1.7802,-1.7798,-1.7821,-1.7784,-1.7802,-1.7815,-1.7652,-1.7413,-1.7275,-1.7363,-1.7601,-1.7601,-1.7677,-1.7802,-1.7802,-1.7657,-1.7377,-1.7791,-1.7604,-1.6934,-1.7422,-1.7827,-1.8092,-1.8341,-1.8731,-1.9256,-1.9101,-1.8807,-1.8508,-1.8972,-1.9291,-1.9466,-1.9606,-1.9705,-1.9705,-1.9705,-1.9301,-1.8493,-1.7984,-1.7309,-1.6517,-1.6039,-1.5499,-1.4812,-1.4004,-1.3265,-1.2584,-1.0693,0.0,0.0,0.0,0.0,0.0,0.0,0.0,0.0,0.0,-1.2466,-1.017,0.0,-1.431,0.0,-1.4394,-1.5189,-1.6086,-1.6889,0.0,0.0,-2.1191,-2.2581,-2.4373,-2.5767,-2.7064,-2.8195,-2.9411,-3.0499,-3.1422,-3.1947,-3.2267,-3.2382,-3.2552,-3.2265,-3.126,-3.1581,-3.2084,-3.2364,-3.2684,-3.3014,-3.355,-3.3734,-3.3807,-3.3807,-3.3807,-3.3807,-3.3807,-3.3807,-3.3807,-3.3807,-3.3807,-3.3807,-3.3825,-3.3807,-3.3752,-3.3476,-3.3476,-3.355,-3.3752,-3.3825,-3.3825,-1.8661,-1.9371,-1.9371,-1.9196,-1.8894,-1.8668,-1.843,-1.8179,-1.818,-1.8172,-1.8204,-1.8204,-1.8204,-1.8204,-1.8204,-1.8204,-1.8204,-1.8204,-1.8204,-1.8204,-1.8204,-1.8033,-1.776,-1.8048,-1.7753,-1.6956,-1.7444,-1.7618,-1.7449,-1.7867,-1.8433,-1.8968,-1.9207,-1.9265,-1.9181,-1.951,-1.9705,-1.9705,-1.9705,-1.9705,-1.9705,-1.9705,-1.9241,-1.8313,-1.8208,-1.7548,-1.6353,-1.6248,-1.577,-1.4827,-1.4169,-1.3664,-1.3328,-1.1911,-1.1207,0.0,0.0,0.0,0.0,0.0,0.0,0.0,0.0,0.0,0.0,0.0,-1.6052,0.0,-1.6745,-1.776,-1.9063,-2.0128,-2.1295,-2.2558,-2.3955,-2.5207,-2.6267,-2.7751,-2.8982,-2.9691,-3.0439,-3.1112,-3.1566,-3.195,-3.2196,-3.2161,-3.24,-3.2406,-3.1986,-3.2168,-3.2565,-3.2996,-3.3105,-3.3225,-3.3753,-3.3807,-3.3807,-3.3807,-3.3807,-3.3807,-3.3825,-3.41,-3.4247,-3.3899,-3.4082,-3.4339,-3.4339,-3.4357,-3.4431,-3.4816,-3.4908,-3.4761,-3.4431,-3.4651,-3.4908,-1.9032,-1.9798,-1.9798,-1.9798,-1.9773,-1.9321,-1.8844,-1.8417,-1.8399,-1.8435,-1.8405,-1.8405,-1.8405,-1.8405,-1.8405,-1.8405,-1.8405,-1.8405,-1.8417,-1.8417,-1.8417,-1.8344,-1.8319,-1.8282,-1.8008,-1.7523,-1.7987,-1.7691,-1.6751,-1.7665,-1.8135,-1.8224,-1.8664,-1.9169,-1.969,-1.9705,-1.9705,-1.9705,-1.9705,-1.9705,-1.9705,-1.9705,-1.9106,-1.7906,-1.8328,-1.7745,-1.6038,-1.6413,-1.6144,-1.4992,-1.4363,-1.3959,-1.3741,-1.2906,-1.2719,0.0,-1.3308,0.0,0.0,0.0,0.0,0.0,0.0,0.0,0.0,-1.7439,-1.7523,-1.8295,-1.9307,-2.0602,-2.2412,-2.3816,-2.4661,-2.4828,-2.6316,-2.7434,-2.7676,-2.9368,-3.0593,-3.0733,-3.1001,-3.119,-3.1295,-3.1565,-3.1733,-3.1733,-3.177,-3.2022,-3.2759,-3.2822,-3.2903,-3.3504,-3.3652,-3.3625,-3.378,-3.3807,-3.3844,-3.3935,-3.4009,-3.399,-3.4192,-3.4743,-3.4935,-3.4412,-3.4761,-3.5137,-3.5183,-3.5155,-3.5422,-3.6028,-3.6266,-3.6119,-3.5459,-3.5679,-3.6266,-1.8596,-1.9798,-1.9798,-1.9798,-1.9798,-1.9698,-1.9597,-1.9497,-1.9496,-1.9484,-1.951,-1.9497,-1.951,-1.9497,-1.951,-1.951,-1.9497,-1.9497,-1.9497,-1.9497,-1.9497,-1.9245,-1.8869,-1.8834,-1.8573,-1.8054,-1.8159,-1.8106,-1.7891,-1.8094,-1.8358,-1.8741,-1.8855,-1.9169,-1.969,0.0,0.0,0.0,-1.9705,-1.9705,-1.9705,-1.9705,-1.9316,-1.8538,-1.8085,0.0,-1.6592,-1.6637,-1.6368,-1.5664,-1.5499,0.0,0.0,0.0,0.0,0.0,0.0,0.0,0.0,0.0,0.0,0.0,-1.8065,-1.7997,-1.7879,-1.9147,-2.0433,-2.138,-2.2361,-2.327,-2.4002,-2.4864,-2.5642,-2.6234,-2.7131,-2.8167,-2.9389,-2.9949,-3.0523,-3.1476,-3.1346,-3.1312,-3.1603,-3.147,-3.1312,-3.1351,-3.1329,-3.1507,-3.2021,-3.1877,-3.1787,-3.2127,-3.2885,-3.3437,-3.3762,-3.3825,-3.4082,-3.4559,-3.477,-3.5037,-3.5624,-3.5881,-3.6046,-3.5771,-3.5936,-3.6064,-3.6064,-3.6046,-3.6119,-3.6266,-3.6817,-3.7019,-3.6229,-3.6193,-3.6285,-1.7688,0.0,-1.9097,-1.9254,0.0,-1.9631,-1.9798,-1.9798,-1.9798,-1.9798,-1.9798,-1.9798,-1.9798,-1.9798,-1.9798,-1.9798,-1.9798,-1.9798,-1.9798,-1.9798,-1.9798,-1.9633,-1.943,-1.9383,-1.9118,-1.8585,-1.8598,-1.8459,-1.8177,-1.7939,-1.8179,-1.8869,-1.8638,-1.8893,-1.969,-1.9705,-1.9705,-1.9705,-1.9705,-1.9705,-1.9705,-1.9705,-1.9375,-1.8732,0.0,0.0,0.0,0.0,0.0,0.0,0.0,0.0,0.0,0.0,0.0,-1.671,-1.6965,-1.7115,-1.7248,-1.8285,-1.9256,-1.9959,-2.0365,-2.0433,-2.0035,-2.1414,-2.2581,-2.3342,-2.4492,-2.5169,-2.5084,-2.6048,-2.6843,-2.7249,-2.8281,-2.9296,-2.9989,-3.0429,-3.0866,-3.1363,-3.1312,-3.1291,-3.147,-3.1351,-3.119,-3.1224,-3.1512,-3.1817,-3.1983,-3.173,-3.164,-3.2109,-3.2695,-3.3243,-3.353,-3.4092,-3.4504,-3.4935,-3.5367,-3.5789,-3.6211,-3.6615,-3.678,-3.645,-3.6597,-3.6872,-3.6872,-3.689,-3.7,-3.7404,-3.779,-3.7973,-3.7569,-3.7477,-3.7496,-1.7051,-1.7811,-1.8417,-1.8727,-1.8768,-1.9488,-1.9798,-1.9798,0.0,0.0,0.0,-1.9798,-1.9798,-1.9798,-1.9798,-1.9798,-1.9798,-1.9798,-1.9798,-1.9798,-1.9798,-1.9798,-1.9798,-1.9798,-1.9544,-1.9165,-1.912,-1.8882,-1.8355,-1.789,-1.8098,-1.881,-1.8466,-1.8725,-1.9654,-1.9705,-1.9705,-1.9705,-1.9705,-1.9705,-1.9705,-1.9705,-1.942,-1.8897,-1.9286,-1.9001,-1.7921,-1.8418,-1.8208,-1.713,-1.7055,-1.7334,-1.7982,-1.8012,-1.8508,-1.9686,-1.9974,-2.0136,-2.0221,-2.094,-2.138,-2.138,-2.1955,-2.2361,-2.2479,-2.3444,-2.4222,-2.4675,-2.5913,-2.6488,-2.6048,-2.7029,-2.7908,-2.8161,-2.9347,-3.0125,-3.0311,-3.0818,-3.1173,-3.119,-3.119,-3.119,-3.123,-3.119,-3.119,-3.1275,-3.1782,-3.2357,-3.2456,-3.2286,-3.2342,-3.293,-3.3401,-3.361,-3.3894,-3.4582,-3.5247,-3.554,-3.6101,-3.6523,-3.678,-3.7257,-3.7386,-3.6982,-3.7294,-3.7624,-3.7698,-3.7716,-3.7936,-3.8579,-3.8707,-3.8707,-3.8707,-3.8689,-3.8615,-1.7546,-1.8238,-1.8581,-1.8727,-1.8756,-1.9475,-1.9798,-1.9798,-1.9798,-1.9798,-1.9798,-1.9798,-1.9798,-1.9798,-1.9798,-1.9798,-1.9798,-1.9798,-1.9798,0.0,-1.9798,-1.9798,-1.9798,-1.9798,-1.9786,-1.9697,-1.9659,-1.9422,-1.8908,-1.8819,-1.8843,-1.8904,-1.8838,-1.9098,-1.9662,-1.9705,-1.9705,-1.9705,-1.9705,-1.9705,-1.9705,-1.9705,-1.9681,-1.954,-1.9091,-1.8777,-1.8583,-1.8657,-1.8612,-1.8448,-1.8418,-1.8485,-1.8555,-1.8346,-1.8446,-1.9038,-1.9902,-2.0589,-2.0981,-2.1735,-2.2141,-2.2158,-2.2243,-2.2564,-2.3224,-2.434,-2.5135,-2.5439,-2.6218,-2.6945,-2.7435,-2.7671,-2.833,-2.9533,-2.9956,-3.0345,-3.092,-3.1089,-3.119,-3.119,-3.119,-3.119,-3.119,-3.119,-3.1207,-3.1309,-3.2019,-3.2577,-3.3152,-3.3211,-3.3544,-3.4215,-3.4534,-3.4942,-3.5423,-3.5933,-3.634,-3.7037,-3.7165,-3.7533,-3.8065,-3.8285,-3.8358,-3.834,-3.834,-3.845,-3.8469,-3.8542,-3.8542,-3.8707,-3.8707,-3.8707,-3.8707,-3.8707,-3.8707,-1.7144,-1.7486,-1.817,-1.8483,-1.8571,-1.9442,-1.9798,-1.9798,-1.9798,-1.9798,-1.9798,-1.9798,-1.9798,-1.9798,-1.9798,-1.9798,-1.9798,-1.9798,-1.9798,-1.9798,-1.9798,-1.9798,-1.9798,-1.9798,-1.9798,-1.9798,-1.9798,-1.9685,-1.9447,-1.9171,-1.9309,-1.9897,-1.9918,-1.9812,-1.9698,-1.9705,-1.9705,-1.9705,-1.9705,-1.9705,-1.9705,-1.9705,-1.9705,-1.969,-1.9375,-1.9241,-1.9226,-1.9226,-1.9241,-1.9241,-1.9226,-1.9366,-1.9528,-1.9423,-1.9546,-2.0,-2.0684,-2.1176,-2.1383,-2.1961,-2.2479,-2.2868,-2.2902,-2.3393,-2.4492,-2.4729,-2.5203,-2.6082,-2.6522,-2.6996,-2.7722,-2.8197,-2.889,-2.9989,-3.0446,-3.0818,-3.1123,-3.119,-3.119,-3.119,-3.119,-3.119,-3.119,-3.119,-3.1376,-3.1749,-3.2696,-3.3711,-3.4455,-3.4857,-3.4846,-3.4609,-3.4889,-3.5349,-3.5921,-3.6534,-3.7055,-3.7441,-3.7863,-3.8248,-3.867,-3.8707,-3.8707,-3.8707,-3.8707,-3.8707,-3.8707,-3.8707,-3.8707,-3.8707,-3.8707,-3.8707,-3.8707,-3.8707,-3.8707,-1.6885,-1.6963,-1.8046,-1.8656,-1.9067,-1.9736,-2.0062,-2.0162,-1.9924,-1.9874,-1.9974,-1.9861,-1.9798,-1.9798,-1.9798,-1.9798,-1.9798,-1.9798,-1.9798,-1.9798,-1.9798,-1.9798,-1.9798,-1.9798,-1.9798,-1.9798,-1.9798,-1.9798,-1.9748,-1.9397,-1.9733,-2.0698,-2.0709,-2.0453,-1.9914,-1.9765,-1.9705,-1.9705,-1.9705,-1.9705,-1.9705,-1.9705,-1.9705,-1.9705,-1.969,-1.9705,-1.9705,-1.9705,-1.9705,-1.9705,-1.9705,-1.9854,-2.0158,-2.0158,-2.0416,-2.0926,-2.129,-2.1552,-2.1764,-2.2077,-2.2615,-2.3325,-2.3393,-2.4019,-2.5321,-2.5033,-2.522,-2.6437,-2.6691,-2.7063,-2.7977,-2.8602,-2.9347,-3.0243,-3.0835,-3.114,-3.119,-3.119,-3.119,-3.119,-3.119,-3.119,-3.1207,-3.1343,-3.1833,-3.278,-3.3795,-3.4786,-3.564,-3.6266,-3.6063,-3.5568,-3.565,-3.6226,-3.6286,-3.7095,-3.7716,-3.7753,-3.8248,-3.8579,-3.8707,-3.8707,-3.8707,-3.8707,-3.8707,-3.8707,-3.8707,-3.8707,-3.8707,-3.8707,-3.8707,-3.8707,-3.8707,-3.8707,-3.8707,-1.7324,-1.7506,-1.8592,-1.9866,-2.1039,-2.0761,-2.084,-2.1117,-2.0263,-2.01,-2.0451,-2.0037,-1.9798,-1.9798,-1.9798,-1.9798,-1.9798,-1.9798,-1.9798,-1.9798,-1.9798,-1.9798,-1.9798,-1.9798,-1.9798,-1.9798,-1.9798,-1.9798,-1.9798,-1.9787,-2.0096,-2.0726,-2.0724,-2.0707,-2.0543,-2.0004,-1.9741,-1.9705,-1.9705,-1.9705,-1.9705,-1.9705,-1.9705,-1.9705,-1.9705,-1.9705,-1.9705,-1.9705,-1.9705,-1.9705,-1.9705,-1.9711,-1.9762,-1.9747,-2.0139,-2.0894,-2.1023,-2.1401,-2.2106,-2.2282,-2.2649,-2.3291,-2.346,-2.4103,-2.5456,-2.5355,-2.5575,-2.6471,-2.6708,-2.7385,-2.8653,-2.8975,-2.9583,-3.0818,-3.1106,-3.119,-3.119,-3.119,-3.119,-3.119,-3.119,-3.119,-3.1258,-3.1765,-3.2713,-3.388,-3.4353,-3.5001,-3.6052,-3.6684,-3.7193,-3.731,-3.7641,-3.779,-3.8118,-3.8438,-3.8469,-3.8524,-3.8615,-3.8707,-3.8707,-3.8707,-3.8707,-3.8707,-3.8707,-3.8707,-3.8707,-3.8707,-3.8707,-3.8707,-3.8707,-3.8707,-3.8707,-3.8707,-3.8707,-1.8078,-1.8602,-1.9204,-2.0276,-2.1356,-2.1242,-2.1091,-2.0953,-2.0565,-2.0291,-2.0137,-1.9899,-1.9798,-1.9798,-1.9798,-1.9798,-1.9798,-1.9798,-1.9798,-1.9798,-1.9798,-1.9798,-1.9798,-1.9798,-1.9798,-1.9798,-1.9798,-1.9798,-1.994,-2.0557,-2.09,-2.0927,-2.1493,-2.1485,-2.0752,-2.0406,-2.0125,-1.9741,-1.9705,-1.9705,-1.9705,-1.9705,-1.9705,-1.9705,-1.9705,-1.9705,-1.9705,-1.9705,-1.9705,-1.9705,-1.9705,-1.9705,-1.9705,-1.9705,-1.9854,-2.0243,-2.0731,-2.1385,-2.2254,-2.2699,-2.3274,-2.4015,-2.4458,-2.5169,-2.6116,-2.615,-2.6285,-2.6657,-2.7232,-2.7994,-2.8909,-2.9381,-3.0091,-3.097,-3.119,-3.119,-3.119,-3.119,-3.119,-3.119,-3.119,-3.119,-3.136,-3.2222,-3.3305,-3.4353,-3.4827,-3.5487,-3.6316,-3.6843,-3.736,-3.7843,-3.8132,-3.8433,-3.8658,-3.8707,-3.8707,-3.8707,-3.8707,-3.8707,-3.8707,-3.8707,-3.8707,-3.8707,-3.8707,-3.8707,-3.8707,-3.8707,-3.8707,-3.8707,-3.8707,-3.8707,-3.8707,-3.8707,-3.8707,-1.8327,-1.8992,-1.9703,-2.078,-2.1875,-2.1769,-2.1493,-2.1159,-2.0974,-2.0573,-2.0062,-2.004,-1.9964,-1.9798,-1.9798,-1.9798,-1.9798,-1.9798,-1.9798,-1.9798,-1.9798,-1.9798,-1.9798,-1.9798,-1.9798,-1.9798,-1.9798,-1.9798,-1.994,-2.0904,-2.1315,-2.1208,-2.1975,-2.1936,-2.1051,-2.084,-2.037,-1.9771,-1.9705,-1.9705,-1.9705,-1.9705,-1.9705,-1.9705,-1.9705,-1.9705,-1.9705,-1.9705,-1.9705,-1.9705,-1.9705,-1.9705,-1.9705,-1.9705,-1.9782,-1.998,-2.0698,-2.1606,-2.2524,-2.3088,-2.3799,-2.4726,-2.5321,-2.5913,-2.6505,-2.6708,-2.681,-2.708,-2.7977,-2.8755,-2.8975,-2.9668,-3.0395,-3.1072,-3.119,-3.119,-3.119,-3.119,-3.119,-3.119,-3.119,-3.1393,-3.185,-3.2747,-3.3694,-3.4675,-3.5267,-3.5898,-3.6498,-3.6999,-3.7396,-3.7998,-3.8465,-3.8658,-3.8707,-3.8707,-3.8707,-3.8707,-3.8707,-3.8707,-3.8707,-3.8707,-3.8707,-3.8707,-3.8707,-3.8707,-3.8707,-3.8707,-3.8707,-3.8707,-3.8707,-3.8707,-3.8707,-3.8707,-3.8707,-1.8008,-1.8337,-1.9857,-2.151,-2.2952,-2.2498,-2.2259,-2.2103,-2.1663,-2.1159,-2.0646,-2.0577,-2.0322,-1.9798,-1.9798,-1.9798,-1.9798,-1.9798,-1.9798,-1.9798,-1.9798,-1.9798,-1.9798,-1.9798,-1.9798,-1.9798,-1.9798,-1.9798,-1.9862,-2.0497,-2.1148,-2.1627,-2.1794,-2.1783,-2.158,-2.1061,-2.04,-1.9846,-1.972,-1.9705,-1.9705,-1.9705,-1.9705,-1.9705,-1.9705,-1.9705,-1.9705,-1.9705,-1.9705,-1.9705,-1.9705,-1.9705,-1.9705,-1.9705,-1.9925,-2.0559,-2.1198,-2.2079,-2.3119,-2.346,-2.4069,-2.527,-2.5609,-2.593,-2.6607,-2.6708,-2.6979,-2.7689,-2.8738,-2.9367,-2.9214,-2.9786,-3.0463,-3.1072,-3.119,-3.119,-3.119,-3.119,-3.119,-3.1207,-3.1258,-3.1799,-3.3034,-3.3339,-3.4117,-3.5081,-3.5588,-3.5968,-3.6843,-3.719,-3.7596,-3.8285,-3.8658,-3.8707,-3.8707,-3.8707,-3.8707,-3.8707,-3.8707,-3.8707,-3.8707,-3.8707,-3.8707,-3.8707,-3.8707,-3.8707,-3.8707,-3.8707,-3.8707,-3.8707,-3.8707,-3.8707,-3.8707,-3.8707,-3.8707,-1.8664,-1.9759,-2.091,-2.2063,-2.3053,-2.2912,-2.2648,-2.2246,-2.1703,-2.1212,-2.0655,-2.0319,-1.9989,-1.9798,-1.9798,-1.9798,-1.9798,-1.9798,-1.9798,-1.9798,-1.9798,-1.9798,-1.9798,-1.9798,-1.9798,-1.9798,-1.9798,-1.9798,-1.9901,-2.0446,-2.1113,-2.1683,-2.2133,-2.2338,-2.2211,-2.1693,-2.1031,-2.0363,-1.9929,-1.9705,-1.9705,-1.9705,-1.9705,-1.9705,-1.9705,-1.9705,-1.9705,-1.9705,-1.9705,-1.9705,-1.9705,-1.9705,-1.9705,-1.9705,-2.0204,-2.1194,-2.17,-2.2426,-2.3486,-2.4353,-2.5017,-2.5541,-2.6048,-2.637,-2.664,-2.6708,-2.6996,-2.7807,-2.8653,-2.9262,-2.9786,-3.0362,-3.0903,-3.1123,-3.119,-3.119,-3.119,-3.119,-3.119,-3.1258,-3.1562,-3.2324,-3.3152,-3.3795,-3.4489,-3.5402,-3.5639,-3.6097,-3.6865,-3.719,-3.756,-3.8382,-3.8707,-3.8707,-3.8707,-3.8707,-3.8707,-3.8707,-3.8707,-3.8707,-3.8707,-3.8707,-3.8707,-3.8707,-3.8707,-3.8707,-3.8707,-3.8707,-3.8707,-3.8707,-3.8707,-3.8707,-3.8707,-3.8707,-3.8707,-1.8854,-2.0204,-2.1101,-2.1939,-2.2689,-2.3017,-2.2824,-2.2322,-2.2108,-2.1606,-2.1008,-2.0696,-2.0431,-2.0112,-2.0075,-1.9962,-1.9811,-1.9798,-1.9798,-1.9798,-1.9798,-1.9798,-1.9798,-1.9798,-1.9798,-1.9798,-1.9798,-1.9798,-1.985,-2.0245,-2.0917,-2.1697,-2.2193,-2.2511,-2.2572,-2.2267,-2.1704,-2.1013,-2.0384,-2.0038,-2.001,-1.9779,-1.9705,-1.9705,-1.9705,-1.9705,-1.9705,-1.9705,-1.9705,-1.9705,-1.9705,-1.9705,-1.9705,-1.9899,-2.0684,-2.2002,-2.2339,-2.2978,-2.4166,-2.5126,-2.5693,-2.5947,-2.6387,-2.6708,-2.6708,-2.6708,-2.7165,-2.8027,-2.8636,-2.933,-3.0277,-3.0903,-3.119,-3.119,-3.119,-3.119,-3.119,-3.119,-3.119,-3.1275,-3.1799,-3.2544,-3.3322,-3.4032,-3.4759,-3.552,-3.5639,-3.6011,-3.6724,-3.7152,-3.7487,-3.8267,-3.8578,-3.8658,-3.8707,-3.8707,-3.8707,-3.8707,-3.8707,-3.8707,-3.8707,-3.8707,-3.8707,-3.8707,-3.8707,-3.8707,-3.8707,-3.8707,-3.8707,-3.8707,-3.8707,-3.8707,-3.8707,-3.8707,-3.8707,-1.8529,-1.9431,-2.0268,-2.1164,-2.2063,-2.2823,-2.2824,-2.2498,-2.2765,-2.2326,-2.1612,-2.1949,-2.1458,-2.0832,-2.0602,-2.0338,-1.9949,-1.9836,-1.9798,-1.9798,-1.9798,-1.9798,-1.9798,-1.9798,-1.9798,-1.9798,-1.9798,-1.985,-1.9914,-1.9991,-2.062,-2.1568,-2.1838,-2.2257,-2.2727,-2.2636,-2.2298,-2.1685,-2.1046,-2.0669,-2.0625,-2.0079,-1.9765,-1.9705,-1.9705,-1.9705,-1.9705,-1.9705,-1.9705,-1.9705,-1.9705,-1.9705,-1.9779,-2.0258,-2.1399,-2.2765,-2.3099,-2.3911,-2.5229,-2.5594,-2.6031,-2.6437,-2.6674,-2.6708,-2.6708,-2.6793,-2.7385,-2.8569,-2.9042,-2.96,-3.0801,-3.1157,-3.119,-3.119,-3.119,-3.119,-3.119,-3.119,-3.1207,-3.136,-3.1968,-3.2611,-3.3339,-3.4167,-3.4912,-3.5436,-3.5622,-3.5827,-3.6457,-3.6921,-3.7396,-3.7877,-3.8382,-3.8707,-3.8707,-3.8707,-3.8707,-3.8707,-3.8707,-3.8707,-3.8707,-3.8707,-3.8707,-3.8707,-3.8707,-3.8707,-3.8707,-3.8707,-3.8707,-3.8707,-3.8707,-3.8707,-3.8707,-3.8707,-3.8707,-1.8529,-1.9365,-2.0204,-2.1101,-2.1939,-2.2763,-2.3012,-2.2802,-2.2685,-2.235,-2.2031,-2.186,-2.1539,-2.1255,-2.0853,-2.063,-2.0363,-2.0012,-1.9798,-1.9798,-1.9798,-1.9798,-1.9798,-1.9798,-1.9798,-1.9798,-1.9798,-2.0042,-2.0396,-2.0497,-2.1113,-2.2161,-2.2406,-2.2714,-2.3253,-2.2933,-2.2549,-2.2357,-2.1724,-2.1167,-2.0774,-2.0513,-2.0183,-1.975,-1.9705,-1.9705,-1.9705,-1.9705,-1.9705,-1.9705,-1.9705,-1.9705,-1.9809,-2.0333,-2.1551,-2.3213,-2.3711,-2.4221,-2.5216,-2.5965,-2.642,-2.6657,-2.6691,-2.6708,-2.6776,-2.7165,-2.7858,-2.8907,-2.9448,-3.0192,-3.0954,-3.119,-3.119,-3.119,-3.119,-3.119,-3.119,-3.119,-3.1444,-3.1935,-3.2611,-3.3339,-3.4049,-3.4776,-3.5301,-3.5537,-3.5622,-3.5827,-3.6291,-3.6803,-3.736,-3.7825,-3.83,-3.8658,-3.8707,-3.8707,-3.8707,-3.8707,-3.8707,-3.8707,-3.8707,-3.8707,-3.8707,-3.8707,-3.8707,-3.8707,-3.8707,-3.8707,-3.8707,-3.8707,-3.8707,-3.8707,-3.8707,-3.8707,-3.8707,-1.8337,-1.8911,-2.0074,-2.091,-2.1553,-2.2567,-2.3125,-2.3053,-2.2747,-2.2573,-2.2555,-2.227,-2.1975,-2.1763,-2.1418,-2.1041,-2.0718,-2.0263,-2.0012,-1.9836,-1.9798,-1.9798,-1.9798,-1.9798,-1.9798,-1.9798,-1.9798,-2.0144,-2.0809,-2.0858,-2.1465,-2.2512,-2.2709,-2.3009,-2.3551,-2.3256,-2.3048,-2.2927,-2.2407,-2.1838,-2.1496,-2.1201,-2.0887,-2.0498,-2.0438,-2.0438,-2.0423,-2.0423,-2.0183,-1.9794,-1.9705,-1.9705,-1.9765,-2.0587,-2.1844,-2.3239,-2.4048,-2.4528,-2.5195,-2.5931,-2.6436,-2.647,-2.659,-2.6708,-2.6826,-2.7385,-2.8129,-2.8907,-2.9651,-3.0395,-3.1038,-3.119,-3.119,-3.119,-3.119,-3.119,-3.119,-3.119,-3.1512,-3.2154,-3.2899,-3.3677,-3.4404,-3.5131,-3.5605,-3.5639,-3.5622,-3.5667,-3.6139,-3.6563,-3.7097,-3.7578,-3.7998,-3.835,-3.8658,-3.8707,-3.8707,-3.8707,-3.8707,-3.8707,-3.8707,-3.8707,-3.8707,-3.8707,-3.8707,-3.8707,-3.8707,-3.8707,-3.8707,-3.8707,-3.8707,-3.8707,-3.8707,-3.8707,-3.8707,-1.8008,-1.8202,-1.989,-2.0655,-2.091,-2.2433,-2.3125,-2.3125,-2.3065,-2.3027,-2.3027,-2.2942,-2.2777,-2.2435,-2.2196,-2.1644,-2.0907,-2.0614,-2.0275,-1.9911,-1.9798,-1.9798,-1.9798,-1.9798,-1.9798,-1.9798,-1.9798,-2.0156,-2.0809,-2.0809,-2.1465,-2.2558,-2.2709,-2.3024,-2.345,-2.3595,-2.3507,-2.3432,-2.2993,-2.271,-2.2547,-2.2069,-2.1665,-2.1575,-2.1545,-2.1515,-2.1485,-2.1455,-2.1006,-2.0019,-1.9899,-1.9824,-1.9959,-2.0991,-2.2338,-2.3548,-2.4101,-2.457,-2.5128,-2.5726,-2.6085,-2.612,-2.647,-2.6708,-2.6793,-2.752,-2.8281,-2.8941,-2.977,-3.0497,-3.1055,-3.119,-3.119,-3.119,-3.119,-3.119,-3.119,-3.119,-3.1529,-3.2188,-3.2933,-3.3677,-3.4404,-3.5165,-3.5537,-3.5639,-3.5639,-3.5667,-3.5783,-3.6207,-3.6643,-3.7173,-3.7738,-3.8201,-3.8596,-3.8707,-3.8707,-3.8707,-3.8707,-3.8707,-3.8707,-3.8707,-3.8707,-3.8707,-3.8707,-3.8707,-3.8707,-3.8707,-3.8707,-3.8707,-3.8707,-3.8707,-3.8707,-3.8707,-3.8707,-1.8008,-1.8202,-1.9879,-2.059,-2.0846,-2.2359,-2.3125,-2.3125,-2.3125,-2.3125,-2.3125,-2.3125,-2.305,-2.2815,-2.2472,-2.192,-2.1292,-2.0853,-2.0351,-1.9874,-1.9798,-1.9798,-1.9798,-1.9798,-1.9798,-1.9798,-1.985,-2.0144,-2.0759,-2.0809,-2.1479,-2.2663,-2.2709,-2.3024,-2.3508,-2.3595,-2.3595,-2.3595,-2.3492,-2.3106,-2.2757,-2.2589,-2.2173,-2.1724,-2.1724,-2.1739,-2.1695,-2.1695,-2.159,-2.1201,-2.0677,-2.0198,-2.001,-2.141,-2.2742,-2.3486,-2.4074,-2.443,-2.4752,-2.5465,-2.5941,-2.6049,-2.6401,-2.6708,-2.6742,-2.7926,-2.8653,-2.9194,-3.0091,-3.0954,-3.1157,-3.119,-3.119,-3.119,-3.119,-3.119,-3.119,-3.1207,-3.1478,-3.2205,-3.2949,-3.3677,-3.4404,-3.5115,-3.5605,-3.5639,-3.5639,-3.5639,-3.5694,-3.5985,-3.6457,-3.7058,-3.7667,-3.8135,-3.8515,-3.8627,-3.8707,-3.8707,-3.8707,-3.8707,-3.8707,-3.8707,-3.8707,-3.8707,-3.8707,-3.8707,-3.8707,-3.8707,-3.8707,-3.8707,-3.8707,-3.8707,-3.8707,-3.8707,-3.8707,-1.8529,-1.8721,-2.0462,-2.1164,-2.1302,-2.2555,-2.3125,-2.3125,-2.3125,-2.3125,-2.3125,-2.3125,-2.3125,-2.3088,-2.2799,-2.2221,-2.1506,-2.1154,-2.0564,-1.9874,-1.9798,-1.9798,-1.9798,-1.9798,-1.9798,-1.9798,-1.9798,-2.0207,-2.0709,-2.0809,-2.1513,-2.2466,-2.2709,-2.3009,-2.3551,-2.3595,-2.3595,-2.3595,-2.3595,-2.34,-2.3086,-2.3056,-2.2906,-2.2547,-2.2503,-2.2503,-2.2488,-2.2248,-2.1994,-2.1695,-2.1321,-2.0932,-2.0707,-2.1884,-2.2951,-2.3535,-2.3906,-2.4032,-2.4184,-2.4855,-2.5411,-2.5689,-2.6104,-2.647,-2.6928,-2.8113,-2.9011,-2.9093,-3.0362,-3.1038,-3.119,-3.119,-3.119,-3.119,-3.119,-3.119,-3.119,-3.119,-3.1546,-3.2205,-3.2949,-3.3694,-3.4387,-3.5148,-3.552,-3.5639,-3.5639,-3.5639,-3.5667,-3.5985,-3.6374,-3.702,-3.7524,-3.7948,-3.8433,-3.8658,-3.8707,-3.8707,-3.8707,-3.8707,-3.8707,-3.8707,-3.8707,-3.8707,-3.8707,-3.8707,-3.8707,-3.8707,-3.8707,-3.8707,-3.8707,-3.8707,-3.8707,-3.8707,-3.8707,-1.9299,-1.9431,-2.1175,-2.1889,-2.2013,-2.2763,-2.3125,-2.3125,-2.3125,-2.3125,-2.3125,-2.3125,-2.3125,-2.3125,-2.305,-2.2523,-2.1506,-2.1418,-2.0727,-2.01,-1.9798,-1.9798,-1.9798,-1.9798,-1.9798,-1.9798,-1.9798,-2.0105,-2.0459,-2.0646,-2.1369,-2.2221,-2.2512,-2.2965,-2.3465,-2.3595,-2.3595,-2.3595,-2.3595,-2.3565,-2.349,-2.3475,-2.3415,-2.3385,-2.337,-2.3385,-2.331,-2.3026,-2.2547,-2.1934,-2.1844,-2.1829,-2.1904,-2.2503,-2.2996,-2.346,-2.3623,-2.3681,-2.3767,-2.4307,-2.4776,-2.5259,-2.5799,-2.6293,-2.6994,-2.8197,-2.9042,-2.9245,-3.0395,-3.1055,-3.119,-3.119,-3.119,-3.119,-3.119,-3.119,-3.119,-3.119,-3.1444,-3.2161,-3.2831,-3.366,-3.432,-3.5047,-3.5639,-3.5639,-3.5639,-3.5639,-3.5711,-3.5941,-3.6457,-3.7076,-3.7451,-3.7738,-3.8234,-3.8707,-3.8707,-3.8707,-3.8707,-3.8707,-3.8707,-3.8707,-3.8707,-3.8707,-3.8707,-3.8707,-3.8707,-3.8707,-3.8707,-3.8707,-3.8707,-3.8707,-3.8707,-3.8707,-3.8707,-1.9299,-1.9431,-2.1175,-2.1889,-2.2075,-2.2763,-2.3125,-2.3125,-2.3125,-2.3125,-2.3125,-2.3125,-2.3125,-2.3125,-2.3088,-2.2535,-2.1606,-2.143,-2.0865,-1.9911,-1.9798,-1.9798,-1.9798,-1.9798,-1.9798,-1.9798,-1.9798,-1.9901,-2.0042,-2.0295,-2.067,-2.1805,-2.2193,-2.2515,-2.345,-2.3595,-2.3595,-2.3595,-2.3595,-2.3595,-2.3595,-2.3595,-2.3595,-2.3595,-2.3595,-2.3595,-2.358,-2.3475,-2.334,-2.3116,-2.2757,-2.2637,-2.2996,-2.3236,-2.343,-2.3535,-2.3595,-2.3595,-2.3752,-2.4415,-2.5051,-2.5281,-2.5961,-2.6842,-2.7518,-2.8383,-2.9211,-2.982,-3.0683,-3.1157,-3.119,-3.119,-3.119,-3.119,-3.119,-3.119,-3.119,-3.119,-3.1309,-3.1664,-3.2577,-3.3474,-3.3694,-3.4861,-3.5368,-3.5554,-3.5639,-3.5639,-3.5739,-3.5941,-3.6481,-3.7114,-3.7542,-3.7861,-3.8318,-3.8707,-3.8707,-3.8707,-3.8707,-3.8707,-3.8707,-3.8707,-3.8707,-3.8707,-3.8707,-3.8707,-3.8707,-3.8707,-3.8707,-3.8707,-3.8707,-3.8707,-3.8707,-3.8707,-3.8707,-1.9552,-2.0009,-2.1353,-2.2137,-2.2519,-2.2896,-2.3125,-2.3125,-2.3125,-2.3125,-2.3125,-2.3125,-2.3125,-2.3125,-2.304,-2.2648,-2.1895,-2.1292,-2.0639,-1.9949,-1.9798,-1.9798,-1.9798,-1.9798,-1.9798,-1.9798,-1.9798,-1.9952,-2.0194,-2.0346,-2.0966,-2.2053,-2.2146,-2.2711,-2.345,-2.3595,-2.3595,-2.3595,-2.3595,-2.3595,-2.3595,-2.3595,-2.3595,-2.3595,-2.3595,-2.3595,-2.3595,-2.3595,-2.3595,-2.352,-2.3295,-2.3236,-2.352,-2.3595,-2.3595,-2.3595,-2.3595,-2.3752,-2.4059,-2.4471,-2.5028,-2.5524,-2.6104,-2.6837,-2.7687,-2.8535,-2.9296,-3.004,-3.07,-3.119,-3.119,-3.119,-3.119,-3.119,-3.119,-3.119,-3.119,-3.119,-3.119,-3.1393,-3.2188,-3.2916,-3.3626,-3.4573,-3.5233,-3.5487,-3.5622,-3.5622,-3.5739,-3.5985,-3.6539,-3.7114,-3.7578,-3.8032,-3.8465,-3.8707,-3.8707,-3.8707,-3.8707,-3.8707,-3.8707,-3.8707,-3.8707,-3.8707,-3.8707,-3.8707,-3.8707,-3.8707,-3.8707,-3.8707,-3.8707,-3.8707,-3.8707,-3.8707,-3.8707,-1.9814,-2.0655,-2.1553,-2.2384,-2.3017,-2.3065,-2.3125,-2.3125,-2.3125,-2.3125,-2.3125,-2.3125,-2.3125,-2.3125,-2.3125,-2.2811,-2.2133,-2.1259,-2.0467,-2.0087,-1.9861,-1.9811,-1.9798,-1.9798,-1.9798,-1.9798,-1.9798,-2.0105,-2.0396,-2.0696,-2.1064,-2.2253,-2.2498,-2.2815,-2.3406,-2.3595,-2.3595,-2.3595,-2.3595,-2.3595,-2.3595,-2.3595,-2.3595,-2.3595,-2.3595,-2.3595,-2.3595,-2.3595,-2.3595,-2.3595,-2.3595,-2.3595,-2.3595,-2.3595,-2.3595,-2.3595,-2.3595,-2.3752,-2.4059,-2.4455,-2.4973,-2.5852,-2.6104,-2.6764,-2.7837,-2.8653,-2.9414,-3.0176,-3.0869,-3.119,-3.119,-3.119,-3.119,-3.119,-3.119,-3.119,-3.119,-3.119,-3.119,-3.1292,-3.1952,-3.2662,-3.3372,-3.4201,-3.4844,-3.5402,-3.5537,-3.5667,-3.5783,-3.6122,-3.6724,-3.7266,-3.7773,-3.815,-3.8578,-3.8707,-3.8707,-3.8707,-3.8707,-3.8707,-3.8707,-3.8707,-3.8707,-3.8707,-3.8707,-3.8707,-3.8707,-3.8707,-3.8707,-3.8707,-3.8707,-3.8707,-3.8707,-3.8707,-3.8707,-1.9814,-2.0655,-2.1553,-2.2384,-2.3017,-2.3065,-2.3078,-2.3125,-2.3125,-2.3125,-2.3125,-2.3125,-2.3125,-2.3125,-2.3125,-2.2824,-2.2159,-2.1255,-2.0693,-2.0376,-2.0062,-1.9798,-1.9798,-1.9798,-1.9798,-1.9798,-1.9798,-1.9901,-2.0055,-2.0042,-2.0917,-2.171,-2.2007,-2.2515,-2.3363,-2.3595,-2.3595,-2.3595,-2.3595,-2.3595,-2.3595,-2.3595,-2.3595,-2.3595,-2.3595,-2.3595,-2.3595,-2.3595,-2.3595,-2.3595,-2.3595,-2.3595,-2.3595,-2.3595,-2.3595,-2.3595,-2.3595,-2.3666,-2.3948,-2.4617,-2.5012,-2.5486,-2.6052,-2.7229,-2.8315,-2.8941,-2.96,-3.0548,-3.1038,-3.119,-3.119,-3.119,-3.119,-3.119,-3.119,-3.119,-3.119,-3.119,-3.119,-3.1241,-3.1867,-3.2517,-3.3119,-3.3795,-3.4523,-3.5131,-3.5487,-3.5661,-3.5854,-3.6357,-3.702,-3.7524,-3.8016,-3.835,-3.8707,-3.8707,-3.8707,-3.8707,-3.8707,-3.8707,-3.8707,-3.8707,-3.8707,-3.8707,-3.8707,-3.8707,-3.8707,-3.8707,-3.8707,-3.8707,-3.8707,-3.8707,-3.8707,-3.8707,-3.8707,-1.9177,-1.9944,-2.0386,-2.129,-2.2322,-2.2445,-2.2702,-2.3065,-2.3125,-2.3125,-2.3125,-2.3125,-2.3125,-2.3125,-2.3125,-2.2824,-2.2196,-2.1518,-2.1008,-2.068,-2.01,-1.9798,-1.9798,-1.9798,-1.9798,-1.9798,-1.9798,-2.0003,-2.0295,-2.0346,-2.0966,-2.196,-2.2207,-2.2711,-2.3363,-2.3595,-2.3595,-2.3595,-2.3595,-2.3595,-2.3595,-2.3595,-2.3595,-2.3595,-2.3595,-2.3595,-2.3595,-2.3595,-2.3595,-2.3595,-2.3595,-2.3595,-2.3595,-2.3595,-2.3595,-2.3595,-2.3595,-2.3752,-2.4032,-2.4776,-2.5297,-2.5689,-2.6332,-2.7164,-2.8146,-2.8789,-2.9702,-3.0734,-3.119,-3.119,-3.119,-3.119,-3.119,-3.119,-3.119,-3.119,-3.119,-3.119,-3.119,-3.119,-3.1478,-3.2002,-3.2662,-3.3389,-3.4167,-3.4793,-3.5334,-3.5637,-3.5847,-3.6545,-3.7248,-3.7791,-3.8252,-3.8483,-3.8707,-3.8707,-3.8707,-3.8707,-3.8707,-3.8707,-3.8707,-3.8707,-3.8707,-3.8707,-3.8707,-3.8707,-3.8707,-3.8707,-3.8707,-3.8707,-3.8707,-3.8707,-3.8707,-3.8707,-3.8707,-1.8529,-1.9309,-1.9497,-2.0462,-2.1815,-2.2063,-2.2506,-2.3005,-2.3125,-2.3125,-2.3125,-2.3125,-2.3125,-2.3125,-2.3088,-2.2887,-2.241,-2.182,-2.1242,-2.0803,-2.0125,-1.9798,-1.9798,-1.9798,-1.9798,-1.9798,-1.9798,-2.0055,-2.0295,-2.0409,-2.1272,-2.2021,-2.2452,-2.2905,-2.3406,-2.3595,-2.3595,-2.3595,-2.3595,-2.3595,-2.3595,-2.3595,-2.3595,-2.3595,-2.3595,-2.3595,-2.3595,-2.3595,-2.3595,-2.3595,-2.3595,-2.3595,-2.3595,-2.3595,-2.3595,-2.3595,-2.3595,-2.3837,-2.4199,-2.4672,-2.5089,-2.5373,-2.6341,-2.7125,-2.8022,-2.9016,-3.0023,-3.092,-3.119,-3.119,-3.119,-3.119,-3.119,-3.119,-3.119,-3.119,-3.119,-3.119,-3.119,-3.119,-3.119,-3.1613,-3.2341,-3.278,-3.3525,-3.4438,-3.4996,-3.5676,-3.5985,-3.6689,-3.7377,-3.7982,-3.8401,-3.8578,-3.8707,-3.8707,-3.8707,-3.8707,-3.8707,-3.8707,-3.8707,-3.8707,-3.8707,-3.8707,-3.8707,-3.8707,-3.8707,-3.8707,-3.8707,-3.8707,-3.8707,-3.8707,-3.8707,-3.8707,-3.8707,-1.8529,-1.9375,-2.0139,-2.1049,-2.1939,-2.2567,-2.2944,-2.3065,-2.3125,-2.3125,-2.3125,-2.3125,-2.3125,-2.3125,-2.3125,-2.3027,-2.2723,-2.197,-2.143,-2.1142,-2.03,-1.9798,-1.9798,-1.9798,-1.9798,-1.9798,-1.9798,-1.985,-2.0042,-2.0055,-2.067,-2.1663,-2.21,-2.2409,-2.3508,-2.3595,-2.3595,-2.3595,-2.3595,-2.3595,-2.3595,-2.3595,-2.3595,-2.3595,-2.3595,-2.3595,-2.3595,-2.3595,-2.3595,-2.3595,-2.3595,-2.3595,-2.3595,-2.3595,-2.3595,-2.3595,-2.3595,-2.3638,-2.3837,-2.4348,-2.4697,-2.5162,-2.6129,-2.725,-2.8298,-2.9618,-3.07,-3.1055,-3.119,-3.119,-3.119,-3.119,-3.119,-3.119,-3.119,-3.119,-3.119,-3.119,-3.119,-3.119,-3.119,-3.1562,-3.2121,-3.2442,-3.2865,-3.3812,-3.4711,-3.5369,-3.618,-3.6955,-3.7596,-3.8219,-3.8465,-3.8627,-3.8707,-3.8707,-3.8707,-3.8707,-3.8707,-3.8707,-3.8707,-3.8707,-3.8707,-3.8707,-3.8707,-3.8707,-3.8707,-3.8707,-3.8707,-3.8707,-3.8707,-3.8707,-3.8707,-3.8707,-3.8707,-1.8529,-1.9299,-1.9683,-2.0655,-2.1877,-2.2261,-2.2702,-2.3065,-2.3125,-2.3125,-2.3125,-2.3125,-2.3125,-2.3125,-2.3125,-2.3125,-2.2887,-2.1983,-2.1493,-2.1255,-2.0413,-1.9811,-1.9798,-1.9798,-1.9798,-1.9798,-1.9798,-1.9798,-1.9901,-2.0245,-2.0868,-2.1615,-2.21,-2.2711,-2.3508,-2.3595,-2.3595,-2.3595,-2.3595,-2.3595,-2.3595,-2.3595,-2.3595,-2.3595,-2.3595,-2.3595,-2.3595,-2.3595,-2.3595,-2.3595,-2.3595,-2.3595,-2.3595,-2.3595,-2.3595,-2.3595,-2.3595,-2.3595,-2.3724,-2.4389,-2.4672,-2.5082,-2.6118,-2.7322,-2.8568,-2.977,-3.0852,-3.1173,-3.119,-3.119,-3.119,-3.119,-3.119,-3.119,-3.119,-3.119,-3.119,-3.119,-3.119,-3.119,-3.1207,-3.1512,-3.1799,-3.2087,-3.25,-3.3211,-3.4328,-3.5324,-3.6344,-3.7398,-3.799,-3.8533,-3.8627,-3.8707,-3.8707,-3.8707,-3.8707,-3.8707,-3.8707,-3.8707,-3.8707,-3.8707,-3.8707,-3.8707,-3.8707,-3.8707,-3.8707,-3.8707,-3.8707,-3.8707,-3.8707,-3.8707,-3.8707,-3.8707,-3.8707,-1.8529,-1.9299,-1.9552,-2.0526,-2.1877,-2.2125,-2.2567,-2.3065,-2.3125,-2.3125,-2.3125,-2.3125,-2.3125,-2.3125,-2.3125,-2.3125,-2.2977,-2.1983,-2.1581,-2.1117,-2.0464,-1.9874,-1.9798,-1.9798,-1.9798,-1.9798,-1.9798,-1.9798,-2.0042,-2.0584,-2.1245,-2.171,-2.23,-2.2965,-2.3421,-2.3595,-2.3595,-2.3595,-2.3595,-2.3595,-2.3595,-2.3595,-2.3595,-2.3595,-2.3595,-2.3595,-2.3595,-2.3595,-2.3595,-2.3595,-2.3595,-2.3595,-2.3595,-2.3595,-2.3595,-2.3595,-2.3595,-2.3595,-2.3752,-2.4184,-2.4792,-2.5394,-2.65,-2.7947,-2.9428,-3.0125,-3.0514,-3.1173,-3.119,-3.119,-3.119,-3.119,-3.119,-3.119,-3.119,-3.119,-3.119,-3.119,-3.119,-3.119,-3.119,-3.119,-3.1478,-3.1732,-3.2178,-3.2727,-3.3791,-3.5114,-3.6469,-3.7706,-3.825,-3.8676,-3.8707,-3.8707,-3.8707,-3.8707,-3.8707,-3.8707,-3.8707,-3.8707,-3.8707,-3.8707,-3.8707,-3.8707,-3.8707,-3.8707,-3.8707,-3.8707,-3.8707,-3.8707,-3.8707,-3.8707,-3.8707,-3.8707,-3.8738,-1.8529,-1.9365,-2.0139,-2.0985,-2.1939,-2.2702,-2.3017,-2.3125,-2.3125,-2.3125,-2.3125,-2.3125,-2.3125,-2.3125,-2.3125,-2.3113,-2.299,-2.1983,-2.1594,-2.1117,-2.0426,-2.0001,-1.9938,-1.9925,-1.9849,-1.9798,-1.9798,-1.9798,-2.0042,-2.0868,-2.1424,-2.1791,-2.2483,-2.3039,-2.3421,-2.3595,-2.3595,-2.3595,-2.3595,-2.3595,-2.3595,-2.3595,-2.3595,-2.3595,-2.3595,-2.3595,-2.3595,-2.3595,-2.3595,-2.3595,-2.3595,-2.3595,-2.3595,-2.3595,-2.3595,-2.3595,-2.3595,-2.3595,-2.3709,-2.3879,-2.4105,-2.5033,-2.6604,-2.8636,-3.0239,-3.0852,-3.1173,-3.1157,-3.119,-3.119,-3.119,-3.119,-3.119,-3.119,-3.119,-3.119,-3.119,-3.119,-3.119,-3.119,-3.119,-3.119,-3.119,-3.1478,-3.1765,-3.228,-3.3505,-3.4849,-3.6646,-3.7889,-3.8342,-3.8676,-3.8707,-3.8707,-3.8707,-3.8707,-3.8707,-3.8707,-3.8707,-3.8707,-3.8707,-3.8707,-3.8707,-3.8707,-3.8707,-3.8707,-3.8707,-3.8707,-3.8707,-3.8707,-3.8707,-3.8707,-3.875,-3.8762,-3.8762,-1.8368,-1.8889,-1.9554,-2.059,-2.1951,-2.275,-2.3125,-2.3125,-2.3125,-2.3125,-2.3125,-2.3125,-2.3125,-2.3125,-2.3053,-2.2924,-2.256,-2.187,-2.1556,-2.1267,-2.0752,-2.042,-2.0384,-2.0242,-2.0162,-1.9874,-1.9798,-1.9798,-1.994,-2.0868,-2.1342,-2.1852,-2.2665,-2.3231,-2.3551,-2.3595,-2.3595,-2.3595,-2.3595,-2.3595,-2.3595,-2.3595,-2.3595,-2.3595,-2.3595,-2.3595,-2.3595,-2.3595,-2.3595,-2.3595,-2.3595,-2.3595,-2.3595,-2.3595,-2.3595,-2.3595,-2.3595,-2.3595,-2.3681,-2.3952,-2.4657,-2.6046,-2.7459,-2.8888,-3.0465,-3.092,-3.114,-3.119,-3.119,-3.119,-3.119,-3.119,-3.119,-3.119,-3.119,-3.119,-3.119,-3.119,-3.119,-3.119,-3.119,-3.119,-3.119,-3.1224,-3.1512,-3.1924,-3.322,-3.4692,-3.654,-3.7895,-3.8318,-3.8627,-3.8707,-3.8707,-3.8707,-3.8707,-3.8707,-3.8707,-3.8707,-3.8707,-3.8707,-3.8707,-3.8707,-3.8707,-3.8707,-3.8707,-3.8707,-3.8707,-3.8707,-3.8707,-3.8707,-3.8707,-3.8732,-3.8815,-3.8855,-1.7891,-1.8385,-1.9009,-2.0169,-2.1713,-2.2433,-2.2871,-2.3065,-2.3125,-2.3125,-2.3125,-2.3125,-2.3125,-2.3125,-2.3113,-2.2836,-2.2334,-2.1782,-2.143,-2.1041,-2.0668,-2.0467,-2.0441,-2.0341,-2.0075,-1.9849,-1.9798,-1.9798,-1.985,-2.0633,-2.1245,-2.1993,-2.2891,-2.345,-2.3595,-2.3595,-2.3595,-2.3595,-2.3595,-2.3595,-2.3595,-2.3595,-2.3595,-2.3595,-2.3595,-2.3595,-2.3595,-2.3595,-2.3595,-2.3595,-2.3595,-2.3595,-2.3595,-2.3595,-2.3595,-2.3595,-2.3595,-2.3595,-2.3709,-2.4204,-2.5192,-2.6462,-2.7623,-2.881,-2.9917,-3.0769,-3.1157,-3.119,-3.119,-3.119,-3.119,-3.119,-3.119,-3.119,-3.119,-3.119,-3.119,-3.119,-3.119,-3.119,-3.119,-3.119,-3.119,-3.1258,-3.1833,-3.2388,-3.3797,-3.5188,-3.6679,-3.7773,-3.8183,-3.8465,-3.8707,-3.8707,-3.8707,-3.8707,-3.8707,-3.8707,-3.8707,-3.8707,-3.8707,-3.8707,-3.8707,-3.8707,-3.8707,-3.8707,-3.8707,-3.8707,-3.8707,-3.8707,-3.8707,-3.8707,-3.8762,-3.8844,-3.8999,-1.7189,-1.7873,-1.8747,-1.987,-2.1164,-2.1725,-2.2421,-2.3065,-2.3125,-2.3125,-2.3125,-2.3125,-2.3125,-2.3113,-2.3075,-2.2673,-2.2159,-2.1644,-2.1255,-2.0853,-2.0589,-2.0081,-2.0064,-2.0147,-2.0175,-1.9874,-1.9798,-1.9798,-1.985,-2.0818,-2.1424,-2.2025,-2.2876,-2.3595,-2.3595,-2.3595,-2.3595,-2.3595,-2.3595,-2.3595,-2.3595,-2.3595,-2.3595,-2.3595,-2.3595,-2.3595,-2.3595,-2.3595,-2.3595,-2.3595,-2.3595,-2.3595,-2.3595,-2.3595,-2.3595,-2.3595,-2.3595,-2.3595,-2.3638,-2.4101,-2.5077,-2.6377,-2.751,-2.8685,-2.9963,-3.0804,-3.119,-3.119,-3.119,-3.119,-3.119,-3.119,-3.119,-3.119,-3.119,-3.119,-3.119,-3.119,-3.119,-3.119,-3.119,-3.119,-3.119,-3.1376,-3.2087,-3.3012,-3.4427,-3.5758,-3.6962,-3.7578,-3.7964,-3.8433,-3.8707,-3.8707,-3.8707,-3.8707,-3.8707,-3.8707,-3.8707,-3.8707,-3.8707,-3.8707,-3.8707,-3.8707,-3.8707,-3.8707,-3.8707,-3.8707,-3.8707,-3.8707,-3.8707,-3.8719,-3.8773,-3.8884,-3.9008,-1.6979,-1.7434,-1.802,-1.8963,-2.0258,-2.1602,-2.2536,-2.3027,-2.3125,-2.3125,-2.3125,-2.3125,-2.3125,-2.305,-2.2711,-2.2309,-2.1744,-2.123,-2.0882,-2.1142,-2.0891,-2.0944,-2.0871,-2.0672,-2.0476,-1.9962,-1.9798,-1.9836,-1.9798,-2.0855,-2.1376,-2.1885,-2.2935,-2.3508,-2.3595,-2.3595,-2.3595,-2.3595,-2.3595,-2.3595,-2.3595,-2.3595,-2.3595,-2.3595,-2.3595,-2.3595,-2.3595,-2.3595,-2.3595,-2.3595,-2.3595,-2.3595,-2.3595,-2.3595,-2.3595,-2.3595,-2.3595,-2.3595,-2.3595,-2.3925,-2.4683,-2.5999,-2.7162,-2.8362,-2.9888,-3.0796,-3.1123,-3.119,-3.119,-3.119,-3.119,-3.119,-3.119,-3.119,-3.119,-3.119,-3.119,-3.119,-3.119,-3.119,-3.119,-3.119,-3.119,-3.1292,-3.1901,-3.2696,-3.3909,-3.5496,-3.6849,-3.7269,-3.7632,-3.8318,-3.8707,-3.8707,-3.8707,-3.8707,-3.8707,-3.8707,-3.8707,-3.8707,-3.8707,-3.8707,-3.8707,-3.8707,-3.8707,-3.8707,-3.8707,-3.8707,-3.8707,-3.8707,-3.8707,-3.8707,-3.8732,-3.8884,-3.9044,-1.6518,-1.6994,-1.7256,-1.8239,-1.9701,-2.1247,-2.2303,-2.3002,-2.3125,-2.3125,-2.3125,-2.3125,-2.3,-2.2774,-2.246,-2.182,-2.1242,-2.1159,-2.0577,-2.1066,-2.1355,-2.1219,-2.1188,-2.135,-2.0898,-2.0305,-2.0076,-2.0114,-2.0258,-2.0818,-2.1615,-2.25,-2.3172,-2.3508,-2.3595,-2.3595,-2.3595,-2.3595,-2.3595,-2.3595,-2.3595,-2.3595,-2.3595,-2.3595,-2.3595,-2.3595,-2.3595,-2.3595,-2.3595,-2.3595,-2.3595,-2.3595,-2.3595,-2.3595,-2.3595,-2.3595,-2.3595,-2.3595,-2.3595,-2.3595,-2.4476,-2.5743,-2.6607,-2.7891,-2.9388,-3.0224,-3.0796,-3.1021,-3.114,-3.119,-3.119,-3.119,-3.119,-3.119,-3.119,-3.119,-3.119,-3.119,-3.119,-3.119,-3.119,-3.119,-3.1207,-3.136,-3.1647,-3.2442,-3.3296,-3.5007,-3.6629,-3.7086,-3.756,-3.8285,-3.8707,-3.8707,-3.8707,-3.8707,-3.8707,-3.8707,-3.8707,-3.8707,-3.8707,-3.8707,-3.8707,-3.8707,-3.8707,-3.8707,-3.8707,-3.8707,-3.8707,-3.8707,-3.8707,-3.8707,-3.8689,-3.8855,-3.9036,-1.5816,-1.6436,-1.6492,-1.7711,-1.9506,-2.0614,-2.1811,-2.3002,-2.304,-2.3027,-2.3015,-2.3012,-2.2711,-2.2334,-2.2221,-2.1644,-2.0945,-2.1104,-2.0803,-2.0589,-2.1167,-2.1126,-2.1256,-2.1406,-2.1146,-2.0866,-2.0666,-2.072,-2.0848,-2.1452,-2.2377,-2.3172,-2.345,-2.3595,-2.3595,-2.3595,-2.3595,-2.3595,-2.3595,-2.3595,-2.3595,-2.3595,-2.3595,-2.3595,-2.3595,-2.3595,-2.3595,-2.3595,-2.3595,-2.3595,-2.3595,-2.3595,-2.3595,-2.3595,-2.3595,-2.3595,-2.3595,-2.3595,-2.3595,-2.3595,-2.409,-2.5163,-2.5854,-2.7275,-2.8609,-2.9597,-3.0289,-3.0801,-3.1055,-3.114,-3.119,-3.119,-3.119,-3.119,-3.119,-3.119,-3.119,-3.119,-3.119,-3.119,-3.119,-3.119,-3.119,-3.1326,-3.1529,-3.229,-3.3226,-3.4634,-3.6089,-3.7011,-3.7578,-3.8401,-3.8707,-3.8707,-3.8707,-3.8707,-3.8707,-3.8707,-3.8707,-3.8707,-3.8707,-3.8707,-3.8707,-3.8707,-3.8707,-3.8707,-3.8707,-3.8707,-3.8707,-3.8707,-3.8707,-3.8707,-3.8689,-3.8815,-3.8999,-1.5864,-1.6492,-1.6492,-1.7445,-1.9036,-2.0257,-2.1418,-2.2439,-2.2536,-2.2548,-2.2535,-2.2528,-2.2261,-2.1719,-2.133,-2.0978,-2.069,-2.0514,-2.0765,-2.0966,-2.1393,-2.1604,-2.1828,-2.1886,-2.1512,-2.115,-2.1078,-2.1224,-2.1149,-2.1833,-2.2725,-2.3465,-2.3595,-2.3595,-2.3595,-2.3595,-2.3595,-2.3595,-2.3595,-2.3595,-2.3595,-2.3595,-2.3595,-2.3595,-2.3595,-2.3595,-2.3595,-2.3595,-2.3595,-2.3595,-2.3595,-2.3595,-2.3595,-2.3595,-2.3595,-2.3595,-2.3595,-2.3595,-2.3595,-2.3595,-2.3921,-2.4592,-2.5227,-2.6412,-2.7844,-2.8928,-2.9736,-3.0345,-3.0818,-3.0903,-3.1106,-3.119,-3.119,-3.119,-3.119,-3.119,-3.119,-3.119,-3.119,-3.119,-3.119,-3.119,-3.119,-3.1207,-3.1495,-3.2205,-3.3196,-3.4483,-3.5696,-3.6617,-3.7596,-3.8433,-3.8707,-3.8707,-3.8707,-3.8707,-3.8707,-3.8707,-3.8707,-3.8707,-3.8707,-3.8707,-3.8707,-3.8707,-3.8707,-3.8707,-3.8707,-3.8707,-3.8707,-3.8707,-3.8707,-3.8707,-3.8719,-3.8855,-3.8952,-1.5642,-1.6093,-1.6379,-1.7357,-1.8774,-1.9899,-2.0853,-2.1625,-2.1903,-2.2063,-2.2246,-2.2039,-2.1809,-2.1486,-2.0991,-2.0743,-2.0731,-2.0752,-2.0941,-2.1305,-2.1882,-2.2108,-2.2314,-2.2426,-2.2128,-2.1767,-2.1628,-2.1845,-2.1828,-2.2392,-2.3334,-2.3551,-2.3595,-2.3595,-2.3595,-2.3595,-2.3595,-2.3595,-2.3595,-2.3595,-2.3595,-2.3595,-2.3595,-2.3595,-2.3595,-2.3595,-2.3595,-2.3595,-2.3595,-2.3595,-2.3595,-2.3595,-2.3595,-2.3595,-2.3595,-2.3595,-2.3595,-2.3595,-2.3595,-2.3595,-2.3906,-2.4348,-2.4894,-2.5805,-2.6737,-2.7732,-2.8901,-2.9871,-3.0311,-3.0666,-3.0954,-3.119,-3.119,-3.119,-3.119,-3.119,-3.119,-3.119,-3.119,-3.119,-3.119,-3.119,-3.119,-3.119,-3.1343,-3.1867,-3.2747,-3.4047,-3.5346,-3.6498,-3.754,-3.8515,-3.8658,-3.8707,-3.8707,-3.8707,-3.8707,-3.8707,-3.8707,-3.8707,-3.8707,-3.8707,-3.8707,-3.8707,-3.8707,-3.8707,-3.8707,-3.8707,-3.8707,-3.8707,-3.8707,-3.8689,-3.8762,-3.8884,-3.8933,-1.542,-1.5468,-1.6255,-1.7357,-1.8608,-1.9473,-2.015,-2.0636,-2.1125,-2.1651,-2.2027,-2.1635,-2.1399,-2.1209,-2.0781,-2.0501,-2.0614,-2.0815,-2.1104,-2.1518,-2.2297,-2.2548,-2.246,-2.2677,-2.2305,-2.2309,-2.2374,-2.236,-2.2833,-2.3187,-2.3465,-2.3595,-2.3595,-2.3595,-2.3595,-2.3595,-2.3595,-2.3595,-2.3595,-2.3595,-2.3595,-2.3595,-2.3595,-2.3595,-2.3595,-2.3595,-2.3595,-2.3595,-2.3595,-2.3595,-2.3595,-2.3595,-2.3595,-2.3595,-2.3595,-2.3595,-2.3595,-2.3595,-2.3595,-2.3595,-2.3794,-2.4266,-2.4871,-2.5422,-2.6167,-2.7242,-2.8533,-2.9583,-3.0108,-3.0683,-3.1055,-3.1173,-3.119,-3.119,-3.119,-3.119,-3.119,-3.119,-3.119,-3.119,-3.119,-3.119,-3.119,-3.119,-3.119,-3.1579,-3.2417,-3.3706,-3.4964,-3.629,-3.743,-3.8491,-3.8627,-3.8707,-3.8707,-3.8707,-3.8707,-3.8707,-3.8707,-3.8707,-3.8707,-3.8707,-3.8707,-3.8707,-3.8707,-3.8707,-3.8707,-3.8707,-3.8707,-3.8707,-3.8707,-3.8719,-3.8803,-3.8961,-3.8999,-1.542,-1.5526,-1.68,-1.7578,-1.8004,-1.9254,-1.9874,-2.0024,-2.0117,-2.0802,-2.1481,-2.1162,-2.0916,-2.0882,-2.0338,-2.01,-2.025,-2.074,-2.1091,-2.1518,-2.2246,-2.2393,-2.2322,-2.2421,-2.2255,-2.2128,-2.2251,-2.2831,-2.3229,-2.3508,-2.3595,-2.3595,-2.3595,-2.3595,-2.3595,-2.3595,-2.3595,-2.3595,-2.3716,-2.3701,-2.3714,-2.364,-2.3595,-2.3595,-2.3595,-2.3595,-2.3595,-2.3595,-2.3595,-2.3595,-2.3595,-2.3595,-2.3595,-2.3595,-2.3595,-2.3595,-2.3595,-2.3595,-2.3638,-2.3638,-2.3837,-2.4116,-2.4592,-2.5051,-2.5826,-2.7064,-2.8212,-2.9228,-3.0023,-3.0632,-3.1089,-3.114,-3.119,-3.119,-3.119,-3.119,-3.119,-3.119,-3.119,-3.119,-3.119,-3.119,-3.119,-3.119,-3.119,-3.1674,-3.2423,-3.3532,-3.48,-3.6095,-3.7352,-3.8314,-3.8609,-3.8707,-3.8707,-3.8707,-3.8707,-3.8707,-3.8707,-3.8707,-3.8707,-3.8707,-3.8707,-3.8707,-3.8707,-3.8707,-3.8707,-3.8707,-3.8707,-3.8707,-3.8719,-3.875,-3.9008,-3.9178,-3.9178,-1.542,-1.5584,-1.6968,-1.7786,-1.8274,-1.9319,-1.9798,-1.9798,-1.9798,-2.0288,-2.0986,-2.0576,-2.0428,-2.0536,-2.0062,-1.9987,-2.0137,-2.0501,-2.1016,-2.1493,-2.1775,-2.1886,-2.2005,-2.2167,-2.1992,-2.1898,-2.2387,-2.2939,-2.3451,-2.3595,-2.3595,-2.3595,-2.3595,-2.3595,-2.3595,-2.3595,-2.361,-2.361,-2.3881,-2.4045,-2.397,-2.3834,-2.364,-2.3595,-2.361,-2.3595,-2.3595,-2.3595,-2.3595,-2.3595,-2.3595,-2.3595,-2.3595,-2.3595,-2.3595,-2.3595,-2.3595,-2.3595,-2.3681,-2.3794,-2.3906,-2.4266,-2.4894,-2.5598,-2.6008,-2.7238,-2.8397,-2.9347,-2.9905,-3.0497,-3.1004,-3.119,-3.119,-3.119,-3.119,-3.119,-3.119,-3.119,-3.119,-3.119,-3.119,-3.119,-3.119,-3.119,-3.1269,-3.1682,-3.2461,-3.3633,-3.487,-3.6065,-3.7293,-3.8204,-3.8535,-3.8707,-3.8707,-3.8707,-3.8707,-3.8707,-3.8707,-3.8707,-3.8707,-3.8707,-3.8707,-3.8707,-3.8707,-3.8707,-3.8707,-3.8707,-3.8707,-3.8707,-3.875,-3.8792,-3.9082,-3.9389,-3.9486,-1.542,-1.5633,-1.6968,-1.795,-1.8661,-1.9475,-1.9798,-1.9798,-1.9811,-2.0062,-2.0448,-2.0086,-2.0207,-2.0329,-2.01,-2.0275,-2.0542,-2.0765,-2.1142,-2.1317,-2.1732,-2.1786,-2.1873,-2.2027,-2.19,-2.2005,-2.2362,-2.2855,-2.3334,-2.3508,-2.3595,-2.3595,-2.3595,-2.3595,-2.361,-2.3728,-2.3831,-2.4014,-2.4283,-2.4654,-2.4477,-2.4118,-2.3909,-2.3774,-2.364,-2.361,-2.3595,-2.3595,-2.3595,-2.3595,-2.3595,-2.3595,-2.3681,-2.3709,-2.3681,-2.3681,-2.3948,-2.3921,-2.3921,-2.4266,-2.4389,-2.4736,-2.5561,-2.6112,-2.6468,-2.7417,-2.8598,-2.9296,-2.9854,-3.0463,-3.0954,-3.119,-3.119,-3.119,-3.119,-3.119,-3.119,-3.119,-3.119,-3.119,-3.119,-3.119,-3.119,-3.119,-3.1402,-3.1849,-3.2703,-3.3951,-3.5126,-3.6266,-3.7471,-3.8162,-3.8603,-3.8707,-3.8707,-3.8707,-3.8707,-3.8707,-3.8707,-3.8707,-3.8707,-3.8707,-3.8707,-3.8707,-3.8707,-3.8707,-3.8707,-3.8707,-3.8707,-3.8707,-3.8844,-3.8952,-3.9249,-3.9534,-3.984,-1.542,-1.5517,-1.6957,-1.7688,-1.8004,-1.9254,-1.9798,-1.9798,-1.9798,-1.9874,-1.9935,-1.9985,-2.0147,-2.068,-2.0062,-1.9974,-2.015,-2.069,-2.0853,-2.0983,-2.1794,-2.1861,-2.1786,-2.1807,-2.1885,-2.2105,-2.2373,-2.2706,-2.3289,-2.354,-2.3595,-2.3595,-2.364,-2.3655,-2.3728,-2.398,-2.4428,-2.4612,-2.4969,-2.5431,-2.5207,-2.4896,-2.4522,-2.4238,-2.3894,-2.3714,-2.3595,-2.3595,-2.3595,-2.3595,-2.3595,-2.3595,-2.3709,-2.3906,-2.4032,-2.4225,-2.4511,-2.443,-2.4536,-2.4776,-2.4989,-2.5089,-2.5779,-2.6151,-2.6828,-2.788,-2.8803,-2.933,-2.9956,-3.0734,-3.119,-3.119,-3.119,-3.119,-3.119,-3.119,-3.119,-3.119,-3.119,-3.119,-3.119,-3.119,-3.119,-3.119,-3.123,-3.1792,-3.2616,-3.3861,-3.5091,-3.6313,-3.7546,-3.8151,-3.867,-3.8707,-3.8707,-3.8707,-3.8707,-3.8707,-3.8707,-3.8707,-3.8707,-3.8707,-3.8707,-3.8707,-3.8707,-3.8707,-3.8707,-3.8707,-3.8707,-3.8719,-3.8933,-3.9125,-3.9414,-3.9712,-3.9983]}]]